Time,TemperatureF,DewpointF,PressureIn,WindDirection,WindDirectionDegrees,WindSpeedMPH,WindSpeedGustMPH,Humidity,HourlyPrecipIn,Conditions,Clouds,dailyrainin,SoftwareType,DateUTC
2013-09-27 00:00:00,57.4,54.5,29.68,NE,45,0.0,0.0,90,0.00,,---,0.00,VWS V14.01,2013-09-27 07:00:00,
2013-09-27 00:01:00,56.8,53.6,29.68,NE,45,0.0,0.0,89,0.00,,---,0.00,VWS V14.01,2013-09-27 07:01:00,
2013-09-27 00:02:00,56.8,53.6,29.68,NE,45,0.0,0.0,89,0.00,,---,0.00,VWS V14.01,2013-09-27 07:02:00,
2013-09-27 00:03:00,56.8,53.6,29.68,NE,45,0.0,0.0,89,0.00,,---,0.00,VWS V14.01,2013-09-27 07:03:00,
2013-09-27 00:04:00,56.8,53.6,29.68,NE,45,0.0,0.0,89,0.00,,---,0.00,VWS V14.01,2013-09-27 07:04:00,
2013-09-27 00:05:00,57.6,54.7,29.68,NE,45,0.0,0.0,90,0.00,,---,0.00,VWS V14.01,2013-09-27 07:05:00,
2013-09-27 00:06:00,56.8,53.6,29.68,NE,45,0.0,0.0,89,0.00,,---,0.00,VWS V14.01,2013-09-27 07:06:00,
2013-09-27 00:07:00,56.8,53.6,29.68,NE,45,0.0,0.0,89,0.00,,---,0.00,VWS V14.01,2013-09-27 07:07:00,
2013-09-27 00:08:00,56.8,53.6,29.68,NE,45,0.0,0.0,89,0.00,,---,0.00,VWS V14.01,2013-09-27 07:08:00,
2013-09-27 00:09:00,57.4,54.5,29.68,NE,45,0.0,0.0,90,0.00,,---,0.00,VWS V14.01,2013-09-27 07:09:00,
2013-09-27 00:10:00,57.9,55.0,29.68,NE,45,0.0,0.0,90,0.00,,---,0.00,VWS V14.01,2013-09-27 07:10:00,
2013-09-27 00:11:00,57.4,54.5,29.68,NE,45,0.0,0.0,90,0.00,,---,0.00,VWS V14.01,2013-09-27 07:11:00,
2013-09-27 00:12:00,57.4,54.5,29.68,NE,45,0.0,0.0,90,0.00,,---,0.00,VWS V14.01,2013-09-27 07:12:00,
2013-09-27 00:13:00,57.6,54.7,29.68,NE,45,0.0,0.0,90,0.00,,---,0.00,VWS V14.01,2013-09-27 07:13:00,
2013-09-27 00:14:00,57.6,54.7,29.68,NE,45,0.0,0.0,90,0.00,,---,0.00,VWS V14.01,2013-09-27 07:14:00,
2013-09-27 00:15:00,58.1,55.2,29.68,NE,45,0.0,0.0,90,0.00,,---,0.00,VWS V14.01,2013-09-27 07:15:00,
2013-09-27 00:16:00,57.7,54.8,29.68,NE,45,0.0,0.0,90,0.00,,---,0.00,VWS V14.01,2013-09-27 07:16:00,
2013-09-27 00:17:00,57.7,54.8,29.68,NE,45,0.0,0.0,90,0.00,,---,0.00,VWS V14.01,2013-09-27 07:17:00,
2013-09-27 00:18:00,57.9,55.0,29.68,NE,45,0.0,0.0,90,0.00,,---,0.00,VWS V14.01,2013-09-27 07:18:00,
2013-09-27 00:19:00,57.9,55.0,29.68,NE,45,0.0,0.0,90,0.00,,---,0.00,VWS V14.01,2013-09-27 07:19:00,
2013-09-27 00:20:00,58.1,55.2,29.68,NE,45,0.0,0.0,90,0.00,,---,0.00,VWS V14.01,2013-09-27 07:20:00,
2013-09-27 00:21:00,58.1,55.2,29.68,NE,45,0.0,0.0,90,0.00,,---,0.00,VWS V14.01,2013-09-27 07:21:00,
2013-09-27 00:22:00,58.1,55.2,29.68,NE,45,0.0,0.0,90,0.00,,---,0.00,VWS V14.01,2013-09-27 07:22:00,
2013-09-27 00:23:00,58.1,55.2,29.68,NE,45,0.0,0.0,90,0.00,,---,0.00,VWS V14.01,2013-09-27 07:23:00,
2013-09-27 00:24:00,58.1,55.2,29.68,NE,45,0.0,0.0,90,0.00,,---,0.00,VWS V14.01,2013-09-27 07:24:00,
2013-09-27 00:25:00,58.1,55.2,29.68,NE,45,0.0,0.0,90,0.00,,---,0.00,VWS V14.01,2013-09-27 07:25:00,
2013-09-27 00:26:00,58.1,55.2,29.68,NE,45,0.0,0.0,90,0.00,,---,0.00,VWS V14.01,2013-09-27 07:26:00,
2013-09-27 00:27:00,58.1,55.2,29.68,NE,45,0.0,0.0,90,0.00,,---,0.00,VWS V14.01,2013-09-27 07:27:00,
2013-09-27 00:28:00,58.1,55.2,29.68,NE,45,0.0,0.0,90,0.00,,---,0.00,VWS V14.01,2013-09-27 07:28:00,
2013-09-27 00:29:00,58.1,55.2,29.68,NE,45,0.0,0.0,90,0.00,,---,0.00,VWS V14.01,2013-09-27 07:29:00,
2013-09-27 00:30:00,58.1,55.2,29.68,NE,45,0.0,0.0,90,0.00,,---,0.00,VWS V14.01,2013-09-27 07:30:00,
2013-09-27 00:31:00,58.1,55.2,29.68,NE,45,0.0,0.0,90,0.00,,---,0.00,VWS V14.01,2013-09-27 07:31:00,
2013-09-27 00:32:00,58.1,55.2,29.68,NE,45,0.0,0.0,90,0.00,,---,0.00,VWS V14.01,2013-09-27 07:32:00,
2013-09-27 00:33:00,58.1,55.2,29.68,NE,45,0.0,0.0,90,0.00,,---,0.00,VWS V14.01,2013-09-27 07:33:00,
2013-09-27 00:34:00,58.1,55.2,29.68,NE,45,0.0,0.0,90,0.00,,---,0.00,VWS V14.01,2013-09-27 07:34:00,
2013-09-27 00:35:00,57.4,54.5,29.68,NE,45,0.0,0.0,90,0.00,,---,0.00,VWS V14.01,2013-09-27 07:35:00,
2013-09-27 00:36:00,58.1,55.2,29.68,NE,45,0.0,0.0,90,0.00,,---,0.00,VWS V14.01,2013-09-27 07:36:00,
2013-09-27 00:37:00,58.1,55.2,29.68,NE,45,0.0,0.0,90,0.00,,---,0.00,VWS V14.01,2013-09-27 07:37:00,
2013-09-27 00:38:00,58.1,55.2,29.68,NE,45,0.0,0.0,90,0.00,,---,0.00,VWS V14.01,2013-09-27 07:38:00,
2013-09-27 00:39:00,58.1,55.2,29.68,NE,45,0.0,0.0,90,0.00,,---,0.00,VWS V14.01,2013-09-27 07:39:00,
2013-09-27 00:40:00,57.4,54.5,29.68,NE,45,0.0,0.0,90,0.00,,---,0.00,VWS V14.01,2013-09-27 07:40:00,
2013-09-27 00:41:00,58.1,55.2,29.68,NE,45,0.0,0.0,90,0.00,,---,0.00,VWS V14.01,2013-09-27 07:41:00,
2013-09-27 00:42:00,58.1,55.2,29.68,NE,45,0.0,0.0,90,0.00,,---,0.00,VWS V14.01,2013-09-27 07:42:00,
2013-09-27 00:43:00,57.4,54.5,29.68,NE,45,0.0,0.0,90,0.00,,---,0.00,VWS V14.01,2013-09-27 07:43:00,
2013-09-27 00:44:00,57.4,54.5,29.68,NE,45,0.0,0.0,90,0.00,,---,0.00,VWS V14.01,2013-09-27 07:44:00,
2013-09-27 00:45:00,57.2,54.3,29.68,NE,45,0.0,0.0,90,0.00,,---,0.00,VWS V14.01,2013-09-27 07:45:00,
2013-09-27 00:46:00,57.4,54.5,29.68,NE,45,0.0,0.0,90,0.00,,---,0.00,VWS V14.01,2013-09-27 07:46:00,
2013-09-27 00:47:00,57.4,54.5,29.68,NE,45,0.0,0.0,90,0.00,,---,0.00,VWS V14.01,2013-09-27 07:47:00,
2013-09-27 00:48:00,57.4,54.5,29.68,NE,45,0.0,0.0,90,0.00,,---,0.00,VWS V14.01,2013-09-27 07:48:00,
2013-09-27 00:49:00,57.2,54.3,29.68,NE,45,0.0,0.0,90,0.00,,---,0.00,VWS V14.01,2013-09-27 07:49:00,
2013-09-27 00:50:00,57.2,54.3,29.68,NE,45,0.0,0.0,90,0.00,,---,0.00,VWS V14.01,2013-09-27 07:50:00,
2013-09-27 00:51:00,57.2,54.3,29.68,NE,45,0.0,0.0,90,0.00,,---,0.00,VWS V14.01,2013-09-27 07:51:00,
2013-09-27 00:52:00,57.2,54.3,29.68,NE,45,0.0,0.0,90,0.00,,---,0.00,VWS V14.01,2013-09-27 07:52:00,
2013-09-27 00:53:00,57.2,54.3,29.68,NE,45,0.0,0.0,90,0.00,,---,0.00,VWS V14.01,2013-09-27 07:53:00,
2013-09-27 00:54:00,57.2,54.3,29.68,NE,45,0.0,0.0,90,0.00,,---,0.00,VWS V14.01,2013-09-27 07:54:00,
2013-09-27 00:55:00,57.2,54.3,29.68,NE,45,0.0,0.0,90,0.00,,---,0.00,VWS V14.01,2013-09-27 07:55:00,
2013-09-27 00:56:00,57.2,54.3,29.68,NE,45,0.0,0.0,90,0.00,,---,0.00,VWS V14.01,2013-09-27 07:56:00,
2013-09-27 00:57:00,57.2,54.3,29.68,NE,45,0.0,0.0,90,0.00,,---,0.00,VWS V14.01,2013-09-27 07:57:00,
2013-09-27 00:58:00,57.2,54.3,29.68,NE,45,0.0,0.0,90,0.00,,---,0.00,VWS V14.01,2013-09-27 07:58:00,
2013-09-27 00:59:00,56.8,53.9,29.68,NE,45,0.0,0.0,90,0.00,,---,0.00,VWS V14.01,2013-09-27 07:59:00,
2013-09-27 01:00:00,57.2,54.3,29.68,NE,45,0.0,0.0,90,0.00,,---,0.00,VWS V14.01,2013-09-27 08:00:00,
2013-09-27 01:01:00,57.2,54.3,29.68,NE,45,0.0,0.0,90,0.00,,---,0.00,VWS V14.01,2013-09-27 08:01:00,
2013-09-27 01:02:00,57.2,54.3,29.68,NE,45,0.0,0.0,90,0.00,,---,0.00,VWS V14.01,2013-09-27 08:02:00,
2013-09-27 01:03:00,57.2,54.3,29.68,NE,45,0.0,0.0,90,0.00,,---,0.00,VWS V14.01,2013-09-27 08:03:00,
2013-09-27 01:04:00,56.8,54.2,29.68,NE,45,0.0,0.0,91,0.00,,---,0.00,VWS V14.01,2013-09-27 08:04:00,
2013-09-27 01:05:00,57.2,54.3,29.68,NE,45,0.0,0.0,90,0.00,,---,0.00,VWS V14.01,2013-09-27 08:05:00,
2013-09-27 01:06:00,57.2,54.3,29.68,NE,45,0.0,0.0,90,0.00,,---,0.00,VWS V14.01,2013-09-27 08:06:00,
2013-09-27 01:07:00,56.8,53.9,29.68,NE,45,0.0,0.0,90,0.00,,---,0.00,VWS V14.01,2013-09-27 08:07:00,
2013-09-27 01:08:00,56.8,53.9,29.68,NE,45,0.0,0.0,90,0.00,,---,0.00,VWS V14.01,2013-09-27 08:08:00,
2013-09-27 01:09:00,56.8,54.2,29.68,NE,45,0.0,0.0,91,0.00,,---,0.00,VWS V14.01,2013-09-27 08:09:00,
2013-09-27 01:10:00,56.8,53.9,29.68,NE,45,0.0,0.0,90,0.00,,---,0.00,VWS V14.01,2013-09-27 08:10:00,
2013-09-27 01:11:00,56.8,54.2,29.68,NE,45,0.0,0.0,91,0.00,,---,0.00,VWS V14.01,2013-09-27 08:11:00,
2013-09-27 01:12:00,56.8,54.2,29.68,NE,45,0.0,0.0,91,0.00,,---,0.00,VWS V14.01,2013-09-27 08:12:00,
2013-09-27 01:13:00,56.8,54.2,29.68,NE,45,0.0,0.0,91,0.00,,---,0.00,VWS V14.01,2013-09-27 08:13:00,
2013-09-27 01:14:00,56.8,54.2,29.68,NE,45,0.0,0.0,91,0.00,,---,0.00,VWS V14.01,2013-09-27 08:14:00,
2013-09-27 01:15:00,56.8,54.2,29.68,NE,45,0.0,0.0,91,0.00,,---,0.00,VWS V14.01,2013-09-27 08:15:00,
2013-09-27 01:16:00,56.8,54.2,29.68,NE,45,0.0,0.0,91,0.00,,---,0.00,VWS V14.01,2013-09-27 08:16:00,
2013-09-27 01:17:00,56.8,54.2,29.68,NE,45,0.0,0.0,91,0.00,,---,0.00,VWS V14.01,2013-09-27 08:17:00,
2013-09-27 01:18:00,56.8,54.2,29.68,NE,45,0.0,0.0,91,0.00,,---,0.00,VWS V14.01,2013-09-27 08:18:00,
2013-09-27 01:19:00,56.8,54.2,29.68,NE,45,0.0,0.0,91,0.00,,---,0.00,VWS V14.01,2013-09-27 08:19:00,
2013-09-27 01:20:00,56.8,54.2,29.68,NE,45,0.0,0.0,91,0.00,,---,0.00,VWS V14.01,2013-09-27 08:20:00,
2013-09-27 01:21:00,56.8,54.2,29.68,NE,45,0.0,0.0,91,0.00,,---,0.00,VWS V14.01,2013-09-27 08:21:00,
2013-09-27 01:22:00,56.8,54.2,29.68,NE,45,0.0,0.0,91,0.00,,---,0.00,VWS V14.01,2013-09-27 08:22:00,
2013-09-27 01:23:00,56.8,54.2,29.68,NE,45,0.0,0.0,91,0.00,,---,0.00,VWS V14.01,2013-09-27 08:23:00,
2013-09-27 01:24:00,56.8,54.2,29.68,NE,45,0.0,0.0,91,0.00,,---,0.00,VWS V14.01,2013-09-27 08:24:00,
2013-09-27 01:25:00,56.8,54.2,29.68,NE,45,0.0,0.0,91,0.00,,---,0.00,VWS V14.01,2013-09-27 08:25:00,
2013-09-27 01:26:00,56.8,54.2,29.68,NE,45,0.0,0.0,91,0.00,,---,0.00,VWS V14.01,2013-09-27 08:26:00,
2013-09-27 01:27:00,56.8,54.2,29.68,NE,45,0.0,0.0,91,0.00,,---,0.00,VWS V14.01,2013-09-27 08:27:00,
2013-09-27 01:28:00,56.7,54.1,29.68,NE,45,0.0,0.0,91,0.00,,---,0.00,VWS V14.01,2013-09-27 08:28:00,
2013-09-27 01:29:00,56.8,54.2,29.68,NE,45,0.0,0.0,91,0.00,,---,0.00,VWS V14.01,2013-09-27 08:29:00,
2013-09-27 01:30:00,56.8,54.2,29.68,NE,45,0.0,0.0,91,0.00,,---,0.00,VWS V14.01,2013-09-27 08:30:00,
2013-09-27 01:31:00,56.8,54.2,29.68,NE,45,0.0,0.0,91,0.00,,---,0.00,VWS V14.01,2013-09-27 08:31:00,
2013-09-27 01:32:00,56.8,54.2,29.68,NE,45,0.0,0.0,91,0.00,,---,0.00,VWS V14.01,2013-09-27 08:32:00,
2013-09-27 01:33:00,56.5,53.9,29.68,NE,45,0.0,0.0,91,0.00,,---,0.00,VWS V14.01,2013-09-27 08:33:00,
2013-09-27 01:34:00,56.8,54.2,29.68,NE,45,0.9,0.9,91,0.00,,---,0.00,VWS V14.01,2013-09-27 08:34:00,
2013-09-27 01:35:00,56.8,54.2,29.68,NE,45,0.0,0.9,91,0.00,,---,0.00,VWS V14.01,2013-09-27 08:35:00,
2013-09-27 01:36:00,56.8,54.2,29.68,NE,45,0.0,0.0,91,0.00,,---,0.00,VWS V14.01,2013-09-27 08:36:00,
2013-09-27 01:37:00,56.7,54.1,29.68,NE,45,0.0,0.0,91,0.00,,---,0.00,VWS V14.01,2013-09-27 08:37:00,
2013-09-27 01:38:00,56.5,53.9,29.68,NE,45,0.0,0.0,91,0.00,,---,0.00,VWS V14.01,2013-09-27 08:38:00,
2013-09-27 01:39:00,56.7,54.1,29.68,NE,45,0.0,0.9,91,0.00,,---,0.00,VWS V14.01,2013-09-27 08:39:00,
2013-09-27 01:40:00,56.7,54.1,29.68,NE,45,0.0,0.0,91,0.00,,---,0.00,VWS V14.01,2013-09-27 08:40:00,
2013-09-27 01:41:00,56.5,53.9,29.68,NE,45,0.0,0.0,91,0.00,,---,0.00,VWS V14.01,2013-09-27 08:41:00,
2013-09-27 01:42:00,56.5,53.9,29.68,NE,45,0.0,0.0,91,0.00,,---,0.00,VWS V14.01,2013-09-27 08:42:00,
2013-09-27 01:43:00,56.3,53.7,29.68,NE,45,0.0,0.0,91,0.00,,---,0.00,VWS V14.01,2013-09-27 08:43:00,
2013-09-27 01:44:00,56.5,53.9,29.68,NE,45,0.0,0.0,91,0.00,,---,0.00,VWS V14.01,2013-09-27 08:44:00,
2013-09-27 01:45:00,56.5,53.9,29.68,NE,45,0.0,0.0,91,0.00,,---,0.00,VWS V14.01,2013-09-27 08:45:00,
2013-09-27 01:46:00,56.5,53.9,29.68,NE,45,0.0,0.0,91,0.00,,---,0.00,VWS V14.01,2013-09-27 08:46:00,
2013-09-27 01:47:00,56.5,53.9,29.68,NE,45,0.0,0.0,91,0.00,,---,0.00,VWS V14.01,2013-09-27 08:47:00,
2013-09-27 01:48:00,56.1,53.5,29.68,NE,45,0.0,0.0,91,0.00,,---,0.00,VWS V14.01,2013-09-27 08:48:00,
2013-09-27 01:49:00,56.3,53.7,29.68,NE,45,0.0,0.0,91,0.00,,---,0.00,VWS V14.01,2013-09-27 08:49:00,
2013-09-27 01:50:00,56.3,53.7,29.68,NE,45,0.0,0.0,91,0.00,,---,0.00,VWS V14.01,2013-09-27 08:50:00,
2013-09-27 01:51:00,56.3,53.7,29.68,NE,45,0.0,0.0,91,0.00,,---,0.00,VWS V14.01,2013-09-27 08:51:00,
2013-09-27 01:52:00,56.3,53.7,29.68,NE,45,0.0,0.0,91,0.00,,---,0.00,VWS V14.01,2013-09-27 08:52:00,
2013-09-27 01:53:00,55.9,53.4,29.68,NE,45,0.0,0.0,91,0.00,,---,0.00,VWS V14.01,2013-09-27 08:53:00,
2013-09-27 01:54:00,56.3,53.7,29.68,NE,45,0.0,0.0,91,0.00,,---,0.00,VWS V14.01,2013-09-27 08:54:00,
2013-09-27 01:55:00,56.3,53.7,29.68,NE,45,0.0,0.0,91,0.00,,---,0.00,VWS V14.01,2013-09-27 08:55:00,
2013-09-27 01:56:00,56.3,53.7,29.68,NE,45,0.0,0.0,91,0.00,,---,0.00,VWS V14.01,2013-09-27 08:56:00,
2013-09-27 01:57:00,56.1,53.5,29.68,NE,45,0.0,0.0,91,0.00,,---,0.00,VWS V14.01,2013-09-27 08:57:00,
2013-09-27 01:58:00,55.8,53.2,29.68,NE,45,0.0,0.0,91,0.00,,---,0.00,VWS V14.01,2013-09-27 08:58:00,
2013-09-27 01:59:00,56.1,53.5,29.68,NE,45,0.0,0.0,91,0.00,,---,0.00,VWS V14.01,2013-09-27 08:59:00,
2013-09-27 02:00:00,55.9,53.4,29.68,NE,45,0.0,0.0,91,0.00,,---,0.00,VWS V14.01,2013-09-27 09:00:00,
2013-09-27 02:01:00,55.9,53.4,29.68,NE,45,0.0,0.0,91,0.00,,---,0.00,VWS V14.01,2013-09-27 09:01:00,
2013-09-27 02:02:00,55.9,53.4,29.68,NE,45,0.0,0.0,91,0.00,,---,0.00,VWS V14.01,2013-09-27 09:02:00,
2013-09-27 02:03:00,55.8,53.2,29.68,NE,45,0.0,0.0,91,0.00,,---,0.00,VWS V14.01,2013-09-27 09:03:00,
2013-09-27 02:04:00,55.8,53.2,29.68,NE,45,0.0,0.0,91,0.00,,---,0.00,VWS V14.01,2013-09-27 09:04:00,
2013-09-27 02:05:00,55.8,53.2,29.68,NE,45,0.0,0.0,91,0.00,,---,0.00,VWS V14.01,2013-09-27 09:05:00,
2013-09-27 02:06:00,55.8,53.2,29.68,NE,45,0.0,0.0,91,0.00,,---,0.00,VWS V14.01,2013-09-27 09:06:00,
2013-09-27 02:07:00,55.8,53.2,29.68,NE,45,0.0,0.0,91,0.00,,---,0.00,VWS V14.01,2013-09-27 09:07:00,
2013-09-27 02:08:00,55.8,53.2,29.68,NE,45,0.0,0.0,91,0.00,,---,0.00,VWS V14.01,2013-09-27 09:08:00,
2013-09-27 02:09:00,55.8,53.2,29.68,NE,45,0.0,0.0,91,0.00,,---,0.00,VWS V14.01,2013-09-27 09:09:00,
2013-09-27 02:10:00,55.8,53.2,29.68,NE,45,0.0,0.0,91,0.00,,---,0.00,VWS V14.01,2013-09-27 09:10:00,
2013-09-27 02:11:00,55.8,53.2,29.68,NE,45,0.0,0.0,91,0.00,,---,0.00,VWS V14.01,2013-09-27 09:11:00,
2013-09-27 02:12:00,55.8,53.2,29.68,NE,45,0.0,0.0,91,0.00,,---,0.00,VWS V14.01,2013-09-27 09:12:00,
2013-09-27 02:13:00,55.8,53.2,29.68,NE,45,0.0,0.0,91,0.00,,---,0.00,VWS V14.01,2013-09-27 09:13:00,
2013-09-27 02:14:00,55.8,53.2,29.68,NE,45,0.0,0.0,91,0.00,,---,0.00,VWS V14.01,2013-09-27 09:14:00,
2013-09-27 02:15:00,55.8,53.2,29.68,NE,45,0.0,0.0,91,0.00,,---,0.00,VWS V14.01,2013-09-27 09:15:00,
2013-09-27 02:16:00,55.8,53.2,29.68,NE,45,0.0,0.0,91,0.00,,---,0.00,VWS V14.01,2013-09-27 09:16:00,
2013-09-27 02:17:00,55.8,53.2,29.68,NE,45,0.0,0.0,91,0.00,,---,0.00,VWS V14.01,2013-09-27 09:17:00,
2013-09-27 02:18:00,54.7,52.4,29.68,NE,45,0.0,0.0,92,0.00,,---,0.00,VWS V14.01,2013-09-27 09:18:00,
2013-09-27 02:19:00,55.8,53.2,29.68,NE,45,0.0,0.0,91,0.00,,---,0.00,VWS V14.01,2013-09-27 09:19:00,
2013-09-27 02:20:00,55.8,53.2,29.68,NE,45,0.0,0.0,91,0.00,,---,0.00,VWS V14.01,2013-09-27 09:20:00,
2013-09-27 02:21:00,55.8,53.2,29.68,NE,45,0.0,0.0,91,0.00,,---,0.00,VWS V14.01,2013-09-27 09:21:00,
2013-09-27 02:22:00,55.8,53.2,29.68,NE,45,0.0,0.0,91,0.00,,---,0.00,VWS V14.01,2013-09-27 09:22:00,
2013-09-27 02:23:00,54.5,52.2,29.68,NE,45,0.0,0.0,92,0.00,,---,0.00,VWS V14.01,2013-09-27 09:23:00,
2013-09-27 02:24:00,54.9,52.6,29.68,NE,45,0.0,0.0,92,0.00,,---,0.00,VWS V14.01,2013-09-27 09:24:00,
2013-09-27 02:25:00,54.9,52.6,29.68,NE,45,0.0,0.0,92,0.00,,---,0.00,VWS V14.01,2013-09-27 09:25:00,
2013-09-27 02:26:00,54.9,52.6,29.68,NE,45,0.0,0.0,92,0.00,,---,0.00,VWS V14.01,2013-09-27 09:26:00,
2013-09-27 02:27:00,54.7,52.4,29.68,NE,45,0.0,0.0,92,0.00,,---,0.00,VWS V14.01,2013-09-27 09:27:00,
2013-09-27 02:28:00,54.7,52.4,29.68,NE,45,0.0,0.0,92,0.00,,---,0.00,VWS V14.01,2013-09-27 09:28:00,
2013-09-27 02:29:00,54.7,52.4,29.68,NE,45,0.0,0.0,92,0.00,,---,0.00,VWS V14.01,2013-09-27 09:29:00,
2013-09-27 02:30:00,54.7,52.4,29.68,NE,45,0.0,0.0,92,0.00,,---,0.00,VWS V14.01,2013-09-27 09:30:00,
2013-09-27 02:31:00,54.5,52.2,29.68,NE,45,0.0,0.0,92,0.00,,---,0.00,VWS V14.01,2013-09-27 09:31:00,
2013-09-27 02:32:00,54.5,52.2,29.68,NE,45,0.0,0.0,92,0.00,,---,0.00,VWS V14.01,2013-09-27 09:32:00,
2013-09-27 02:33:00,54.9,52.9,29.68,NE,45,0.0,0.0,93,0.00,,---,0.00,VWS V14.01,2013-09-27 09:33:00,
2013-09-27 02:34:00,54.5,52.2,29.68,NE,45,0.0,0.0,92,0.00,,---,0.00,VWS V14.01,2013-09-27 09:34:00,
2013-09-27 02:35:00,54.5,52.2,29.68,NE,45,0.0,0.0,92,0.00,,---,0.00,VWS V14.01,2013-09-27 09:35:00,
2013-09-27 02:36:00,54.7,52.4,29.68,NE,45,0.0,0.0,92,0.00,,---,0.00,VWS V14.01,2013-09-27 09:36:00,
2013-09-27 02:37:00,54.7,52.4,29.68,NE,45,0.0,0.0,92,0.00,,---,0.00,VWS V14.01,2013-09-27 09:37:00,
2013-09-27 02:38:00,54.9,52.9,29.68,NE,45,0.0,0.0,93,0.00,,---,0.00,VWS V14.01,2013-09-27 09:38:00,
2013-09-27 02:39:00,54.9,52.6,29.68,NE,45,0.0,0.0,92,0.00,,---,0.00,VWS V14.01,2013-09-27 09:39:00,
2013-09-27 02:40:00,54.9,52.9,29.68,NE,45,0.0,0.0,93,0.00,,---,0.00,VWS V14.01,2013-09-27 09:40:00,
2013-09-27 02:41:00,54.9,52.9,29.68,NE,45,0.0,0.0,93,0.00,,---,0.00,VWS V14.01,2013-09-27 09:41:00,
2013-09-27 02:42:00,54.9,52.9,29.68,NE,45,0.0,0.0,93,0.00,,---,0.00,VWS V14.01,2013-09-27 09:42:00,
2013-09-27 02:43:00,54.9,52.9,29.68,NE,45,0.0,0.0,93,0.00,,---,0.00,VWS V14.01,2013-09-27 09:43:00,
2013-09-27 02:44:00,54.9,52.9,29.68,NE,45,0.0,0.0,93,0.00,,---,0.00,VWS V14.01,2013-09-27 09:44:00,
2013-09-27 02:45:00,54.9,52.9,29.68,NE,45,0.0,0.0,93,0.00,,---,0.00,VWS V14.01,2013-09-27 09:45:00,
2013-09-27 02:46:00,54.9,52.9,29.68,NE,45,0.0,0.0,93,0.00,,---,0.00,VWS V14.01,2013-09-27 09:46:00,
2013-09-27 02:47:00,54.9,52.9,29.68,NE,45,0.0,0.0,93,0.00,,---,0.00,VWS V14.01,2013-09-27 09:47:00,
2013-09-27 02:48:00,54.9,52.9,29.68,NE,45,0.0,0.0,93,0.00,,---,0.00,VWS V14.01,2013-09-27 09:48:00,
2013-09-27 02:49:00,54.9,52.9,29.68,NE,45,0.0,0.0,93,0.00,,---,0.00,VWS V14.01,2013-09-27 09:49:00,
2013-09-27 02:50:00,54.9,52.9,29.68,NE,45,0.0,0.0,93,0.00,,---,0.00,VWS V14.01,2013-09-27 09:50:00,
2013-09-27 02:51:00,54.9,52.9,29.68,NE,45,0.0,0.0,93,0.00,,---,0.00,VWS V14.01,2013-09-27 09:51:00,
2013-09-27 02:52:00,54.9,52.9,29.68,NE,45,0.0,0.0,93,0.00,,---,0.00,VWS V14.01,2013-09-27 09:52:00,
2013-09-27 02:53:00,54.9,52.9,29.68,NE,45,0.0,0.0,93,0.00,,---,0.00,VWS V14.01,2013-09-27 09:53:00,
2013-09-27 02:54:00,54.9,52.9,29.68,NE,45,0.0,0.0,93,0.00,,---,0.00,VWS V14.01,2013-09-27 09:54:00,
2013-09-27 02:55:00,54.9,52.9,29.68,NE,45,0.0,0.0,93,0.00,,---,0.00,VWS V14.01,2013-09-27 09:55:00,
2013-09-27 02:56:00,54.9,52.9,29.68,NE,45,0.0,0.0,93,0.00,,---,0.00,VWS V14.01,2013-09-27 09:56:00,
2013-09-27 02:57:00,54.9,52.9,29.68,NE,45,0.0,0.0,93,0.00,,---,0.00,VWS V14.01,2013-09-27 09:57:00,
2013-09-27 02:58:00,54.9,52.9,29.68,NE,45,0.0,0.0,93,0.00,,---,0.00,VWS V14.01,2013-09-27 09:58:00,
2013-09-27 02:59:00,54.9,52.9,29.68,NE,45,0.0,0.0,93,0.00,,---,0.00,VWS V14.01,2013-09-27 09:59:00,
2013-09-27 03:00:00,54.9,52.9,29.68,NE,45,0.0,0.0,93,0.00,,---,0.00,VWS V14.01,2013-09-27 10:00:00,
2013-09-27 03:01:00,54.9,52.9,29.68,NE,45,0.0,0.0,93,0.00,,---,0.00,VWS V14.01,2013-09-27 10:01:00,
2013-09-27 03:02:00,54.9,52.9,29.68,NE,45,0.0,0.0,93,0.00,,---,0.00,VWS V14.01,2013-09-27 10:02:00,
2013-09-27 03:03:00,54.9,52.9,29.68,NE,45,0.0,0.0,93,0.00,,---,0.00,VWS V14.01,2013-09-27 10:03:00,
2013-09-27 03:04:00,54.9,52.9,29.68,NE,45,0.0,0.0,93,0.00,,---,0.00,VWS V14.01,2013-09-27 10:04:00,
2013-09-27 03:05:00,54.9,52.9,29.68,NE,45,0.0,0.0,93,0.00,,---,0.00,VWS V14.01,2013-09-27 10:05:00,
2013-09-27 03:06:00,54.9,52.9,29.68,NE,45,0.0,0.0,93,0.00,,---,0.00,VWS V14.01,2013-09-27 10:06:00,
2013-09-27 03:07:00,54.9,52.9,29.68,NE,45,0.0,0.0,93,0.00,,---,0.00,VWS V14.01,2013-09-27 10:07:00,
2013-09-27 03:08:00,54.9,52.9,29.68,NE,45,0.9,0.9,93,0.00,,---,0.00,VWS V14.01,2013-09-27 10:08:00,
2013-09-27 03:09:00,54.9,52.9,29.68,NE,45,0.0,0.0,93,0.00,,---,0.00,VWS V14.01,2013-09-27 10:09:00,
2013-09-27 03:10:00,54.9,52.9,29.68,NE,45,0.0,0.0,93,0.00,,---,0.00,VWS V14.01,2013-09-27 10:10:00,
2013-09-27 03:11:00,54.9,52.9,29.68,NE,45,0.0,0.0,93,0.00,,---,0.00,VWS V14.01,2013-09-27 10:11:00,
2013-09-27 03:12:00,54.9,52.9,29.68,NE,45,0.0,0.0,93,0.00,,---,0.00,VWS V14.01,2013-09-27 10:12:00,
2013-09-27 03:13:00,55.2,53.2,29.68,NE,45,0.0,0.0,93,0.00,,---,0.00,VWS V14.01,2013-09-27 10:13:00,
2013-09-27 03:14:00,54.9,52.9,29.68,NE,45,0.0,0.0,93,0.00,,---,0.00,VWS V14.01,2013-09-27 10:14:00,
2013-09-27 03:15:00,54.9,52.9,29.68,NE,45,0.0,0.0,93,0.00,,---,0.00,VWS V14.01,2013-09-27 10:15:00,
2013-09-27 03:16:00,54.9,52.9,29.68,NE,45,1.1,1.3,93,0.00,,---,0.00,VWS V14.01,2013-09-27 10:16:00,
2013-09-27 03:17:00,54.9,52.9,29.68,NE,45,0.9,1.1,93,0.00,,---,0.00,VWS V14.01,2013-09-27 10:17:00,
2013-09-27 03:18:00,55.2,53.2,29.68,NE,45,0.0,0.0,93,0.00,,---,0.00,VWS V14.01,2013-09-27 10:18:00,
2013-09-27 03:19:00,54.9,52.9,29.68,NE,45,0.0,0.0,93,0.00,,---,0.00,VWS V14.01,2013-09-27 10:19:00,
2013-09-27 03:20:00,54.9,52.9,29.68,NE,45,0.0,0.0,93,0.00,,---,0.00,VWS V14.01,2013-09-27 10:20:00,
2013-09-27 03:21:00,54.9,52.9,29.68,NE,45,0.0,0.0,93,0.00,,---,0.00,VWS V14.01,2013-09-27 10:21:00,
2013-09-27 03:22:00,55.2,53.2,29.68,NE,45,0.0,0.0,93,0.00,,---,0.00,VWS V14.01,2013-09-27 10:22:00,
2013-09-27 03:23:00,55.2,53.2,29.68,NE,45,0.0,0.0,93,0.00,,---,0.00,VWS V14.01,2013-09-27 10:23:00,
2013-09-27 03:24:00,55.2,53.2,29.68,NE,45,0.0,0.0,93,0.00,,---,0.00,VWS V14.01,2013-09-27 10:24:00,
2013-09-27 03:25:00,55.2,53.2,29.68,NE,45,0.0,0.0,93,0.00,,---,0.00,VWS V14.01,2013-09-27 10:25:00,
2013-09-27 03:26:00,55.2,53.2,29.68,NE,45,0.0,0.0,93,0.00,,---,0.00,VWS V14.01,2013-09-27 10:26:00,
2013-09-27 03:27:00,55.2,53.2,29.68,NE,45,0.0,0.0,93,0.00,,---,0.00,VWS V14.01,2013-09-27 10:27:00,
2013-09-27 03:28:00,54.3,52.0,29.65,NE,45,0.0,0.0,92,0.00,,---,0.00,VWS V14.01,2013-09-27 10:28:00,
2013-09-27 03:29:00,55.2,53.2,29.68,NE,45,0.0,0.0,93,0.00,,---,0.00,VWS V14.01,2013-09-27 10:29:00,
2013-09-27 03:30:00,55.2,53.2,29.68,NE,45,0.0,0.0,93,0.00,,---,0.00,VWS V14.01,2013-09-27 10:30:00,
2013-09-27 03:31:00,55.2,53.2,29.68,NE,45,0.0,0.0,93,0.00,,---,0.00,VWS V14.01,2013-09-27 10:31:00,
2013-09-27 03:32:00,55.2,53.2,29.68,NE,45,0.0,0.0,93,0.00,,---,0.00,VWS V14.01,2013-09-27 10:32:00,
2013-09-27 03:33:00,54.0,51.7,29.65,NE,45,0.0,0.0,92,0.00,,---,0.00,VWS V14.01,2013-09-27 10:33:00,
2013-09-27 03:34:00,55.2,53.2,29.68,NE,45,0.0,0.0,93,0.00,,---,0.00,VWS V14.01,2013-09-27 10:34:00,
2013-09-27 03:35:00,55.2,53.2,29.65,NE,45,0.0,0.0,93,0.00,,---,0.00,VWS V14.01,2013-09-27 10:35:00,
2013-09-27 03:36:00,55.2,53.2,29.65,NE,45,0.0,0.0,93,0.00,,---,0.00,VWS V14.01,2013-09-27 10:36:00,
2013-09-27 03:37:00,54.3,52.0,29.65,NE,45,0.0,0.0,92,0.00,,---,0.00,VWS V14.01,2013-09-27 10:37:00,
2013-09-27 03:38:00,53.8,51.5,29.65,NE,45,0.0,0.0,92,0.00,,---,0.00,VWS V14.01,2013-09-27 10:38:00,
2013-09-27 03:39:00,54.1,51.9,29.65,NE,45,0.0,0.0,92,0.00,,---,0.00,VWS V14.01,2013-09-27 10:39:00,
2013-09-27 03:40:00,54.1,51.9,29.65,NE,45,0.0,0.0,92,0.00,,---,0.00,VWS V14.01,2013-09-27 10:40:00,
2013-09-27 03:41:00,54.1,51.9,29.65,NE,45,0.0,0.0,92,0.00,,---,0.00,VWS V14.01,2013-09-27 10:41:00,
2013-09-27 03:42:00,54.0,51.7,29.65,NE,45,0.0,0.0,92,0.00,,---,0.00,VWS V14.01,2013-09-27 10:42:00,
2013-09-27 03:43:00,53.4,51.2,29.68,NE,45,0.0,0.0,92,0.00,,---,0.00,VWS V14.01,2013-09-27 10:43:00,
2013-09-27 03:44:00,54.0,51.7,29.65,NE,45,0.0,0.0,92,0.00,,---,0.00,VWS V14.01,2013-09-27 10:44:00,
2013-09-27 03:45:00,53.8,51.5,29.65,NE,45,0.0,0.0,92,0.00,,---,0.00,VWS V14.01,2013-09-27 10:45:00,
2013-09-27 03:46:00,53.8,51.5,29.65,NE,45,0.0,0.0,92,0.00,,---,0.00,VWS V14.01,2013-09-27 10:46:00,
2013-09-27 03:47:00,53.8,51.5,29.65,NE,45,0.0,0.0,92,0.00,,---,0.00,VWS V14.01,2013-09-27 10:47:00,
2013-09-27 03:48:00,53.2,51.3,29.68,NE,45,0.0,0.0,93,0.00,,---,0.00,VWS V14.01,2013-09-27 10:48:00,
2013-09-27 03:49:00,53.6,51.3,29.65,NE,45,0.0,0.0,92,0.00,,---,0.00,VWS V14.01,2013-09-27 10:49:00,
2013-09-27 03:50:00,53.6,51.3,29.68,NE,45,0.0,0.0,92,0.00,,---,0.00,VWS V14.01,2013-09-27 10:50:00,
2013-09-27 03:51:00,53.6,51.3,29.68,NE,45,0.0,0.0,92,0.00,,---,0.00,VWS V14.01,2013-09-27 10:51:00,
2013-09-27 03:52:00,53.4,51.2,29.68,NE,45,0.0,0.0,92,0.00,,---,0.00,VWS V14.01,2013-09-27 10:52:00,
2013-09-27 03:53:00,53.2,51.3,29.68,NE,45,0.0,0.0,93,0.00,,---,0.00,VWS V14.01,2013-09-27 10:53:00,
2013-09-27 03:54:00,53.4,51.5,29.68,NE,45,0.0,0.0,93,0.00,,---,0.00,VWS V14.01,2013-09-27 10:54:00,
2013-09-27 03:55:00,53.4,51.5,29.68,NE,45,0.0,0.0,93,0.00,,---,0.00,VWS V14.01,2013-09-27 10:55:00,
2013-09-27 03:56:00,53.4,51.5,29.68,NE,45,0.0,0.0,93,0.00,,---,0.00,VWS V14.01,2013-09-27 10:56:00,
2013-09-27 03:57:00,53.2,51.3,29.68,NE,45,0.0,0.0,93,0.00,,---,0.00,VWS V14.01,2013-09-27 10:57:00,
2013-09-27 03:58:00,53.2,51.3,29.68,NE,45,0.0,0.0,93,0.00,,---,0.00,VWS V14.01,2013-09-27 10:58:00,
2013-09-27 03:59:00,53.2,51.3,29.68,NE,45,0.0,0.0,93,0.00,,---,0.00,VWS V14.01,2013-09-27 10:59:00,
2013-09-27 04:00:00,53.2,51.3,29.68,NE,45,0.0,0.0,93,0.00,,---,0.00,VWS V14.01,2013-09-27 11:00:00,
2013-09-27 04:01:00,53.2,51.3,29.68,NE,45,0.0,0.0,93,0.00,,---,0.00,VWS V14.01,2013-09-27 11:01:00,
2013-09-27 04:02:00,53.2,51.3,29.68,NE,45,0.0,0.0,93,0.00,,---,0.00,VWS V14.01,2013-09-27 11:02:00,
2013-09-27 04:03:00,53.2,51.3,29.68,NE,45,0.0,0.0,93,0.00,,---,0.00,VWS V14.01,2013-09-27 11:03:00,
2013-09-27 04:04:00,53.2,51.3,29.68,NE,45,0.0,0.0,93,0.00,,---,0.00,VWS V14.01,2013-09-27 11:04:00,
2013-09-27 04:05:00,53.2,51.3,29.68,NE,45,0.0,0.0,93,0.00,,---,0.00,VWS V14.01,2013-09-27 11:05:00,
2013-09-27 04:06:00,53.2,51.3,29.68,NE,45,0.0,0.0,93,0.00,,---,0.00,VWS V14.01,2013-09-27 11:06:00,
2013-09-27 04:07:00,53.2,51.3,29.68,NE,45,0.0,0.0,93,0.00,,---,0.00,VWS V14.01,2013-09-27 11:07:00,
2013-09-27 04:08:00,53.2,51.3,29.68,NE,45,0.0,0.0,93,0.00,,---,0.00,VWS V14.01,2013-09-27 11:08:00,
2013-09-27 04:09:00,53.2,51.3,29.68,NE,45,0.0,0.0,93,0.00,,---,0.00,VWS V14.01,2013-09-27 11:09:00,
2013-09-27 04:10:00,53.2,51.3,29.68,NE,45,0.0,0.0,93,0.00,,---,0.00,VWS V14.01,2013-09-27 11:10:00,
2013-09-27 04:11:00,53.2,51.3,29.68,NE,45,0.0,0.0,93,0.00,,---,0.00,VWS V14.01,2013-09-27 11:11:00,
2013-09-27 04:12:00,53.2,51.3,29.68,NE,45,0.0,0.0,93,0.00,,---,0.00,VWS V14.01,2013-09-27 11:12:00,
2013-09-27 04:13:00,53.2,51.3,29.65,NNW,338,0.0,0.0,93,0.00,,---,0.00,VWS V14.01,2013-09-27 11:13:00,
2013-09-27 04:14:00,53.2,51.3,29.68,NE,45,0.0,0.0,93,0.00,,---,0.00,VWS V14.01,2013-09-27 11:14:00,
2013-09-27 04:15:00,53.2,51.3,29.68,NE,45,0.0,0.0,93,0.00,,---,0.00,VWS V14.01,2013-09-27 11:15:00,
2013-09-27 04:16:00,53.2,51.3,29.68,NE,45,0.0,0.0,93,0.00,,---,0.00,VWS V14.01,2013-09-27 11:16:00,
2013-09-27 04:17:00,53.2,51.3,29.68,NE,45,0.0,0.0,93,0.00,,---,0.00,VWS V14.01,2013-09-27 11:17:00,
2013-09-27 04:18:00,53.2,51.3,29.65,North,0,0.0,0.0,93,0.00,,---,0.00,VWS V14.01,2013-09-27 11:18:00,
2013-09-27 04:19:00,53.2,51.3,29.68,NNW,338,0.0,0.0,93,0.00,,---,0.00,VWS V14.01,2013-09-27 11:19:00,
2013-09-27 04:20:00,53.2,51.3,29.65,NNW,338,0.0,0.0,93,0.00,,---,0.00,VWS V14.01,2013-09-27 11:20:00,
2013-09-27 04:21:00,53.2,51.3,29.65,NNW,338,0.0,0.0,93,0.00,,---,0.00,VWS V14.01,2013-09-27 11:21:00,
2013-09-27 04:22:00,53.2,51.3,29.65,NNW,338,0.0,0.0,93,0.00,,---,0.00,VWS V14.01,2013-09-27 11:22:00,
2013-09-27 04:23:00,53.2,51.3,29.65,NNE,22,0.0,0.0,93,0.00,,---,0.00,VWS V14.01,2013-09-27 11:23:00,
2013-09-27 04:24:00,53.2,51.3,29.65,NNW,338,0.0,0.0,93,0.00,,---,0.00,VWS V14.01,2013-09-27 11:24:00,
2013-09-27 04:25:00,53.2,51.3,29.65,NNW,338,0.0,0.0,93,0.00,,---,0.00,VWS V14.01,2013-09-27 11:25:00,
2013-09-27 04:26:00,53.2,51.3,29.65,NNW,338,0.0,0.0,93,0.00,,---,0.00,VWS V14.01,2013-09-27 11:26:00,
2013-09-27 04:27:00,53.2,51.3,29.65,North,0,0.0,0.0,93,0.00,,---,0.00,VWS V14.01,2013-09-27 11:27:00,
2013-09-27 04:28:00,52.9,51.2,29.68,ENE,68,0.0,0.0,94,0.00,,---,0.00,VWS V14.01,2013-09-27 11:28:00,
2013-09-27 04:29:00,53.2,51.3,29.65,North,0,0.0,0.0,93,0.00,,---,0.00,VWS V14.01,2013-09-27 11:29:00,
2013-09-27 04:30:00,53.2,51.3,29.65,North,0,0.0,0.0,93,0.00,,---,0.00,VWS V14.01,2013-09-27 11:30:00,
2013-09-27 04:31:00,53.2,51.3,29.65,NNE,22,0.0,0.0,93,0.00,,---,0.00,VWS V14.01,2013-09-27 11:31:00,
2013-09-27 04:32:00,53.2,51.3,29.65,NNE,22,0.0,0.0,93,0.00,,---,0.00,VWS V14.01,2013-09-27 11:32:00,
2013-09-27 04:33:00,52.9,51.2,29.68,ENE,68,0.0,0.0,94,0.00,,---,0.00,VWS V14.01,2013-09-27 11:33:00,
2013-09-27 04:34:00,53.2,51.3,29.65,NE,45,1.1,1.3,93,0.00,,---,0.00,VWS V14.01,2013-09-27 11:34:00,
2013-09-27 04:35:00,53.2,51.3,29.68,ENE,68,0.0,1.1,93,0.00,,---,0.00,VWS V14.01,2013-09-27 11:35:00,
2013-09-27 04:36:00,53.2,51.3,29.68,ENE,68,0.0,0.0,93,0.00,,---,0.00,VWS V14.01,2013-09-27 11:36:00,
2013-09-27 04:37:00,52.9,51.2,29.68,ENE,68,0.0,0.0,94,0.00,,---,0.00,VWS V14.01,2013-09-27 11:37:00,
2013-09-27 04:38:00,52.7,51.0,29.68,ENE,68,0.0,0.0,94,0.00,,---,0.00,VWS V14.01,2013-09-27 11:38:00,
2013-09-27 04:39:00,52.9,51.2,29.68,ENE,68,0.0,0.0,94,0.00,,---,0.00,VWS V14.01,2013-09-27 11:39:00,
2013-09-27 04:40:00,52.9,51.2,29.68,ENE,68,0.0,0.0,94,0.00,,---,0.00,VWS V14.01,2013-09-27 11:40:00,
2013-09-27 04:41:00,52.9,51.2,29.68,ENE,68,0.0,0.0,94,0.00,,---,0.00,VWS V14.01,2013-09-27 11:41:00,
2013-09-27 04:42:00,52.9,51.2,29.68,ENE,68,0.0,0.0,94,0.00,,---,0.00,VWS V14.01,2013-09-27 11:42:00,
2013-09-27 04:43:00,52.7,51.3,29.68,ENE,68,0.0,0.0,95,0.00,,---,0.00,VWS V14.01,2013-09-27 11:43:00,
2013-09-27 04:44:00,52.7,51.0,29.68,ENE,68,0.0,0.0,94,0.00,,---,0.00,VWS V14.01,2013-09-27 11:44:00,
2013-09-27 04:45:00,52.7,51.0,29.68,ENE,68,0.0,0.0,94,0.00,,---,0.00,VWS V14.01,2013-09-27 11:45:00,
2013-09-27 04:46:00,52.7,51.0,29.68,ENE,68,0.0,0.0,94,0.00,,---,0.00,VWS V14.01,2013-09-27 11:46:00,
2013-09-27 04:47:00,52.7,51.0,29.68,ENE,68,0.0,0.0,94,0.00,,---,0.00,VWS V14.01,2013-09-27 11:47:00,
2013-09-27 04:48:00,52.7,51.3,29.68,ENE,68,0.0,0.0,95,0.00,,---,0.00,VWS V14.01,2013-09-27 11:48:00,
2013-09-27 04:49:00,52.7,51.3,29.68,ENE,68,0.0,0.0,95,0.00,,---,0.00,VWS V14.01,2013-09-27 11:49:00,
2013-09-27 04:50:00,52.7,51.3,29.68,ENE,68,0.0,0.0,95,0.00,,---,0.00,VWS V14.01,2013-09-27 11:50:00,
2013-09-27 04:51:00,52.7,51.3,29.68,ENE,68,0.0,0.0,95,0.00,,---,0.00,VWS V14.01,2013-09-27 11:51:00,
2013-09-27 04:52:00,52.7,51.3,29.68,ENE,68,0.0,0.0,95,0.00,,---,0.00,VWS V14.01,2013-09-27 11:52:00,
2013-09-27 04:53:00,52.5,51.1,29.68,ENE,68,0.0,0.0,95,0.00,,---,0.00,VWS V14.01,2013-09-27 11:53:00,
2013-09-27 04:54:00,52.9,51.5,29.68,ENE,68,0.0,0.0,95,0.00,,---,0.00,VWS V14.01,2013-09-27 11:54:00,
2013-09-27 04:55:00,52.9,51.5,29.68,ENE,68,0.0,0.0,95,0.00,,---,0.00,VWS V14.01,2013-09-27 11:55:00,
2013-09-27 04:56:00,52.7,51.3,29.68,ENE,68,0.0,0.0,95,0.00,,---,0.00,VWS V14.01,2013-09-27 11:56:00,
2013-09-27 04:57:00,52.7,51.3,29.68,ENE,68,0.0,0.0,95,0.00,,---,0.00,VWS V14.01,2013-09-27 11:57:00,
2013-09-27 04:58:00,52.3,51.0,29.68,ENE,68,0.0,0.0,95,0.00,,---,0.00,VWS V14.01,2013-09-27 11:58:00,
2013-09-27 04:59:00,52.5,51.1,29.68,ENE,68,0.0,0.0,95,0.00,,---,0.00,VWS V14.01,2013-09-27 11:59:00,
2013-09-27 05:00:00,52.5,51.1,29.68,ENE,68,0.0,0.0,95,0.00,,---,0.00,VWS V14.01,2013-09-27 12:00:00,
2013-09-27 05:01:00,52.5,51.1,29.68,ENE,68,0.0,0.0,95,0.00,,---,0.00,VWS V14.01,2013-09-27 12:01:00,
2013-09-27 05:02:00,52.5,51.1,29.68,ENE,68,0.0,0.0,95,0.00,,---,0.00,VWS V14.01,2013-09-27 12:02:00,
2013-09-27 05:03:00,52.0,50.6,29.68,ENE,68,0.0,0.0,95,0.00,,---,0.00,VWS V14.01,2013-09-27 12:03:00,
2013-09-27 05:04:00,52.3,51.0,29.68,ENE,68,0.0,0.0,95,0.00,,---,0.00,VWS V14.01,2013-09-27 12:04:00,
2013-09-27 05:05:00,52.3,51.0,29.68,ENE,68,0.0,0.0,95,0.00,,---,0.00,VWS V14.01,2013-09-27 12:05:00,
2013-09-27 05:06:00,52.3,51.0,29.68,ENE,68,0.0,0.0,95,0.00,,---,0.00,VWS V14.01,2013-09-27 12:06:00,
2013-09-27 05:07:00,52.3,51.0,29.68,ENE,68,0.0,0.0,95,0.00,,---,0.00,VWS V14.01,2013-09-27 12:07:00,
2013-09-27 05:08:00,52.0,50.6,29.68,ENE,68,0.0,0.0,95,0.00,,---,0.00,VWS V14.01,2013-09-27 12:08:00,
2013-09-27 05:09:00,52.2,50.8,29.68,ENE,68,0.0,0.0,95,0.00,,---,0.00,VWS V14.01,2013-09-27 12:09:00,
2013-09-27 05:10:00,52.2,50.8,29.68,ENE,68,0.0,0.0,95,0.00,,---,0.00,VWS V14.01,2013-09-27 12:10:00,
2013-09-27 05:11:00,52.2,50.8,29.68,ENE,68,0.0,0.0,95,0.00,,---,0.00,VWS V14.01,2013-09-27 12:11:00,
2013-09-27 05:12:00,52.0,50.6,29.68,ENE,68,0.0,0.0,95,0.00,,---,0.00,VWS V14.01,2013-09-27 12:12:00,
2013-09-27 05:13:00,51.8,50.4,29.68,ENE,68,0.0,0.0,95,0.00,,---,0.00,VWS V14.01,2013-09-27 12:13:00,
2013-09-27 05:14:00,52.0,50.6,29.68,ENE,68,0.0,0.0,95,0.00,,---,0.00,VWS V14.01,2013-09-27 12:14:00,
2013-09-27 05:15:00,52.0,50.6,29.68,ENE,68,0.0,0.0,95,0.00,,---,0.00,VWS V14.01,2013-09-27 12:15:00,
2013-09-27 05:16:00,52.0,50.6,29.68,ENE,68,0.0,0.0,95,0.00,,---,0.00,VWS V14.01,2013-09-27 12:16:00,
2013-09-27 05:17:00,52.0,50.6,29.68,ENE,68,0.0,0.0,95,0.00,,---,0.00,VWS V14.01,2013-09-27 12:17:00,
2013-09-27 05:18:00,51.8,50.4,29.68,ENE,68,0.0,0.0,95,0.00,,---,0.00,VWS V14.01,2013-09-27 12:18:00,
2013-09-27 05:19:00,51.8,50.4,29.68,ENE,68,0.0,0.0,95,0.00,,---,0.00,VWS V14.01,2013-09-27 12:19:00,
2013-09-27 05:20:00,51.8,50.4,29.68,ENE,68,0.0,0.0,95,0.00,,---,0.00,VWS V14.01,2013-09-27 12:20:00,
2013-09-27 05:21:00,51.8,50.4,29.68,ENE,68,0.0,0.0,95,0.00,,---,0.00,VWS V14.01,2013-09-27 12:21:00,
2013-09-27 05:22:00,51.8,50.4,29.68,ENE,68,0.0,0.0,95,0.00,,---,0.00,VWS V14.01,2013-09-27 12:22:00,
2013-09-27 05:23:00,51.6,50.5,29.68,ENE,68,0.0,0.0,96,0.00,,---,0.00,VWS V14.01,2013-09-27 12:23:00,
2013-09-27 05:24:00,51.8,50.4,29.68,ENE,68,0.0,0.0,95,0.00,,---,0.00,VWS V14.01,2013-09-27 12:24:00,
2013-09-27 05:25:00,51.8,50.4,29.68,ENE,68,0.0,0.0,95,0.00,,---,0.00,VWS V14.01,2013-09-27 12:25:00,
2013-09-27 05:26:00,51.8,50.4,29.68,ENE,68,0.0,0.0,95,0.00,,---,0.00,VWS V14.01,2013-09-27 12:26:00,
2013-09-27 05:27:00,51.8,50.4,29.68,ENE,68,0.0,0.0,95,0.00,,---,0.00,VWS V14.01,2013-09-27 12:27:00,
2013-09-27 05:28:00,51.8,50.4,29.68,ENE,68,0.0,0.0,95,0.00,,---,0.00,VWS V14.01,2013-09-27 12:28:00,
2013-09-27 05:29:00,51.6,50.2,29.68,ENE,68,0.0,0.0,95,0.00,,---,0.00,VWS V14.01,2013-09-27 12:29:00,
2013-09-27 05:30:00,51.6,50.2,29.68,ENE,68,0.0,0.0,95,0.00,,---,0.00,VWS V14.01,2013-09-27 12:30:00,
2013-09-27 05:31:00,51.6,50.5,29.68,ENE,68,0.0,0.0,96,0.00,,---,0.00,VWS V14.01,2013-09-27 12:31:00,
2013-09-27 05:32:00,51.6,50.5,29.68,ENE,68,0.0,0.0,96,0.00,,---,0.00,VWS V14.01,2013-09-27 12:32:00,
2013-09-27 05:33:00,51.8,50.4,29.68,ENE,68,0.0,0.0,95,0.00,,---,0.00,VWS V14.01,2013-09-27 12:33:00,
2013-09-27 05:34:00,51.6,50.5,29.68,ENE,68,0.0,0.0,96,0.00,,---,0.00,VWS V14.01,2013-09-27 12:34:00,
2013-09-27 05:35:00,51.6,50.5,29.68,ENE,68,0.0,0.0,96,0.00,,---,0.00,VWS V14.01,2013-09-27 12:35:00,
2013-09-27 05:36:00,51.8,50.4,29.68,ENE,68,0.0,0.0,95,0.00,,---,0.00,VWS V14.01,2013-09-27 12:36:00,
2013-09-27 05:37:00,51.8,50.4,29.68,ENE,68,0.0,0.0,95,0.00,,---,0.00,VWS V14.01,2013-09-27 12:37:00,
2013-09-27 05:38:00,52.0,50.9,29.68,ENE,68,0.0,0.0,96,0.00,,---,0.00,VWS V14.01,2013-09-27 12:38:00,
2013-09-27 05:39:00,51.8,50.4,29.68,ENE,68,0.0,0.0,95,0.00,,---,0.00,VWS V14.01,2013-09-27 12:39:00,
2013-09-27 05:40:00,51.8,50.4,29.68,ENE,68,0.0,0.0,95,0.00,,---,0.00,VWS V14.01,2013-09-27 12:40:00,
2013-09-27 05:41:00,51.8,50.4,29.68,ENE,68,0.0,0.0,95,0.00,,---,0.00,VWS V14.01,2013-09-27 12:41:00,
2013-09-27 05:42:00,51.8,50.4,29.68,ENE,68,0.0,0.0,95,0.00,,---,0.00,VWS V14.01,2013-09-27 12:42:00,
2013-09-27 05:43:00,52.3,51.2,29.71,ENE,68,0.0,0.9,96,0.00,,---,0.00,VWS V14.01,2013-09-27 12:43:00,
2013-09-27 05:44:00,51.8,50.4,29.68,ENE,68,0.0,0.0,95,0.00,,---,0.00,VWS V14.01,2013-09-27 12:44:00,
2013-09-27 05:45:00,52.0,50.6,29.68,ENE,68,0.0,0.0,95,0.00,,---,0.00,VWS V14.01,2013-09-27 12:45:00,
2013-09-27 05:46:00,52.0,50.9,29.68,ENE,68,0.0,0.0,96,0.00,,---,0.00,VWS V14.01,2013-09-27 12:46:00,
2013-09-27 05:47:00,52.0,50.9,29.68,ENE,68,0.0,0.0,96,0.00,,---,0.00,VWS V14.01,2013-09-27 12:47:00,
2013-09-27 05:48:00,52.9,52.0,29.71,ENE,68,0.0,1.1,97,0.00,,---,0.00,VWS V14.01,2013-09-27 12:48:00,
2013-09-27 05:49:00,52.0,50.9,29.68,ENE,68,0.0,0.0,96,0.00,,---,0.00,VWS V14.01,2013-09-27 12:49:00,
2013-09-27 05:50:00,52.2,51.1,29.71,ENE,68,0.0,0.0,96,0.00,,---,0.00,VWS V14.01,2013-09-27 12:50:00,
2013-09-27 05:51:00,52.3,51.2,29.71,ENE,68,0.9,0.9,96,0.00,,---,0.00,VWS V14.01,2013-09-27 12:51:00,
2013-09-27 05:52:00,52.3,51.2,29.71,ENE,68,0.0,0.9,96,0.00,,---,0.00,VWS V14.01,2013-09-27 12:52:00,
2013-09-27 05:53:00,53.1,52.2,29.71,ENE,68,1.1,1.3,97,0.00,,---,0.00,VWS V14.01,2013-09-27 12:53:00,
2013-09-27 05:54:00,52.7,51.6,29.71,ENE,68,0.0,0.9,96,0.00,,---,0.00,VWS V14.01,2013-09-27 12:54:00,
2013-09-27 05:55:00,52.7,51.6,29.71,ENE,68,0.0,0.0,96,0.00,,---,0.00,VWS V14.01,2013-09-27 12:55:00,
2013-09-27 05:56:00,52.9,52.1,29.71,ENE,68,0.9,0.9,97,0.00,,---,0.00,VWS V14.01,2013-09-27 12:56:00,
2013-09-27 05:57:00,52.9,52.1,29.71,ENE,68,0.0,1.1,97,0.00,,---,0.00,VWS V14.01,2013-09-27 12:57:00,
2013-09-27 05:58:00,53.1,52.2,29.71,ENE,68,1.1,1.1,97,0.00,,---,0.00,VWS V14.01,2013-09-27 12:58:00,
2013-09-27 05:59:00,53.1,52.2,29.71,ENE,68,0.0,0.0,97,0.00,,---,0.00,VWS V14.01,2013-09-27 12:59:00,
2013-09-27 06:00:00,53.1,52.2,29.71,ENE,68,1.3,1.3,97,0.00,,---,0.00,VWS V14.01,2013-09-27 13:00:00,
2013-09-27 06:01:00,53.1,52.2,29.71,ENE,68,1.3,1.6,97,0.00,,---,0.00,VWS V14.01,2013-09-27 13:01:00,
2013-09-27 06:02:00,53.1,52.2,29.71,ENE,68,0.9,1.3,97,0.00,,---,0.00,VWS V14.01,2013-09-27 13:02:00,
2013-09-27 06:03:00,53.1,52.2,29.71,ENE,68,0.0,0.0,97,0.00,,---,0.00,VWS V14.01,2013-09-27 13:03:00,
2013-09-27 06:04:00,53.1,52.2,29.71,ENE,68,1.1,1.1,97,0.00,,---,0.00,VWS V14.01,2013-09-27 13:04:00,
2013-09-27 06:05:00,53.1,52.2,29.71,ENE,68,0.9,1.6,97,0.00,,---,0.00,VWS V14.01,2013-09-27 13:05:00,
2013-09-27 06:06:00,53.1,52.2,29.71,ENE,68,1.1,1.3,97,0.00,,---,0.00,VWS V14.01,2013-09-27 13:06:00,
2013-09-27 06:07:00,53.1,52.2,29.71,ENE,68,1.3,1.3,97,0.00,,---,0.00,VWS V14.01,2013-09-27 13:07:00,
2013-09-27 06:08:00,53.1,52.2,29.71,ENE,68,0.0,0.0,97,0.00,,---,0.00,VWS V14.01,2013-09-27 13:08:00,
2013-09-27 06:09:00,53.1,52.2,29.71,ENE,68,1.1,1.3,97,0.00,,---,0.00,VWS V14.01,2013-09-27 13:09:00,
2013-09-27 06:10:00,53.1,52.2,29.71,ENE,68,0.0,1.1,97,0.00,,---,0.00,VWS V14.01,2013-09-27 13:10:00,
2013-09-27 06:11:00,53.1,52.2,29.71,ENE,68,0.0,0.0,97,0.00,,---,0.00,VWS V14.01,2013-09-27 13:11:00,
2013-09-27 06:12:00,53.1,52.2,29.71,ENE,68,0.0,0.0,97,0.00,,---,0.00,VWS V14.01,2013-09-27 13:12:00,
2013-09-27 06:13:00,53.1,52.2,29.71,ENE,68,0.9,1.6,97,0.00,,---,0.00,VWS V14.01,2013-09-27 13:13:00,
2013-09-27 06:14:00,53.1,52.2,29.71,ENE,68,0.0,0.0,97,0.00,,---,0.00,VWS V14.01,2013-09-27 13:14:00,
2013-09-27 06:15:00,53.1,52.2,29.71,ENE,68,0.0,0.0,97,0.00,,---,0.00,VWS V14.01,2013-09-27 13:15:00,
2013-09-27 06:16:00,53.1,52.2,29.71,ENE,68,0.0,0.0,97,0.00,,---,0.00,VWS V14.01,2013-09-27 13:16:00,
2013-09-27 06:17:00,53.1,52.2,29.71,ENE,68,0.0,0.0,97,0.00,,---,0.00,VWS V14.01,2013-09-27 13:17:00,
2013-09-27 06:18:00,53.1,52.2,29.71,ENE,68,0.9,1.1,97,0.00,,---,0.00,VWS V14.01,2013-09-27 13:18:00,
2013-09-27 06:19:00,53.1,52.2,29.71,ENE,68,0.0,0.0,97,0.00,,---,0.00,VWS V14.01,2013-09-27 13:19:00,
2013-09-27 06:20:00,53.1,52.2,29.71,ENE,68,0.9,1.1,97,0.00,,---,0.00,VWS V14.01,2013-09-27 13:20:00,
2013-09-27 06:21:00,53.1,52.2,29.71,ENE,68,1.3,1.3,97,0.00,,---,0.00,VWS V14.01,2013-09-27 13:21:00,
2013-09-27 06:22:00,53.1,52.2,29.71,ENE,68,1.3,1.6,97,0.00,,---,0.00,VWS V14.01,2013-09-27 13:22:00,
2013-09-27 06:23:00,53.1,52.2,29.71,ENE,68,0.0,0.0,97,0.00,,---,0.00,VWS V14.01,2013-09-27 13:23:00,
2013-09-27 06:24:00,53.1,52.2,29.71,ENE,68,1.3,1.3,97,0.00,,---,0.00,VWS V14.01,2013-09-27 13:24:00,
2013-09-27 06:25:00,53.1,52.2,29.71,ENE,68,1.3,1.3,97,0.00,,---,0.00,VWS V14.01,2013-09-27 13:25:00,
2013-09-27 06:26:00,53.1,52.2,29.71,ENE,68,0.9,1.3,97,0.00,,---,0.00,VWS V14.01,2013-09-27 13:26:00,
2013-09-27 06:27:00,53.1,52.2,29.71,ENE,68,0.0,1.1,97,0.00,,---,0.00,VWS V14.01,2013-09-27 13:27:00,
2013-09-27 06:28:00,53.1,52.2,29.71,ENE,68,0.0,0.0,97,0.00,,---,0.00,VWS V14.01,2013-09-27 13:28:00,
2013-09-27 06:29:00,53.1,52.2,29.71,ENE,68,0.0,0.9,97,0.00,,---,0.00,VWS V14.01,2013-09-27 13:29:00,
2013-09-27 06:30:00,53.1,52.2,29.71,ENE,68,0.0,0.0,97,0.00,,---,0.00,VWS V14.01,2013-09-27 13:30:00,
2013-09-27 06:31:00,53.1,52.2,29.71,ENE,68,0.0,0.0,97,0.00,,---,0.00,VWS V14.01,2013-09-27 13:31:00,
2013-09-27 06:32:00,53.1,52.2,29.71,ENE,68,0.0,0.0,97,0.00,,---,0.00,VWS V14.01,2013-09-27 13:32:00,
2013-09-27 06:33:00,53.1,52.2,29.71,ENE,68,1.6,1.6,97,0.00,,---,0.00,VWS V14.01,2013-09-27 13:33:00,
2013-09-27 06:34:00,53.1,52.2,29.71,ENE,68,0.0,1.1,97,0.00,,---,0.00,VWS V14.01,2013-09-27 13:34:00,
2013-09-27 06:35:00,53.1,52.2,29.71,ENE,68,0.0,0.0,97,0.00,,---,0.00,VWS V14.01,2013-09-27 13:35:00,
2013-09-27 06:36:00,53.1,52.2,29.71,ENE,68,0.0,0.0,97,0.00,,---,0.00,VWS V14.01,2013-09-27 13:36:00,
2013-09-27 06:37:00,53.1,52.2,29.71,ENE,68,0.0,0.0,97,0.00,,---,0.00,VWS V14.01,2013-09-27 13:37:00,
2013-09-27 06:38:00,53.1,52.2,29.71,ENE,68,0.0,0.0,97,0.00,,---,0.00,VWS V14.01,2013-09-27 13:38:00,
2013-09-27 06:39:00,53.1,52.2,29.71,ENE,68,0.0,0.0,97,0.00,,---,0.00,VWS V14.01,2013-09-27 13:39:00,
2013-09-27 06:40:00,53.1,52.2,29.71,ENE,68,0.0,0.0,97,0.00,,---,0.00,VWS V14.01,2013-09-27 13:40:00,
2013-09-27 06:41:00,53.1,52.2,29.71,ENE,68,1.3,1.3,97,0.00,,---,0.00,VWS V14.01,2013-09-27 13:41:00,
2013-09-27 06:42:00,53.1,52.2,29.74,ENE,68,0.0,0.0,97,0.00,,---,0.00,VWS V14.01,2013-09-27 13:42:00,
2013-09-27 06:43:00,53.1,52.2,29.71,ENE,68,0.0,1.3,97,0.00,,---,0.00,VWS V14.01,2013-09-27 13:43:00,
2013-09-27 06:44:00,53.1,52.2,29.71,ENE,68,0.0,0.0,97,0.00,,---,0.00,VWS V14.01,2013-09-27 13:44:00,
2013-09-27 06:45:00,53.1,52.2,29.71,ENE,68,0.0,0.0,97,0.00,,---,0.00,VWS V14.01,2013-09-27 13:45:00,
2013-09-27 06:46:00,53.1,52.2,29.71,ENE,68,0.0,0.0,97,0.00,,---,0.00,VWS V14.01,2013-09-27 13:46:00,
2013-09-27 06:47:00,53.1,52.2,29.74,ENE,68,0.0,0.0,97,0.00,,---,0.00,VWS V14.01,2013-09-27 13:47:00,
2013-09-27 06:48:00,53.1,52.2,29.71,ENE,68,0.0,0.0,97,0.00,,---,0.00,VWS V14.01,2013-09-27 13:48:00,
2013-09-27 06:49:00,53.1,52.2,29.71,ENE,68,0.0,0.0,97,0.00,,---,0.00,VWS V14.01,2013-09-27 13:49:00,
2013-09-27 06:50:00,53.1,52.2,29.74,ENE,68,0.0,0.0,97,0.00,,---,0.00,VWS V14.01,2013-09-27 13:50:00,
2013-09-27 06:51:00,53.1,52.2,29.74,ENE,68,0.0,0.0,97,0.00,,---,0.00,VWS V14.01,2013-09-27 13:51:00,
2013-09-27 06:52:00,53.1,52.2,29.74,ENE,68,0.0,0.0,97,0.00,,---,0.00,VWS V14.01,2013-09-27 13:52:00,
2013-09-27 06:53:00,53.1,52.2,29.74,ENE,68,0.0,0.0,97,0.00,,---,0.00,VWS V14.01,2013-09-27 13:53:00,
2013-09-27 06:54:00,53.1,52.2,29.74,ENE,68,0.0,0.0,97,0.00,,---,0.00,VWS V14.01,2013-09-27 13:54:00,
2013-09-27 06:55:00,53.1,52.2,29.74,ENE,68,0.0,0.0,97,0.00,,---,0.00,VWS V14.01,2013-09-27 13:55:00,
2013-09-27 06:56:00,53.1,52.2,29.74,ENE,68,0.0,0.0,97,0.00,,---,0.00,VWS V14.01,2013-09-27 13:56:00,
2013-09-27 06:57:00,53.1,52.2,29.74,ENE,68,0.0,0.0,97,0.00,,---,0.00,VWS V14.01,2013-09-27 13:57:00,
2013-09-27 06:58:00,53.1,52.2,29.74,ENE,68,0.0,0.0,97,0.00,,---,0.00,VWS V14.01,2013-09-27 13:58:00,
2013-09-27 06:59:00,53.1,52.2,29.74,ENE,68,0.0,0.0,97,0.00,,---,0.00,VWS V14.01,2013-09-27 13:59:00,
2013-09-27 07:00:00,53.1,52.2,29.74,ENE,68,0.0,0.0,97,0.00,,---,0.00,VWS V14.01,2013-09-27 14:00:00,
2013-09-27 07:01:00,53.1,52.2,29.74,ENE,68,0.0,0.0,97,0.00,,---,0.00,VWS V14.01,2013-09-27 14:01:00,
2013-09-27 07:02:00,53.1,52.2,29.74,ENE,68,0.0,0.0,97,0.00,,---,0.00,VWS V14.01,2013-09-27 14:02:00,
2013-09-27 07:03:00,53.1,52.2,29.74,ENE,68,0.0,0.0,97,0.00,,---,0.00,VWS V14.01,2013-09-27 14:03:00,
2013-09-27 07:04:00,53.1,52.2,29.74,ENE,68,0.0,0.0,97,0.00,,---,0.00,VWS V14.01,2013-09-27 14:04:00,
2013-09-27 07:05:00,53.1,52.2,29.74,ENE,68,0.0,0.0,97,0.00,,---,0.00,VWS V14.01,2013-09-27 14:05:00,
2013-09-27 07:06:00,53.1,52.2,29.74,ENE,68,0.0,0.0,97,0.00,,---,0.00,VWS V14.01,2013-09-27 14:06:00,
2013-09-27 07:07:00,53.1,52.2,29.74,ENE,68,0.0,0.0,97,0.00,,---,0.00,VWS V14.01,2013-09-27 14:07:00,
2013-09-27 07:08:00,53.1,52.2,29.74,ENE,68,0.0,0.0,97,0.00,,---,0.00,VWS V14.01,2013-09-27 14:08:00,
2013-09-27 07:09:00,53.1,52.2,29.74,ENE,68,0.0,0.0,97,0.00,,---,0.00,VWS V14.01,2013-09-27 14:09:00,
2013-09-27 07:10:00,53.1,52.2,29.74,ENE,68,0.0,0.0,97,0.00,,---,0.00,VWS V14.01,2013-09-27 14:10:00,
2013-09-27 07:11:00,53.1,52.2,29.74,ENE,68,0.0,0.0,97,0.00,,---,0.00,VWS V14.01,2013-09-27 14:11:00,
2013-09-27 07:12:00,53.1,52.2,29.74,ENE,68,0.0,0.0,97,0.00,,---,0.00,VWS V14.01,2013-09-27 14:12:00,
2013-09-27 07:13:00,53.1,52.2,29.74,ENE,68,0.0,0.0,97,0.00,,---,0.00,VWS V14.01,2013-09-27 14:13:00,
2013-09-27 07:14:00,53.1,52.2,29.74,ENE,68,0.0,0.0,97,0.00,,---,0.00,VWS V14.01,2013-09-27 14:14:00,
2013-09-27 07:15:00,53.1,52.2,29.74,ENE,68,0.0,0.0,97,0.00,,---,0.00,VWS V14.01,2013-09-27 14:15:00,
2013-09-27 07:16:00,53.1,52.2,29.74,ENE,68,0.0,0.0,97,0.00,,---,0.00,VWS V14.01,2013-09-27 14:16:00,
2013-09-27 07:17:00,53.1,52.2,29.74,ENE,68,0.0,0.0,97,0.00,,---,0.00,VWS V14.01,2013-09-27 14:17:00,
2013-09-27 07:18:00,53.1,52.2,29.74,ENE,68,0.0,0.0,97,0.00,,---,0.00,VWS V14.01,2013-09-27 14:18:00,
2013-09-27 07:19:00,53.1,52.2,29.74,ENE,68,0.0,0.0,97,0.00,,---,0.00,VWS V14.01,2013-09-27 14:19:00,
2013-09-27 07:20:00,53.1,52.2,29.74,ENE,68,0.0,0.0,97,0.00,,---,0.00,VWS V14.01,2013-09-27 14:20:00,
2013-09-27 07:21:00,53.1,52.2,29.74,ENE,68,0.0,0.0,97,0.00,,---,0.00,VWS V14.01,2013-09-27 14:21:00,
2013-09-27 07:22:00,53.1,52.2,29.74,ENE,68,0.0,0.0,97,0.00,,---,0.00,VWS V14.01,2013-09-27 14:22:00,
2013-09-27 07:23:00,53.1,52.2,29.74,ENE,68,0.0,0.0,97,0.00,,---,0.00,VWS V14.01,2013-09-27 14:23:00,
2013-09-27 07:24:00,53.1,52.2,29.74,ENE,68,0.0,0.0,97,0.00,,---,0.00,VWS V14.01,2013-09-27 14:24:00,
2013-09-27 07:25:00,53.1,52.2,29.74,ENE,68,0.0,0.0,97,0.00,,---,0.00,VWS V14.01,2013-09-27 14:25:00,
2013-09-27 07:26:00,53.1,52.2,29.74,ENE,68,0.0,0.0,97,0.00,,---,0.00,VWS V14.01,2013-09-27 14:26:00,
2013-09-27 07:27:00,55.0,53.3,29.74,ENE,68,0.0,0.0,94,0.00,,---,0.00,VWS V14.01,2013-09-27 14:27:00,
2013-09-27 07:28:00,53.1,52.2,29.74,ENE,68,0.0,0.0,97,0.00,,---,0.00,VWS V14.01,2013-09-27 14:28:00,
2013-09-27 07:29:00,53.1,52.2,29.74,ENE,68,0.9,0.9,97,0.00,,---,0.00,VWS V14.01,2013-09-27 14:29:00,
2013-09-27 07:30:00,53.1,52.2,29.74,ENE,68,0.9,0.9,97,0.00,,---,0.00,VWS V14.01,2013-09-27 14:30:00,
2013-09-27 07:31:00,53.1,52.2,29.74,ENE,68,0.0,0.9,97,0.00,,---,0.00,VWS V14.01,2013-09-27 14:31:00,
2013-09-27 07:32:00,55.6,53.9,29.74,ENE,68,0.0,0.9,94,0.00,,---,0.00,VWS V14.01,2013-09-27 14:32:00,
2013-09-27 07:33:00,53.1,52.2,29.74,ENE,68,0.0,0.0,97,0.00,,---,0.00,VWS V14.01,2013-09-27 14:33:00,
2013-09-27 07:34:00,53.1,52.2,29.74,ENE,68,0.0,0.0,97,0.00,,---,0.00,VWS V14.01,2013-09-27 14:34:00,
2013-09-27 07:35:00,53.1,52.2,29.74,ENE,68,0.0,0.0,97,0.00,,---,0.00,VWS V14.01,2013-09-27 14:35:00,
2013-09-27 07:36:00,55.0,53.3,29.74,ENE,68,0.0,0.0,94,0.00,,---,0.00,VWS V14.01,2013-09-27 14:36:00,
2013-09-27 07:37:00,55.8,54.1,29.74,ENE,68,0.0,0.0,94,0.00,,---,0.00,VWS V14.01,2013-09-27 14:37:00,
2013-09-27 07:38:00,55.0,53.3,29.74,ENE,68,0.9,1.1,94,0.00,,---,0.00,VWS V14.01,2013-09-27 14:38:00,
2013-09-27 07:39:00,55.4,53.7,29.74,ENE,68,0.0,1.3,94,0.00,,---,0.00,VWS V14.01,2013-09-27 14:39:00,
2013-09-27 07:40:00,55.4,53.7,29.74,ENE,68,0.0,0.0,94,0.00,,---,0.00,VWS V14.01,2013-09-27 14:40:00,
2013-09-27 07:41:00,55.4,53.7,29.74,ENE,68,0.9,0.9,94,0.00,,---,0.00,VWS V14.01,2013-09-27 14:41:00,
2013-09-27 07:42:00,56.3,54.6,29.71,ENE,68,0.0,0.0,94,0.00,,---,0.00,VWS V14.01,2013-09-27 14:42:00,
2013-09-27 07:43:00,55.6,53.9,29.74,ENE,68,0.0,0.0,94,0.00,,---,0.00,VWS V14.01,2013-09-27 14:43:00,
2013-09-27 07:44:00,55.8,54.1,29.74,ENE,68,0.0,0.0,94,0.00,,---,0.00,VWS V14.01,2013-09-27 14:44:00,
2013-09-27 07:45:00,55.8,54.1,29.74,ENE,68,0.0,0.0,94,0.00,,---,0.00,VWS V14.01,2013-09-27 14:45:00,
2013-09-27 07:46:00,55.8,54.1,29.74,ENE,68,0.0,0.0,94,0.00,,---,0.00,VWS V14.01,2013-09-27 14:46:00,
2013-09-27 07:47:00,56.7,55.0,29.71,ENE,68,0.0,0.0,94,0.00,,---,0.00,VWS V14.01,2013-09-27 14:47:00,
2013-09-27 07:48:00,55.9,54.2,29.74,ENE,68,0.0,0.9,94,0.00,,---,0.00,VWS V14.01,2013-09-27 14:48:00,
2013-09-27 07:49:00,55.9,54.2,29.74,ENE,68,0.0,0.0,94,0.00,,---,0.00,VWS V14.01,2013-09-27 14:49:00,
2013-09-27 07:50:00,56.1,54.4,29.71,ENE,68,0.0,0.0,94,0.00,,---,0.00,VWS V14.01,2013-09-27 14:50:00,
2013-09-27 07:51:00,56.1,54.4,29.71,ENE,68,0.0,0.0,94,0.00,,---,0.00,VWS V14.01,2013-09-27 14:51:00,
2013-09-27 07:52:00,56.7,55.0,29.71,ENE,68,0.0,0.0,94,0.00,,---,0.00,VWS V14.01,2013-09-27 14:52:00,
2013-09-27 07:53:00,56.5,54.8,29.71,ENE,68,0.0,0.0,94,0.00,,---,0.00,VWS V14.01,2013-09-27 14:53:00,
2013-09-27 07:54:00,56.5,54.8,29.71,ENE,68,0.0,0.0,94,0.00,,---,0.00,VWS V14.01,2013-09-27 14:54:00,
2013-09-27 07:55:00,56.7,55.0,29.71,ENE,68,0.0,0.0,94,0.00,,---,0.00,VWS V14.01,2013-09-27 14:55:00,
2013-09-27 07:56:00,56.7,55.0,29.71,ENE,68,0.0,0.0,94,0.00,,---,0.00,VWS V14.01,2013-09-27 14:56:00,
2013-09-27 07:57:00,57.6,55.6,29.74,ENE,68,0.0,1.1,93,0.00,,---,0.00,VWS V14.01,2013-09-27 14:57:00,
2013-09-27 07:58:00,56.7,55.0,29.71,ENE,68,0.0,0.0,94,0.00,,---,0.00,VWS V14.01,2013-09-27 14:58:00,
2013-09-27 07:59:00,56.7,55.0,29.71,ENE,68,0.0,0.0,94,0.00,,---,0.00,VWS V14.01,2013-09-27 14:59:00,
2013-09-27 08:00:00,56.7,55.0,29.71,ENE,68,0.0,0.0,94,0.00,,---,0.00,VWS V14.01,2013-09-27 15:00:00,
2013-09-27 08:01:00,56.7,55.0,29.71,ENE,68,0.0,0.0,94,0.00,,---,0.00,VWS V14.01,2013-09-27 15:01:00,
2013-09-27 08:02:00,58.1,55.8,29.74,ENE,68,0.0,0.0,92,0.00,,---,0.00,VWS V14.01,2013-09-27 15:02:00,
2013-09-27 08:03:00,56.7,55.0,29.71,ENE,68,0.0,0.0,94,0.00,,---,0.00,VWS V14.01,2013-09-27 15:03:00,
2013-09-27 08:04:00,57.2,55.2,29.71,ENE,68,0.0,0.0,93,0.00,,---,0.00,VWS V14.01,2013-09-27 15:04:00,
2013-09-27 08:05:00,57.2,55.2,29.71,ENE,68,0.0,0.0,93,0.00,,---,0.00,VWS V14.01,2013-09-27 15:05:00,
2013-09-27 08:06:00,57.4,55.4,29.74,ENE,68,0.0,0.0,93,0.00,,---,0.00,VWS V14.01,2013-09-27 15:06:00,
2013-09-27 08:07:00,58.5,56.2,29.74,ENE,68,0.0,0.0,92,0.00,,---,0.00,VWS V14.01,2013-09-27 15:07:00,
2013-09-27 08:08:00,57.7,55.7,29.74,ENE,68,0.0,0.9,93,0.00,,---,0.00,VWS V14.01,2013-09-27 15:08:00,
2013-09-27 08:09:00,57.9,55.9,29.74,ENE,68,0.0,0.0,93,0.00,,---,0.00,VWS V14.01,2013-09-27 15:09:00,
2013-09-27 08:10:00,57.9,55.9,29.74,ENE,68,0.0,0.0,93,0.00,,---,0.00,VWS V14.01,2013-09-27 15:10:00,
2013-09-27 08:11:00,58.1,55.8,29.74,ENE,68,0.0,0.0,92,0.00,,---,0.00,VWS V14.01,2013-09-27 15:11:00,
2013-09-27 08:12:00,58.5,56.2,29.71,ENE,68,0.0,0.0,92,0.00,,---,0.00,VWS V14.01,2013-09-27 15:12:00,
2013-09-27 08:13:00,58.1,55.8,29.74,ENE,68,0.0,0.0,92,0.00,,---,0.00,VWS V14.01,2013-09-27 15:13:00,
2013-09-27 08:14:00,58.3,56.0,29.74,ENE,68,0.0,0.0,92,0.00,,---,0.00,VWS V14.01,2013-09-27 15:14:00,
2013-09-27 08:15:00,58.3,56.0,29.74,ENE,68,0.0,0.0,92,0.00,,---,0.00,VWS V14.01,2013-09-27 15:15:00,
2013-09-27 08:16:00,58.5,56.2,29.74,ENE,68,0.0,0.0,92,0.00,,---,0.00,VWS V14.01,2013-09-27 15:16:00,
2013-09-27 08:17:00,58.5,56.2,29.71,ENE,68,0.0,0.0,92,0.00,,---,0.00,VWS V14.01,2013-09-27 15:17:00,
2013-09-27 08:18:00,58.5,56.2,29.74,ENE,68,0.0,0.0,92,0.00,,---,0.00,VWS V14.01,2013-09-27 15:18:00,
2013-09-27 08:19:00,58.5,56.2,29.74,ENE,68,0.0,0.0,92,0.00,,---,0.00,VWS V14.01,2013-09-27 15:19:00,
2013-09-27 08:20:00,58.5,56.2,29.74,ENE,68,0.0,0.0,92,0.00,,---,0.00,VWS V14.01,2013-09-27 15:20:00,
2013-09-27 08:21:00,58.5,56.2,29.71,ENE,68,0.0,0.0,92,0.00,,---,0.00,VWS V14.01,2013-09-27 15:21:00,
2013-09-27 08:22:00,60.4,57.5,29.71,NE,45,0.0,0.0,90,0.00,,---,0.00,VWS V14.01,2013-09-27 15:22:00,
2013-09-27 08:23:00,58.5,56.2,29.71,ENE,68,0.0,0.0,92,0.00,,---,0.00,VWS V14.01,2013-09-27 15:23:00,
2013-09-27 08:24:00,58.5,56.2,29.71,ENE,68,0.0,1.3,92,0.00,,---,0.00,VWS V14.01,2013-09-27 15:24:00,
2013-09-27 08:25:00,58.5,56.2,29.71,ENE,68,0.0,0.0,92,0.00,,---,0.00,VWS V14.01,2013-09-27 15:25:00,
2013-09-27 08:26:00,58.5,56.2,29.71,ENE,68,0.0,0.0,92,0.00,,---,0.00,VWS V14.01,2013-09-27 15:26:00,
2013-09-27 08:27:00,60.6,57.7,29.74,NE,45,0.0,0.0,90,0.00,,---,0.00,VWS V14.01,2013-09-27 15:27:00,
2013-09-27 08:28:00,58.5,56.2,29.71,NE,45,0.0,0.0,92,0.00,,---,0.00,VWS V14.01,2013-09-27 15:28:00,
2013-09-27 08:29:00,58.5,56.2,29.71,NE,45,0.0,0.0,92,0.00,,---,0.00,VWS V14.01,2013-09-27 15:29:00,
2013-09-27 08:30:00,60.4,57.5,29.71,NE,45,0.0,0.0,90,0.00,,---,0.00,VWS V14.01,2013-09-27 15:30:00,
2013-09-27 08:31:00,60.4,57.5,29.71,NE,45,0.0,0.0,90,0.00,,---,0.00,VWS V14.01,2013-09-27 15:31:00,
2013-09-27 08:32:00,60.6,57.7,29.74,NE,45,0.0,0.0,90,0.00,,---,0.00,VWS V14.01,2013-09-27 15:32:00,
2013-09-27 08:33:00,60.6,57.7,29.71,NE,45,0.0,0.0,90,0.00,,---,0.00,VWS V14.01,2013-09-27 15:33:00,
2013-09-27 08:34:00,60.6,57.7,29.71,NE,45,0.0,0.0,90,0.00,,---,0.00,VWS V14.01,2013-09-27 15:34:00,
2013-09-27 08:35:00,60.6,57.7,29.71,NE,45,0.0,0.0,90,0.00,,---,0.00,VWS V14.01,2013-09-27 15:35:00,
2013-09-27 08:36:00,60.6,57.7,29.74,NE,45,0.0,0.0,90,0.00,,---,0.00,VWS V14.01,2013-09-27 15:36:00,
2013-09-27 08:37:00,64.2,60.0,29.74,NE,45,0.0,0.0,86,0.00,,---,0.00,VWS V14.01,2013-09-27 15:37:00,
2013-09-27 08:38:00,60.6,57.7,29.74,NE,45,0.0,0.0,90,0.00,,---,0.00,VWS V14.01,2013-09-27 15:38:00,
2013-09-27 08:39:00,60.6,57.7,29.74,NE,45,0.0,0.0,90,0.00,,---,0.00,VWS V14.01,2013-09-27 15:39:00,
2013-09-27 08:40:00,60.6,57.7,29.74,NE,45,0.0,0.0,90,0.00,,---,0.00,VWS V14.01,2013-09-27 15:40:00,
2013-09-27 08:41:00,60.6,57.7,29.74,NE,45,0.0,0.0,90,0.00,,---,0.00,VWS V14.01,2013-09-27 15:41:00,
2013-09-27 08:42:00,66.4,61.1,29.74,NW,315,0.0,0.0,83,0.00,,---,0.00,VWS V14.01,2013-09-27 15:42:00,
2013-09-27 08:43:00,60.6,57.7,29.74,NE,45,0.0,0.0,90,0.00,,---,0.00,VWS V14.01,2013-09-27 15:43:00,
2013-09-27 08:44:00,60.6,57.7,29.74,NE,45,0.0,0.0,90,0.00,,---,0.00,VWS V14.01,2013-09-27 15:44:00,
2013-09-27 08:45:00,60.6,57.7,29.74,NE,45,0.0,0.0,90,0.00,,---,0.00,VWS V14.01,2013-09-27 15:45:00,
2013-09-27 08:46:00,64.2,60.0,29.74,NE,45,0.0,0.0,86,0.00,,---,0.00,VWS V14.01,2013-09-27 15:46:00,
2013-09-27 08:47:00,67.3,61.6,29.74,NNW,338,1.3,1.3,82,0.00,,---,0.00,VWS V14.01,2013-09-27 15:47:00,
2013-09-27 08:48:00,64.2,60.0,29.74,NE,45,0.0,0.0,86,0.00,,---,0.00,VWS V14.01,2013-09-27 15:48:00,
2013-09-27 08:49:00,64.2,60.0,29.74,WNW,292,0.0,0.9,86,0.00,,---,0.00,VWS V14.01,2013-09-27 15:49:00,
2013-09-27 08:50:00,64.2,60.0,29.74,NW,315,0.0,0.0,86,0.00,,---,0.00,VWS V14.01,2013-09-27 15:50:00,
2013-09-27 08:51:00,66.0,60.7,29.74,NW,315,0.0,0.0,83,0.00,,---,0.00,VWS V14.01,2013-09-27 15:51:00,
2013-09-27 08:52:00,69.1,62.3,29.74,SE,135,2.0,2.7,79,0.00,,---,0.00,VWS V14.01,2013-09-27 15:52:00,
2013-09-27 08:53:00,66.9,61.2,29.74,WNW,292,0.0,0.0,82,0.00,,---,0.00,VWS V14.01,2013-09-27 15:53:00,
2013-09-27 08:54:00,67.3,61.6,29.74,NE,45,0.0,0.0,82,0.00,,---,0.00,VWS V14.01,2013-09-27 15:54:00,
2013-09-27 08:55:00,67.3,61.6,29.74,WNW,292,0.9,0.9,82,0.00,,---,0.00,VWS V14.01,2013-09-27 15:55:00,
2013-09-27 08:56:00,67.3,61.6,29.74,NW,315,1.3,1.3,82,0.00,,---,0.00,VWS V14.01,2013-09-27 15:56:00,
2013-09-27 08:57:00,69.1,62.3,29.74,NW,315,0.9,0.9,79,0.00,,---,0.00,VWS V14.01,2013-09-27 15:57:00,
2013-09-27 08:58:00,68.2,62.8,29.74,North,0,0.0,1.3,83,0.00,,---,0.00,VWS V14.01,2013-09-27 15:58:00,
2013-09-27 08:59:00,68.7,62.7,29.74,North,0,0.0,0.0,81,0.00,,---,0.00,VWS V14.01,2013-09-27 15:59:00,
2013-09-27 09:00:00,69.1,62.3,29.74,North,0,0.0,0.0,79,0.00,,---,0.00,VWS V14.01,2013-09-27 16:00:00,
2013-09-27 09:01:00,69.1,62.3,29.74,SE,135,2.7,2.7,79,0.00,,---,0.00,VWS V14.01,2013-09-27 16:01:00,
2013-09-27 09:02:00,69.4,60.8,29.74,NNW,338,1.6,2.0,74,0.00,,---,0.00,VWS V14.01,2013-09-27 16:02:00,
2013-09-27 09:03:00,69.1,62.3,29.74,SE,135,1.6,2.5,79,0.00,,---,0.00,VWS V14.01,2013-09-27 16:03:00,
2013-09-27 09:04:00,69.1,62.3,29.74,WNW,292,2.2,2.2,79,0.00,,---,0.00,VWS V14.01,2013-09-27 16:04:00,
2013-09-27 09:05:00,69.1,62.3,29.74,NNW,338,1.6,2.9,79,0.00,,---,0.00,VWS V14.01,2013-09-27 16:05:00,
2013-09-27 09:06:00,69.1,62.3,29.74,NNW,338,0.0,1.6,79,0.00,,---,0.00,VWS V14.01,2013-09-27 16:06:00,
2013-09-27 09:07:00,69.3,58.3,29.74,North,0,0.0,0.0,68,0.00,,---,0.00,VWS V14.01,2013-09-27 16:07:00,
2013-09-27 09:08:00,69.4,60.8,29.74,WNW,292,1.1,1.3,74,0.00,,---,0.00,VWS V14.01,2013-09-27 16:08:00,
2013-09-27 09:09:00,69.4,60.8,29.74,WNW,292,0.0,1.3,74,0.00,,---,0.00,VWS V14.01,2013-09-27 16:09:00,
2013-09-27 09:10:00,69.4,60.4,29.74,NW,315,0.0,1.1,73,0.00,,---,0.00,VWS V14.01,2013-09-27 16:10:00,
2013-09-27 09:11:00,69.4,60.8,29.74,NW,315,2.0,2.5,74,0.00,,---,0.00,VWS V14.01,2013-09-27 16:11:00,
2013-09-27 09:12:00,69.8,59.6,29.76,NE,45,0.0,1.1,70,0.00,,---,0.00,VWS V14.01,2013-09-27 16:12:00,
2013-09-27 09:13:00,69.4,59.6,29.74,North,0,0.0,1.3,71,0.00,,---,0.00,VWS V14.01,2013-09-27 16:13:00,
2013-09-27 09:14:00,69.4,59.6,29.74,NW,315,0.0,1.6,71,0.00,,---,0.00,VWS V14.01,2013-09-27 16:14:00,
2013-09-27 09:15:00,69.3,58.3,29.74,NW,315,0.0,0.0,68,0.00,,---,0.00,VWS V14.01,2013-09-27 16:15:00,
2013-09-27 09:16:00,69.3,58.3,29.74,North,0,0.0,0.0,68,0.00,,---,0.00,VWS V14.01,2013-09-27 16:16:00,
2013-09-27 09:17:00,69.8,59.6,29.76,SSE,158,0.0,0.0,70,0.00,,---,0.00,VWS V14.01,2013-09-27 16:17:00,
2013-09-27 09:18:00,69.3,58.3,29.74,North,0,0.0,0.0,68,0.00,,---,0.00,VWS V14.01,2013-09-27 16:18:00,
2013-09-27 09:19:00,69.3,58.3,29.74,NNW,338,0.0,0.0,68,0.00,,---,0.00,VWS V14.01,2013-09-27 16:19:00,
2013-09-27 09:20:00,69.3,58.3,29.76,North,0,0.0,0.0,68,0.00,,---,0.00,VWS V14.01,2013-09-27 16:20:00,
2013-09-27 09:21:00,69.8,59.6,29.76,NE,45,0.0,1.1,70,0.00,,---,0.00,VWS V14.01,2013-09-27 16:21:00,
2013-09-27 09:22:00,70.5,59.0,29.76,NW,315,0.0,0.0,67,0.00,,---,0.00,VWS V14.01,2013-09-27 16:22:00,
2013-09-27 09:23:00,69.8,59.6,29.76,NNW,338,0.0,0.0,70,0.00,,---,0.00,VWS V14.01,2013-09-27 16:23:00,
2013-09-27 09:24:00,69.8,59.6,29.76,NW,315,0.0,0.0,70,0.00,,---,0.00,VWS V14.01,2013-09-27 16:24:00,
2013-09-27 09:25:00,69.8,59.6,29.76,SSE,158,0.9,1.1,70,0.00,,---,0.00,VWS V14.01,2013-09-27 16:25:00,
2013-09-27 09:26:00,69.8,59.6,29.76,SSE,158,0.0,1.3,70,0.00,,---,0.00,VWS V14.01,2013-09-27 16:26:00,
2013-09-27 09:27:00,70.7,57.9,29.76,NW,315,0.0,2.0,64,0.00,,---,0.00,VWS V14.01,2013-09-27 16:27:00,
2013-09-27 09:28:00,69.8,59.6,29.76,NNW,338,0.9,2.0,70,0.00,,---,0.00,VWS V14.01,2013-09-27 16:28:00,
2013-09-27 09:29:00,69.8,59.6,29.76,NW,315,0.0,0.9,70,0.00,,---,0.00,VWS V14.01,2013-09-27 16:29:00,
2013-09-27 09:30:00,69.8,59.6,29.76,North,0,0.0,1.1,70,0.00,,---,0.00,VWS V14.01,2013-09-27 16:30:00,
2013-09-27 09:31:00,70.5,59.0,29.76,NW,315,0.0,0.0,67,0.00,,---,0.00,VWS V14.01,2013-09-27 16:31:00,
2013-09-27 09:32:00,71.1,57.8,29.76,NW,315,0.0,0.0,63,0.00,,---,0.00,VWS V14.01,2013-09-27 16:32:00,
2013-09-27 09:33:00,70.7,59.2,29.76,NNE,22,0.0,1.1,67,0.00,,---,0.00,VWS V14.01,2013-09-27 16:33:00,
2013-09-27 09:34:00,70.9,59.4,29.76,West,270,2.5,2.5,67,0.00,,---,0.00,VWS V14.01,2013-09-27 16:34:00,
2013-09-27 09:35:00,70.7,58.4,29.76,NW,315,2.0,2.7,65,0.00,,---,0.00,VWS V14.01,2013-09-27 16:35:00,
2013-09-27 09:36:00,70.7,57.9,29.76,NW,315,0.0,2.0,64,0.00,,---,0.00,VWS V14.01,2013-09-27 16:36:00,
2013-09-27 09:37:00,71.1,57.4,29.76,ESE,112,0.0,2.7,62,0.00,,---,0.00,VWS V14.01,2013-09-27 16:37:00,
2013-09-27 09:38:00,71.1,58.7,29.76,NW,315,0.0,0.0,65,0.00,,---,0.00,VWS V14.01,2013-09-27 16:38:00,
2013-09-27 09:39:00,71.1,58.7,29.76,NW,315,1.3,2.5,65,0.00,,---,0.00,VWS V14.01,2013-09-27 16:39:00,
2013-09-27 09:40:00,71.1,58.3,29.76,NW,315,2.2,2.5,64,0.00,,---,0.00,VWS V14.01,2013-09-27 16:40:00,
2013-09-27 09:41:00,71.1,57.8,29.76,NW,315,0.0,2.2,63,0.00,,---,0.00,VWS V14.01,2013-09-27 16:41:00,
2013-09-27 09:42:00,71.1,57.4,29.76,NNW,338,0.0,1.3,62,0.00,,---,0.00,VWS V14.01,2013-09-27 16:42:00,
2013-09-27 09:43:00,71.1,57.8,29.76,West,270,2.5,2.5,63,0.00,,---,0.00,VWS V14.01,2013-09-27 16:43:00,
2013-09-27 09:44:00,71.1,57.8,29.76,SSE,158,0.9,2.7,63,0.00,,---,0.00,VWS V14.01,2013-09-27 16:44:00,
2013-09-27 09:45:00,71.1,57.8,29.76,SE,135,2.7,3.6,63,0.00,,---,0.00,VWS V14.01,2013-09-27 16:45:00,
2013-09-27 09:46:00,71.1,57.4,29.76,ESE,112,0.0,2.7,62,0.00,,---,0.00,VWS V14.01,2013-09-27 16:46:00,
2013-09-27 09:47:00,71.1,57.4,29.76,NW,315,1.3,2.2,62,0.00,,---,0.00,VWS V14.01,2013-09-27 16:47:00,
2013-09-27 09:48:00,71.1,57.4,29.76,NW,315,2.0,2.0,62,0.00,,---,0.00,VWS V14.01,2013-09-27 16:48:00,
2013-09-27 09:49:00,71.1,57.4,29.76,NW,315,2.2,2.2,62,0.00,,---,0.00,VWS V14.01,2013-09-27 16:49:00,
2013-09-27 09:50:00,71.1,57.4,29.76,NNW,338,1.3,3.6,62,0.00,,---,0.00,VWS V14.01,2013-09-27 16:50:00,
2013-09-27 09:51:00,71.1,57.4,29.76,NNW,338,0.0,1.3,62,0.00,,---,0.00,VWS V14.01,2013-09-27 16:51:00,
2013-09-27 09:52:00,71.1,57.4,29.76,NW,315,2.2,3.1,62,0.00,,---,0.00,VWS V14.01,2013-09-27 16:52:00,
2013-09-27 09:53:00,71.1,57.4,29.76,West,270,2.9,2.9,62,0.00,,---,0.00,VWS V14.01,2013-09-27 16:53:00,
2013-09-27 09:54:00,71.1,57.4,29.76,North,0,1.6,3.1,62,0.00,,---,0.00,VWS V14.01,2013-09-27 16:54:00,
2013-09-27 09:55:00,71.1,57.4,29.76,WNW,292,2.2,2.7,62,0.00,,---,0.00,VWS V14.01,2013-09-27 16:55:00,
2013-09-27 09:56:00,71.1,57.4,29.76,NW,315,1.3,2.2,62,0.00,,---,0.00,VWS V14.01,2013-09-27 16:56:00,
2013-09-27 09:57:00,71.1,57.4,29.76,ESE,112,2.0,2.0,62,0.00,,---,0.00,VWS V14.01,2013-09-27 16:57:00,
2013-09-27 09:58:00,71.1,57.0,29.76,WNW,292,1.1,3.1,61,0.00,,---,0.00,VWS V14.01,2013-09-27 16:58:00,
2013-09-27 09:59:00,71.1,57.0,29.76,ESE,112,1.1,2.2,61,0.00,,---,0.00,VWS V14.01,2013-09-27 16:59:00,
2013-09-27 10:00:00,71.1,57.4,29.76,West,270,0.9,2.0,62,0.00,,---,0.00,VWS V14.01,2013-09-27 17:00:00,
2013-09-27 10:01:00,71.1,57.4,29.76,NW,315,2.2,3.1,62,0.00,,---,0.00,VWS V14.01,2013-09-27 17:01:00,
2013-09-27 10:02:00,71.1,57.4,29.76,SSE,158,1.1,3.4,62,0.00,,---,0.00,VWS V14.01,2013-09-27 17:02:00,
2013-09-27 10:03:00,71.1,57.4,29.76,North,0,1.6,2.7,62,0.00,,---,0.00,VWS V14.01,2013-09-27 17:03:00,
2013-09-27 10:04:00,71.1,57.4,29.76,NNW,338,2.2,2.9,62,0.00,,---,0.00,VWS V14.01,2013-09-27 17:04:00,
2013-09-27 10:05:00,71.1,57.4,29.76,NW,315,2.9,3.1,62,0.00,,---,0.00,VWS V14.01,2013-09-27 17:05:00,
2013-09-27 10:06:00,71.1,57.4,29.76,ESE,112,2.0,2.9,62,0.00,,---,0.00,VWS V14.01,2013-09-27 17:06:00,
2013-09-27 10:07:00,71.1,57.4,29.76,NW,315,3.6,3.6,62,0.00,,---,0.00,VWS V14.01,2013-09-27 17:07:00,
2013-09-27 10:08:00,71.1,57.4,29.76,NW,315,2.0,2.0,62,0.00,,---,0.00,VWS V14.01,2013-09-27 17:08:00,
2013-09-27 10:09:00,71.1,57.4,29.76,WNW,292,2.0,2.5,62,0.00,,---,0.00,VWS V14.01,2013-09-27 17:09:00,
2013-09-27 10:10:00,71.1,57.4,29.76,South,180,3.4,3.4,62,0.00,,---,0.00,VWS V14.01,2013-09-27 17:10:00,
2013-09-27 10:11:00,71.1,57.4,29.76,SSE,158,1.1,3.4,62,0.00,,---,0.00,VWS V14.01,2013-09-27 17:11:00,
2013-09-27 10:12:00,71.1,57.4,29.76,NNW,338,3.8,3.8,62,0.00,,---,0.00,VWS V14.01,2013-09-27 17:12:00,
2013-09-27 10:13:00,71.1,57.4,29.76,East,90,1.6,1.6,62,0.00,,---,0.00,VWS V14.01,2013-09-27 17:13:00,
2013-09-27 10:14:00,71.1,57.4,29.76,NNW,338,2.7,2.9,62,0.00,,---,0.00,VWS V14.01,2013-09-27 17:14:00,
2013-09-27 10:15:00,71.1,57.4,29.76,NW,315,1.3,2.7,62,0.00,,---,0.00,VWS V14.01,2013-09-27 17:15:00,
2013-09-27 10:16:00,71.1,57.4,29.76,NW,315,2.0,3.6,62,0.00,,---,0.00,VWS V14.01,2013-09-27 17:16:00,
2013-09-27 10:17:00,73.0,57.9,29.76,ESE,112,0.0,3.4,59,0.00,,---,0.00,VWS V14.01,2013-09-27 17:17:00,
2013-09-27 10:18:00,71.1,57.4,29.76,NNE,22,1.1,2.9,62,0.00,,---,0.00,VWS V14.01,2013-09-27 17:18:00,
2013-09-27 10:19:00,71.1,57.4,29.76,NNW,338,2.9,2.9,62,0.00,,---,0.00,VWS V14.01,2013-09-27 17:19:00,
2013-09-27 10:20:00,71.1,57.4,29.76,NW,315,0.9,3.4,62,0.00,,---,0.00,VWS V14.01,2013-09-27 17:20:00,
2013-09-27 10:21:00,71.1,57.4,29.76,NNW,338,3.8,3.8,62,0.00,,---,0.00,VWS V14.01,2013-09-27 17:21:00,
2013-09-27 10:22:00,73.4,57.7,29.76,South,180,2.0,2.2,58,0.00,,---,0.00,VWS V14.01,2013-09-27 17:22:00,
2013-09-27 10:23:00,73.0,57.9,29.76,WNW,292,1.1,3.6,59,0.00,,---,0.00,VWS V14.01,2013-09-27 17:23:00,
2013-09-27 10:24:00,73.0,57.9,29.76,SSE,158,2.0,2.5,59,0.00,,---,0.00,VWS V14.01,2013-09-27 17:24:00,
2013-09-27 10:25:00,73.0,57.9,29.76,SSE,158,3.4,3.4,59,0.00,,---,0.00,VWS V14.01,2013-09-27 17:25:00,
2013-09-27 10:26:00,73.2,57.6,29.76,East,90,1.3,1.3,58,0.00,,---,0.00,VWS V14.01,2013-09-27 17:26:00,
2013-09-27 10:27:00,73.0,57.9,29.76,ESE,112,0.0,0.0,59,0.00,,---,0.00,VWS V14.01,2013-09-27 17:27:00,
2013-09-27 10:28:00,73.4,58.7,29.76,ESE,112,1.3,1.3,60,0.00,,---,0.00,VWS V14.01,2013-09-27 17:28:00,
2013-09-27 10:29:00,73.6,58.4,29.76,ESE,112,2.0,3.1,59,0.00,,---,0.00,VWS V14.01,2013-09-27 17:29:00,
2013-09-27 10:30:00,73.6,58.4,29.76,ESE,112,2.0,3.1,59,0.00,,---,0.00,VWS V14.01,2013-09-27 17:30:00,
2013-09-27 10:31:00,73.2,57.6,29.79,WSW,248,1.6,1.6,58,0.00,,---,0.00,VWS V14.01,2013-09-27 17:31:00,
2013-09-27 10:32:00,73.2,57.6,29.76,NW,315,1.1,2.9,58,0.00,,---,0.00,VWS V14.01,2013-09-27 17:32:00,
2013-09-27 10:33:00,73.2,57.6,29.76,NW,315,1.6,4.9,58,0.00,,---,0.00,VWS V14.01,2013-09-27 17:33:00,
2013-09-27 10:34:00,73.2,57.6,29.76,WNW,292,1.3,4.0,58,0.00,,---,0.00,VWS V14.01,2013-09-27 17:34:00,
2013-09-27 10:35:00,73.2,57.6,29.80,East,90,1.3,1.3,58,0.00,,---,0.00,VWS V14.01,2013-09-27 17:35:00,
2013-09-27 10:36:00,74.8,57.1,29.79,NNW,338,2.7,2.7,54,0.00,,---,0.00,VWS V14.01,2013-09-27 17:36:00,
2013-09-27 10:37:00,73.2,57.6,29.80,NW,315,2.2,2.9,58,0.00,,---,0.00,VWS V14.01,2013-09-27 17:37:00,
2013-09-27 10:38:00,73.2,57.6,29.80,NW,315,2.0,3.6,58,0.00,,---,0.00,VWS V14.01,2013-09-27 17:38:00,
2013-09-27 10:39:00,73.2,57.6,29.80,ESE,112,0.0,2.0,58,0.00,,---,0.00,VWS V14.01,2013-09-27 17:39:00,
2013-09-27 10:40:00,73.2,57.6,29.80,WSW,248,1.6,1.6,58,0.00,,---,0.00,VWS V14.01,2013-09-27 17:40:00,
2013-09-27 10:41:00,74.8,57.1,29.79,NW,315,2.0,3.8,54,0.00,,---,0.00,VWS V14.01,2013-09-27 17:41:00,
2013-09-27 10:42:00,73.2,57.6,29.80,SE,135,3.6,3.6,58,0.00,,---,0.00,VWS V14.01,2013-09-27 17:42:00,
2013-09-27 10:43:00,74.8,57.1,29.80,SE,135,0.0,3.6,54,0.00,,---,0.00,VWS V14.01,2013-09-27 17:43:00,
2013-09-27 10:44:00,74.8,57.1,29.80,South,180,1.6,2.5,54,0.00,,---,0.00,VWS V14.01,2013-09-27 17:44:00,
2013-09-27 10:45:00,74.8,57.1,29.80,SSE,158,2.0,2.7,54,0.00,,---,0.00,VWS V14.01,2013-09-27 17:45:00,
2013-09-27 10:46:00,74.8,57.1,29.76,WNW,292,1.3,2.0,54,0.00,,---,0.00,VWS V14.01,2013-09-27 17:46:00,
2013-09-27 10:47:00,74.8,57.1,29.80,East,90,2.9,3.4,54,0.00,,---,0.00,VWS V14.01,2013-09-27 17:47:00,
2013-09-27 10:48:00,74.8,57.1,29.80,SW,225,2.7,2.9,54,0.00,,---,0.00,VWS V14.01,2013-09-27 17:48:00,
2013-09-27 10:49:00,74.8,57.1,29.80,NNW,338,3.8,5.4,54,0.00,,---,0.00,VWS V14.01,2013-09-27 17:49:00,
2013-09-27 10:50:00,74.8,57.1,29.76,WNW,292,3.4,3.8,54,0.00,,---,0.00,VWS V14.01,2013-09-27 17:50:00,
2013-09-27 10:51:00,74.8,57.1,29.76,North,0,3.4,3.4,54,0.00,,---,0.00,VWS V14.01,2013-09-27 17:51:00,
2013-09-27 10:52:00,74.8,57.1,29.76,WNW,292,3.8,4.0,54,0.00,,---,0.00,VWS V14.01,2013-09-27 17:52:00,
2013-09-27 10:53:00,74.8,57.1,29.76,SSE,158,1.6,3.8,54,0.00,,---,0.00,VWS V14.01,2013-09-27 17:53:00,
2013-09-27 10:54:00,74.8,57.1,29.76,ESE,112,2.0,2.0,54,0.00,,---,0.00,VWS V14.01,2013-09-27 17:54:00,
2013-09-27 10:55:00,74.8,57.1,29.76,NW,315,3.1,3.1,54,0.00,,---,0.00,VWS V14.01,2013-09-27 17:55:00,
2013-09-27 10:56:00,74.8,57.1,29.76,South,180,2.0,3.1,54,0.00,,---,0.00,VWS V14.01,2013-09-27 17:56:00,
2013-09-27 10:57:00,74.8,57.1,29.76,NW,315,1.1,3.4,54,0.00,,---,0.00,VWS V14.01,2013-09-27 17:57:00,
2013-09-27 10:58:00,74.8,57.1,29.76,WNW,292,2.9,3.6,54,0.00,,---,0.00,VWS V14.01,2013-09-27 17:58:00,
2013-09-27 10:59:00,74.8,57.1,29.76,North,0,1.6,3.4,54,0.00,,---,0.00,VWS V14.01,2013-09-27 17:59:00,
2013-09-27 11:00:00,74.8,57.1,29.76,West,270,4.3,4.3,54,0.00,,---,0.00,VWS V14.01,2013-09-27 18:00:00,
2013-09-27 11:01:00,74.8,57.1,29.79,SSW,202,3.4,3.4,54,0.00,,---,0.00,VWS V14.01,2013-09-27 18:01:00,
2013-09-27 11:02:00,74.8,57.1,29.76,NW,315,3.8,3.8,54,0.00,,---,0.00,VWS V14.01,2013-09-27 18:02:00,
2013-09-27 11:03:00,74.8,57.1,29.76,NNW,338,1.6,3.8,54,0.00,,---,0.00,VWS V14.01,2013-09-27 18:03:00,
2013-09-27 11:04:00,74.8,57.1,29.76,WNW,292,3.1,3.4,54,0.00,,---,0.00,VWS V14.01,2013-09-27 18:04:00,
2013-09-27 11:05:00,74.8,57.1,29.80,SW,225,2.2,3.1,54,0.00,,---,0.00,VWS V14.01,2013-09-27 18:05:00,
2013-09-27 11:06:00,74.8,57.1,29.79,NW,315,3.4,3.6,54,0.00,,---,0.00,VWS V14.01,2013-09-27 18:06:00,
2013-09-27 11:07:00,74.8,57.1,29.80,SE,135,1.6,2.7,54,0.00,,---,0.00,VWS V14.01,2013-09-27 18:07:00,
2013-09-27 11:08:00,74.8,57.1,29.80,NNE,22,1.6,2.9,54,0.00,,---,0.00,VWS V14.01,2013-09-27 18:08:00,
2013-09-27 11:09:00,74.8,57.1,29.80,NW,315,2.7,2.7,54,0.00,,---,0.00,VWS V14.01,2013-09-27 18:09:00,
2013-09-27 11:10:00,74.8,57.1,29.79,WSW,248,2.0,4.3,54,0.00,,---,0.00,VWS V14.01,2013-09-27 18:10:00,
2013-09-27 11:11:00,74.8,57.1,29.80,West,270,2.9,3.1,54,0.00,,---,0.00,VWS V14.01,2013-09-27 18:11:00,
2013-09-27 11:12:00,74.8,57.1,29.80,NW,315,1.3,3.6,54,0.00,,---,0.00,VWS V14.01,2013-09-27 18:12:00,
2013-09-27 11:13:00,74.8,57.1,29.80,NNW,338,3.8,3.8,54,0.00,,---,0.00,VWS V14.01,2013-09-27 18:13:00,
2013-09-27 11:14:00,74.8,57.1,29.80,NW,315,3.6,3.8,54,0.00,,---,0.00,VWS V14.01,2013-09-27 18:14:00,
2013-09-27 11:15:00,74.8,57.1,29.76,NNW,338,5.4,5.4,54,0.00,,---,0.00,VWS V14.01,2013-09-27 18:15:00,
2013-09-27 11:16:00,74.8,57.1,29.80,West,270,2.9,3.1,54,0.00,,---,0.00,VWS V14.01,2013-09-27 18:16:00,
2013-09-27 11:17:00,74.8,57.1,29.80,NNW,338,2.0,3.4,54,0.00,,---,0.00,VWS V14.01,2013-09-27 18:17:00,
2013-09-27 11:18:00,74.8,57.1,29.80,WNW,292,4.7,4.7,54,0.00,,---,0.00,VWS V14.01,2013-09-27 18:18:00,
2013-09-27 11:19:00,74.8,57.1,29.80,West,270,4.3,4.7,54,0.00,,---,0.00,VWS V14.01,2013-09-27 18:19:00,
2013-09-27 11:20:00,74.8,57.1,29.76,WNW,292,2.7,3.4,54,0.00,,---,0.00,VWS V14.01,2013-09-27 18:20:00,
2013-09-27 11:21:00,74.8,57.1,29.76,WNW,292,3.8,3.8,54,0.00,,---,0.00,VWS V14.01,2013-09-27 18:21:00,
2013-09-27 11:22:00,74.8,57.1,29.76,West,270,0.9,4.0,54,0.00,,---,0.00,VWS V14.01,2013-09-27 18:22:00,
2013-09-27 11:23:00,74.8,57.1,29.76,North,0,0.0,3.8,54,0.00,,---,0.00,VWS V14.01,2013-09-27 18:23:00,
2013-09-27 11:24:00,74.8,57.1,29.76,North,0,1.3,2.7,54,0.00,,---,0.00,VWS V14.01,2013-09-27 18:24:00,
2013-09-27 11:25:00,75.0,57.8,29.76,SW,225,2.0,2.9,55,0.00,,---,0.00,VWS V14.01,2013-09-27 18:25:00,
2013-09-27 11:26:00,74.8,57.1,29.76,SE,135,2.0,3.1,54,0.00,,---,0.00,VWS V14.01,2013-09-27 18:26:00,
2013-09-27 11:27:00,74.8,57.1,29.76,NW,315,2.0,3.8,54,0.00,,---,0.00,VWS V14.01,2013-09-27 18:27:00,
2013-09-27 11:28:00,74.8,57.1,29.76,WSW,248,3.1,5.4,54,0.00,,---,0.00,VWS V14.01,2013-09-27 18:28:00,
2013-09-27 11:29:00,74.8,57.1,29.76,NNW,338,0.9,3.6,54,0.00,,---,0.00,VWS V14.01,2013-09-27 18:29:00,
2013-09-27 11:30:00,75.0,57.8,29.79,ENE,68,1.3,1.6,55,0.00,,---,0.00,VWS V14.01,2013-09-27 18:30:00,
2013-09-27 11:31:00,74.8,57.1,29.76,North,0,2.0,4.0,54,0.00,,---,0.00,VWS V14.01,2013-09-27 18:31:00,
2013-09-27 11:32:00,75.0,58.3,29.76,NW,315,0.0,2.0,56,0.00,,---,0.00,VWS V14.01,2013-09-27 18:32:00,
2013-09-27 11:33:00,75.0,58.3,29.76,West,270,5.4,5.4,56,0.00,,---,0.00,VWS V14.01,2013-09-27 18:33:00,
2013-09-27 11:34:00,75.0,58.3,29.76,WNW,292,2.9,5.4,56,0.00,,---,0.00,VWS V14.01,2013-09-27 18:34:00,
2013-09-27 11:35:00,78.1,59.0,29.79,NNW,338,1.1,2.2,52,0.00,,---,0.00,VWS V14.01,2013-09-27 18:35:00,
2013-09-27 11:36:00,75.0,57.8,29.80,WNW,292,1.3,3.4,55,0.00,,---,0.00,VWS V14.01,2013-09-27 18:36:00,
2013-09-27 11:37:00,75.0,57.8,29.80,SW,225,2.0,2.7,55,0.00,,---,0.00,VWS V14.01,2013-09-27 18:37:00,
2013-09-27 11:38:00,75.0,57.8,29.80,WNW,292,2.7,4.0,55,0.00,,---,0.00,VWS V14.01,2013-09-27 18:38:00,
2013-09-27 11:39:00,75.0,57.8,29.80,NNW,338,1.6,3.4,55,0.00,,---,0.00,VWS V14.01,2013-09-27 18:39:00,
2013-09-27 11:40:00,79.9,59.0,29.79,WNW,292,2.2,2.5,49,0.00,,---,0.00,VWS V14.01,2013-09-27 18:40:00,
2013-09-27 11:41:00,77.0,59.1,29.80,North,0,2.2,3.6,54,0.00,,---,0.00,VWS V14.01,2013-09-27 18:41:00,
2013-09-27 11:42:00,77.4,58.9,29.80,NNW,338,2.7,2.7,53,0.00,,---,0.00,VWS V14.01,2013-09-27 18:42:00,
2013-09-27 11:43:00,77.7,59.2,29.80,North,0,2.5,3.1,53,0.00,,---,0.00,VWS V14.01,2013-09-27 18:43:00,
2013-09-27 11:44:00,78.1,59.0,29.80,WNW,292,1.6,2.5,52,0.00,,---,0.00,VWS V14.01,2013-09-27 18:44:00,
2013-09-27 11:45:00,80.4,58.4,29.76,WNW,292,1.1,1.6,47,0.00,,---,0.00,VWS V14.01,2013-09-27 18:45:00,
2013-09-27 11:46:00,78.1,59.0,29.80,NW,315,2.5,2.5,52,0.00,,---,0.00,VWS V14.01,2013-09-27 18:46:00,
2013-09-27 11:47:00,78.1,59.0,29.80,NW,315,1.6,2.5,52,0.00,,---,0.00,VWS V14.01,2013-09-27 18:47:00,
2013-09-27 11:48:00,79.5,58.1,29.80,North,0,1.6,3.8,48,0.00,,---,0.00,VWS V14.01,2013-09-27 18:48:00,
2013-09-27 11:49:00,79.9,59.0,29.80,NW,315,2.5,2.5,49,0.00,,---,0.00,VWS V14.01,2013-09-27 18:49:00,
2013-09-27 11:50:00,81.7,57.7,29.76,WNW,292,2.9,3.4,44,0.00,,---,0.00,VWS V14.01,2013-09-27 18:50:00,
2013-09-27 11:51:00,80.1,59.2,29.76,NNE,22,2.2,3.1,49,0.00,,---,0.00,VWS V14.01,2013-09-27 18:51:00,
2013-09-27 11:52:00,80.2,58.2,29.76,NW,315,2.0,3.1,47,0.00,,---,0.00,VWS V14.01,2013-09-27 18:52:00,
2013-09-27 11:53:00,80.2,58.2,29.76,WNW,292,2.0,4.3,47,0.00,,---,0.00,VWS V14.01,2013-09-27 18:53:00,
2013-09-27 11:54:00,80.4,58.4,29.76,NW,315,1.3,2.5,47,0.00,,---,0.00,VWS V14.01,2013-09-27 18:54:00,
2013-09-27 11:55:00,81.7,57.0,29.76,NW,315,1.6,2.7,43,0.00,,---,0.00,VWS V14.01,2013-09-27 18:55:00,
2013-09-27 11:56:00,80.4,58.4,29.76,WNW,292,1.6,2.7,47,0.00,,---,0.00,VWS V14.01,2013-09-27 18:56:00,
2013-09-27 11:57:00,81.9,59.7,29.76,North,0,2.0,2.7,47,0.00,,---,0.00,VWS V14.01,2013-09-27 18:57:00,
2013-09-27 11:58:00,81.9,59.7,29.76,West,270,2.0,4.3,47,0.00,,---,0.00,VWS V14.01,2013-09-27 18:58:00,
2013-09-27 11:59:00,81.5,58.1,29.76,NW,315,1.3,2.0,45,0.00,,---,0.00,VWS V14.01,2013-09-27 18:59:00,
2013-09-27 12:00:00,81.7,56.4,29.76,WNW,292,3.4,3.4,42,0.00,,---,0.00,VWS V14.01,2013-09-27 19:00:00,
2013-09-27 12:01:00,81.7,57.0,29.76,SW,225,1.3,3.8,43,0.00,,---,0.00,VWS V14.01,2013-09-27 19:01:00,
2013-09-27 12:02:00,81.1,55.9,29.76,WNW,292,2.2,2.9,42,0.00,,---,0.00,VWS V14.01,2013-09-27 19:02:00,
2013-09-27 12:03:00,81.7,57.0,29.76,NNW,338,0.9,2.7,43,0.00,,---,0.00,VWS V14.01,2013-09-27 19:03:00,
2013-09-27 12:04:00,81.7,57.0,29.76,NW,315,2.7,3.6,43,0.00,,---,0.00,VWS V14.01,2013-09-27 19:04:00,
2013-09-27 12:05:00,82.6,57.2,29.76,WNW,292,3.1,4.9,42,0.00,,---,0.00,VWS V14.01,2013-09-27 19:05:00,
2013-09-27 12:06:00,82.6,57.8,29.76,SSW,202,3.8,3.8,43,0.00,,---,0.00,VWS V14.01,2013-09-27 19:06:00,
2013-09-27 12:07:00,82.6,57.8,29.76,SSE,158,2.2,3.8,43,0.00,,---,0.00,VWS V14.01,2013-09-27 19:07:00,
2013-09-27 12:08:00,81.7,56.4,29.76,NNW,338,1.6,2.7,42,0.00,,---,0.00,VWS V14.01,2013-09-27 19:08:00,
2013-09-27 12:09:00,81.7,56.4,29.76,West,270,2.0,3.8,42,0.00,,---,0.00,VWS V14.01,2013-09-27 19:09:00,
2013-09-27 12:10:00,82.9,57.5,29.76,NW,315,3.1,5.4,42,0.00,,---,0.00,VWS V14.01,2013-09-27 19:10:00,
2013-09-27 12:11:00,81.9,57.8,29.76,NNW,338,2.7,2.9,44,0.00,,---,0.00,VWS V14.01,2013-09-27 19:11:00,
2013-09-27 12:12:00,81.7,56.4,29.76,NW,315,1.3,4.7,42,0.00,,---,0.00,VWS V14.01,2013-09-27 19:12:00,
2013-09-27 12:13:00,81.7,56.4,29.76,NNE,22,1.6,3.6,42,0.00,,---,0.00,VWS V14.01,2013-09-27 19:13:00,
2013-09-27 12:14:00,82.4,57.7,29.76,NW,315,4.9,4.9,43,0.00,,---,0.00,VWS V14.01,2013-09-27 19:14:00,
2013-09-27 12:15:00,83.3,56.5,29.76,WNW,292,2.2,3.1,40,0.00,,---,0.00,VWS V14.01,2013-09-27 19:15:00,
2013-09-27 12:16:00,82.6,57.2,29.76,WNW,292,1.1,3.1,42,0.00,,---,0.00,VWS V14.01,2013-09-27 19:16:00,
2013-09-27 12:17:00,82.6,57.2,29.76,NNW,338,1.6,3.1,42,0.00,,---,0.00,VWS V14.01,2013-09-27 19:17:00,
2013-09-27 12:18:00,82.6,57.2,29.76,WSW,248,2.7,2.9,42,0.00,,---,0.00,VWS V14.01,2013-09-27 19:18:00,
2013-09-27 12:19:00,82.9,57.5,29.76,WNW,292,1.1,2.7,42,0.00,,---,0.00,VWS V14.01,2013-09-27 19:19:00,
2013-09-27 12:20:00,83.3,56.5,29.76,NNW,338,2.7,3.1,40,0.00,,---,0.00,VWS V14.01,2013-09-27 19:20:00,
2013-09-27 12:21:00,82.9,57.5,29.76,South,180,1.3,2.7,42,0.00,,---,0.00,VWS V14.01,2013-09-27 19:21:00,
2013-09-27 12:22:00,83.3,56.5,29.76,West,270,3.1,3.1,40,0.00,,---,0.00,VWS V14.01,2013-09-27 19:22:00,
2013-09-27 12:23:00,83.3,56.5,29.76,NW,315,2.0,3.1,40,0.00,,---,0.00,VWS V14.01,2013-09-27 19:23:00,
2013-09-27 12:24:00,83.3,56.5,29.76,WNW,292,3.1,4.3,40,0.00,,---,0.00,VWS V14.01,2013-09-27 19:24:00,
2013-09-27 12:25:00,84.4,56.0,29.76,WNW,292,2.0,2.5,38,0.00,,---,0.00,VWS V14.01,2013-09-27 19:25:00,
2013-09-27 12:26:00,83.3,56.5,29.76,NNW,338,2.0,3.8,40,0.00,,---,0.00,VWS V14.01,2013-09-27 19:26:00,
2013-09-27 12:27:00,83.3,56.5,29.76,NW,315,3.4,4.3,40,0.00,,---,0.00,VWS V14.01,2013-09-27 19:27:00,
2013-09-27 12:28:00,83.3,56.5,29.76,NNE,22,2.5,3.4,40,0.00,,---,0.00,VWS V14.01,2013-09-27 19:28:00,
2013-09-27 12:29:00,83.3,56.5,29.76,SSW,202,3.1,3.4,40,0.00,,---,0.00,VWS V14.01,2013-09-27 19:29:00,
2013-09-27 12:30:00,84.6,56.9,29.74,WNW,292,0.0,1.1,39,0.00,,---,0.00,VWS V14.01,2013-09-27 19:30:00,
2013-09-27 12:31:00,83.3,56.5,29.76,NW,315,2.5,3.4,40,0.00,,---,0.00,VWS V14.01,2013-09-27 19:31:00,
2013-09-27 12:32:00,83.8,56.3,29.76,North,0,2.2,3.4,39,0.00,,---,0.00,VWS V14.01,2013-09-27 19:32:00,
2013-09-27 12:33:00,84.4,56.7,29.76,North,0,1.6,2.2,39,0.00,,---,0.00,VWS V14.01,2013-09-27 19:33:00,
2013-09-27 12:34:00,84.4,56.0,29.76,North,0,2.5,3.1,38,0.00,,---,0.00,VWS V14.01,2013-09-27 19:34:00,
2013-09-27 12:35:00,84.9,56.5,29.74,NW,315,2.0,2.9,38,0.00,,---,0.00,VWS V14.01,2013-09-27 19:35:00,
2013-09-27 12:36:00,84.6,56.2,29.74,NW,315,2.0,3.6,38,0.00,,---,0.00,VWS V14.01,2013-09-27 19:36:00,
2013-09-27 12:37:00,84.9,56.5,29.74,NW,315,2.2,2.5,38,0.00,,---,0.00,VWS V14.01,2013-09-27 19:37:00,
2013-09-27 12:38:00,84.9,57.2,29.74,WNW,292,1.1,3.1,39,0.00,,---,0.00,VWS V14.01,2013-09-27 19:38:00,
2013-09-27 12:39:00,84.6,56.2,29.74,North,0,1.1,4.3,38,0.00,,---,0.00,VWS V14.01,2013-09-27 19:39:00,
2013-09-27 12:40:00,84.9,56.5,29.74,NW,315,2.5,3.8,38,0.00,,---,0.00,VWS V14.01,2013-09-27 19:40:00,
2013-09-27 12:41:00,84.9,56.5,29.74,SW,225,1.1,3.4,38,0.00,,---,0.00,VWS V14.01,2013-09-27 19:41:00,
2013-09-27 12:42:00,84.9,56.5,29.74,WNW,292,2.5,2.5,38,0.00,,---,0.00,VWS V14.01,2013-09-27 19:42:00,
2013-09-27 12:43:00,84.9,56.5,29.74,NW,315,2.9,2.9,38,0.00,,---,0.00,VWS V14.01,2013-09-27 19:43:00,
2013-09-27 12:44:00,84.9,56.5,29.74,NW,315,2.9,2.9,38,0.00,,---,0.00,VWS V14.01,2013-09-27 19:44:00,
2013-09-27 12:45:00,85.6,55.7,29.74,NW,315,1.6,2.5,36,0.00,,---,0.00,VWS V14.01,2013-09-27 19:45:00,
2013-09-27 12:46:00,84.9,56.5,29.74,NW,315,1.3,3.1,38,0.00,,---,0.00,VWS V14.01,2013-09-27 19:46:00,
2013-09-27 12:47:00,84.9,56.5,29.74,NW,315,1.6,3.8,38,0.00,,---,0.00,VWS V14.01,2013-09-27 19:47:00,
2013-09-27 12:48:00,84.9,56.5,29.74,WNW,292,1.1,2.0,38,0.00,,---,0.00,VWS V14.01,2013-09-27 19:48:00,
2013-09-27 12:49:00,84.9,56.5,29.74,WNW,292,3.8,3.8,38,0.00,,---,0.00,VWS V14.01,2013-09-27 19:49:00,
2013-09-27 12:50:00,86.0,53.6,29.74,NW,315,2.9,2.9,33,0.00,,---,0.00,VWS V14.01,2013-09-27 19:50:00,
2013-09-27 12:51:00,84.9,56.5,29.74,North,0,2.5,3.6,38,0.00,,---,0.00,VWS V14.01,2013-09-27 19:51:00,
2013-09-27 12:52:00,85.6,54.9,29.74,NW,315,2.5,2.5,35,0.00,,---,0.00,VWS V14.01,2013-09-27 19:52:00,
2013-09-27 12:53:00,85.6,54.9,29.74,East,90,1.1,3.4,35,0.00,,---,0.00,VWS V14.01,2013-09-27 19:53:00,
2013-09-27 12:54:00,85.8,55.8,29.74,NNW,338,2.5,2.7,36,0.00,,---,0.00,VWS V14.01,2013-09-27 19:54:00,
2013-09-27 12:55:00,85.8,53.4,29.74,West,270,1.3,3.1,33,0.00,,---,0.00,VWS V14.01,2013-09-27 19:55:00,
2013-09-27 12:56:00,86.0,55.2,29.74,WNW,292,3.4,3.4,35,0.00,,---,0.00,VWS V14.01,2013-09-27 19:56:00,
2013-09-27 12:57:00,85.6,54.1,29.74,WSW,248,1.1,3.6,34,0.00,,---,0.00,VWS V14.01,2013-09-27 19:57:00,
2013-09-27 12:58:00,86.0,54.4,29.74,WNW,292,4.3,4.3,34,0.00,,---,0.00,VWS V14.01,2013-09-27 19:58:00,
2013-09-27 12:59:00,86.0,53.6,29.74,NNW,338,2.0,4.3,33,0.00,,---,0.00,VWS V14.01,2013-09-27 19:59:00,
2013-09-27 13:00:00,85.8,53.4,29.74,NW,315,4.0,4.0,33,0.00,,---,0.00,VWS V14.01,2013-09-27 20:00:00,
2013-09-27 13:01:00,85.8,54.2,29.74,NW,315,3.8,4.0,34,0.00,,---,0.00,VWS V14.01,2013-09-27 20:01:00,
2013-09-27 13:02:00,86.0,53.6,29.74,NNW,338,1.1,4.0,33,0.00,,---,0.00,VWS V14.01,2013-09-27 20:02:00,
2013-09-27 13:03:00,85.8,53.4,29.74,SSW,202,2.5,3.4,33,0.00,,---,0.00,VWS V14.01,2013-09-27 20:03:00,
2013-09-27 13:04:00,85.8,53.4,29.74,WNW,292,3.1,3.6,33,0.00,,---,0.00,VWS V14.01,2013-09-27 20:04:00,
2013-09-27 13:05:00,85.6,51.6,29.74,NNW,338,2.7,2.7,31,0.00,,---,0.00,VWS V14.01,2013-09-27 20:05:00,
2013-09-27 13:06:00,85.8,53.4,29.74,NW,315,2.7,2.7,33,0.00,,---,0.00,VWS V14.01,2013-09-27 20:06:00,
2013-09-27 13:07:00,85.8,53.4,29.74,West,270,2.7,3.6,33,0.00,,---,0.00,VWS V14.01,2013-09-27 20:07:00,
2013-09-27 13:08:00,85.8,53.4,29.74,NW,315,1.6,3.8,33,0.00,,---,0.00,VWS V14.01,2013-09-27 20:08:00,
2013-09-27 13:09:00,85.8,53.4,29.74,NW,315,3.1,3.1,33,0.00,,---,0.00,VWS V14.01,2013-09-27 20:09:00,
2013-09-27 13:10:00,85.8,51.7,29.74,WNW,292,3.1,5.8,31,0.00,,---,0.00,VWS V14.01,2013-09-27 20:10:00,
2013-09-27 13:11:00,85.8,53.4,29.74,West,270,2.5,3.8,33,0.00,,---,0.00,VWS V14.01,2013-09-27 20:11:00,
2013-09-27 13:12:00,85.8,53.4,29.74,WNW,292,1.6,5.4,33,0.00,,---,0.00,VWS V14.01,2013-09-27 20:12:00,
2013-09-27 13:13:00,85.8,53.4,29.74,NW,315,3.6,3.6,33,0.00,,---,0.00,VWS V14.01,2013-09-27 20:13:00,
2013-09-27 13:14:00,85.8,53.4,29.74,NW,315,2.0,3.6,33,0.00,,---,0.00,VWS V14.01,2013-09-27 20:14:00,
2013-09-27 13:15:00,83.5,48.8,29.74,SE,135,2.0,3.4,30,0.00,,---,0.00,VWS V14.01,2013-09-27 20:15:00,
2013-09-27 13:16:00,85.8,51.7,29.74,NW,315,4.0,6.5,31,0.00,,---,0.00,VWS V14.01,2013-09-27 20:16:00,
2013-09-27 13:17:00,85.8,51.7,29.74,NW,315,1.6,4.0,31,0.00,,---,0.00,VWS V14.01,2013-09-27 20:17:00,
2013-09-27 13:18:00,85.8,51.7,29.74,NNW,338,2.0,2.0,31,0.00,,---,0.00,VWS V14.01,2013-09-27 20:18:00,
2013-09-27 13:19:00,85.8,51.7,29.74,West,270,5.8,5.8,31,0.00,,---,0.00,VWS V14.01,2013-09-27 20:19:00,
2013-09-27 13:20:00,83.7,50.7,29.74,NNW,338,3.4,4.9,32,0.00,,---,0.00,VWS V14.01,2013-09-27 20:20:00,
2013-09-27 13:21:00,83.5,48.8,29.74,SSW,202,2.2,4.7,30,0.00,,---,0.00,VWS V14.01,2013-09-27 20:21:00,
2013-09-27 13:22:00,83.5,49.7,29.74,SE,135,2.7,3.4,31,0.00,,---,0.00,VWS V14.01,2013-09-27 20:22:00,
2013-09-27 13:23:00,83.7,49.8,29.74,NW,315,4.7,4.7,31,0.00,,---,0.00,VWS V14.01,2013-09-27 20:23:00,
2013-09-27 13:24:00,83.5,48.8,29.74,West,270,2.0,4.7,30,0.00,,---,0.00,VWS V14.01,2013-09-27 20:24:00,
2013-09-27 13:25:00,83.7,50.7,29.74,NNW,338,5.8,5.8,32,0.00,,---,0.00,VWS V14.01,2013-09-27 20:25:00,
2013-09-27 13:26:00,83.7,50.7,29.74,NW,315,1.1,2.5,32,0.00,,---,0.00,VWS V14.01,2013-09-27 20:26:00,
2013-09-27 13:27:00,83.7,50.7,29.74,WNW,292,4.0,4.0,32,0.00,,---,0.00,VWS V14.01,2013-09-27 20:27:00,
2013-09-27 13:28:00,83.7,50.7,29.74,NW,315,5.6,8.1,32,0.00,,---,0.00,VWS V14.01,2013-09-27 20:28:00,
2013-09-27 13:29:00,83.7,50.7,29.74,WNW,292,4.9,5.6,32,0.00,,---,0.00,VWS V14.01,2013-09-27 20:29:00,
2013-09-27 13:30:00,84.2,51.2,29.71,South,180,2.0,3.1,32,0.00,,---,0.00,VWS V14.01,2013-09-27 20:30:00,
2013-09-27 13:31:00,83.7,50.7,29.74,NW,315,2.5,3.6,32,0.00,,---,0.00,VWS V14.01,2013-09-27 20:31:00,
2013-09-27 13:32:00,83.7,50.7,29.74,WSW,248,2.5,3.8,32,0.00,,---,0.00,VWS V14.01,2013-09-27 20:32:00,
2013-09-27 13:33:00,83.7,50.7,29.74,NW,315,1.3,5.6,32,0.00,,---,0.00,VWS V14.01,2013-09-27 20:33:00,
2013-09-27 13:34:00,83.7,50.7,29.74,NNW,338,1.3,3.4,32,0.00,,---,0.00,VWS V14.01,2013-09-27 20:34:00,
2013-09-27 13:35:00,85.1,52.0,29.71,NW,315,2.5,3.6,32,0.00,,---,0.00,VWS V14.01,2013-09-27 20:35:00,
2013-09-27 13:36:00,83.7,50.7,29.71,NW,315,2.0,5.4,32,0.00,,---,0.00,VWS V14.01,2013-09-27 20:36:00,
2013-09-27 13:37:00,83.7,50.7,29.71,NW,315,2.5,2.5,32,0.00,,---,0.00,VWS V14.01,2013-09-27 20:37:00,
2013-09-27 13:38:00,84.7,50.8,29.71,North,0,3.4,3.4,31,0.00,,---,0.00,VWS V14.01,2013-09-27 20:38:00,
2013-09-27 13:39:00,84.7,50.8,29.71,SW,225,3.1,4.0,31,0.00,,---,0.00,VWS V14.01,2013-09-27 20:39:00,
2013-09-27 13:40:00,85.5,52.3,29.71,WNW,292,2.7,5.4,32,0.00,,---,0.00,VWS V14.01,2013-09-27 20:40:00,
2013-09-27 13:41:00,84.6,51.5,29.71,NW,315,2.5,4.0,32,0.00,,---,0.00,VWS V14.01,2013-09-27 20:41:00,
2013-09-27 13:42:00,84.4,50.5,29.71,NNW,338,2.9,5.6,31,0.00,,---,0.00,VWS V14.01,2013-09-27 20:42:00,
2013-09-27 13:43:00,84.6,51.5,29.71,NW,315,2.9,4.3,32,0.00,,---,0.00,VWS V14.01,2013-09-27 20:43:00,
2013-09-27 13:44:00,84.9,51.8,29.71,NW,315,3.4,3.6,32,0.00,,---,0.00,VWS V14.01,2013-09-27 20:44:00,
2013-09-27 13:45:00,84.0,51.0,29.74,NW,315,3.1,5.4,32,0.00,,---,0.00,VWS V14.01,2013-09-27 20:45:00,
2013-09-27 13:46:00,84.7,50.8,29.71,NW,315,2.5,5.6,31,0.00,,---,0.00,VWS V14.01,2013-09-27 20:46:00,
2013-09-27 13:47:00,84.7,50.8,29.71,North,0,3.1,4.9,31,0.00,,---,0.00,VWS V14.01,2013-09-27 20:47:00,
2013-09-27 13:48:00,85.5,52.3,29.71,NW,315,2.2,3.4,32,0.00,,---,0.00,VWS V14.01,2013-09-27 20:48:00,
2013-09-27 13:49:00,85.5,52.3,29.71,NW,315,5.4,6.9,32,0.00,,---,0.00,VWS V14.01,2013-09-27 20:49:00,
2013-09-27 13:50:00,84.7,51.6,29.74,NW,315,3.8,3.8,32,0.00,,---,0.00,VWS V14.01,2013-09-27 20:50:00,
2013-09-27 13:51:00,84.6,50.6,29.74,WNW,292,4.3,4.9,31,0.00,,---,0.00,VWS V14.01,2013-09-27 20:51:00,
2013-09-27 13:52:00,83.8,50.0,29.74,North,0,3.6,7.8,31,0.00,,---,0.00,VWS V14.01,2013-09-27 20:52:00,
2013-09-27 13:53:00,84.0,51.0,29.74,WNW,292,2.9,4.3,32,0.00,,---,0.00,VWS V14.01,2013-09-27 20:53:00,
2013-09-27 13:54:00,84.0,51.0,29.74,WNW,292,5.4,5.4,32,0.00,,---,0.00,VWS V14.01,2013-09-27 20:54:00,
2013-09-27 13:55:00,84.9,51.8,29.74,NNW,338,2.5,2.7,32,0.00,,---,0.00,VWS V14.01,2013-09-27 20:55:00,
2013-09-27 13:56:00,84.2,51.2,29.74,NW,315,2.0,3.8,32,0.00,,---,0.00,VWS V14.01,2013-09-27 20:56:00,
2013-09-27 13:57:00,84.4,51.3,29.74,NNW,338,2.7,3.8,32,0.00,,---,0.00,VWS V14.01,2013-09-27 20:57:00,
2013-09-27 13:58:00,84.6,51.5,29.74,NNW,338,4.0,4.0,32,0.00,,---,0.00,VWS V14.01,2013-09-27 20:58:00,
2013-09-27 13:59:00,84.7,51.7,29.74,NNW,338,1.3,4.0,32,0.00,,---,0.00,VWS V14.01,2013-09-27 20:59:00,
2013-09-27 14:00:00,84.9,52.6,29.74,NW,315,3.4,5.4,33,0.00,,---,0.00,VWS V14.01,2013-09-27 21:00:00,
2013-09-27 14:01:00,84.9,51.8,29.74,NW,315,4.0,4.0,32,0.00,,---,0.00,VWS V14.01,2013-09-27 21:01:00,
2013-09-27 14:02:00,84.9,51.8,29.74,NW,315,3.6,7.2,32,0.00,,---,0.00,VWS V14.01,2013-09-27 21:02:00,
2013-09-27 14:03:00,84.7,51.7,29.74,NNW,338,2.7,4.3,32,0.00,,---,0.00,VWS V14.01,2013-09-27 21:03:00,
2013-09-27 14:04:00,84.9,51.8,29.74,NW,315,2.7,4.0,32,0.00,,---,0.00,VWS V14.01,2013-09-27 21:04:00,
2013-09-27 14:05:00,84.9,52.6,29.74,NW,315,3.1,3.1,33,0.00,,---,0.00,VWS V14.01,2013-09-27 21:05:00,
2013-09-27 14:06:00,84.9,52.6,29.74,North,0,4.0,4.0,33,0.00,,---,0.00,VWS V14.01,2013-09-27 21:06:00,
2013-09-27 14:07:00,84.9,52.6,29.74,North,0,2.9,4.0,33,0.00,,---,0.00,VWS V14.01,2013-09-27 21:07:00,
2013-09-27 14:08:00,84.9,52.6,29.74,NW,315,5.4,5.4,33,0.00,,---,0.00,VWS V14.01,2013-09-27 21:08:00,
2013-09-27 14:09:00,84.9,52.6,29.74,North,0,5.4,5.4,33,0.00,,---,0.00,VWS V14.01,2013-09-27 21:09:00,
2013-09-27 14:10:00,83.5,52.2,29.74,WNW,292,3.4,3.4,34,0.00,,---,0.00,VWS V14.01,2013-09-27 21:10:00,
2013-09-27 14:11:00,84.9,52.6,29.74,WNW,292,2.9,2.9,33,0.00,,---,0.00,VWS V14.01,2013-09-27 21:11:00,
2013-09-27 14:12:00,84.9,52.6,29.74,West,270,4.0,4.0,33,0.00,,---,0.00,VWS V14.01,2013-09-27 21:12:00,
2013-09-27 14:13:00,84.9,52.6,29.74,SW,225,2.5,4.3,33,0.00,,---,0.00,VWS V14.01,2013-09-27 21:13:00,
2013-09-27 14:14:00,84.9,52.6,29.74,WNW,292,1.3,3.4,33,0.00,,---,0.00,VWS V14.01,2013-09-27 21:14:00,
2013-09-27 14:15:00,83.7,53.1,29.74,NNW,338,2.9,3.8,35,0.00,,---,0.00,VWS V14.01,2013-09-27 21:15:00,
2013-09-27 14:16:00,84.9,52.6,29.74,NW,315,4.3,6.3,33,0.00,,---,0.00,VWS V14.01,2013-09-27 21:16:00,
2013-09-27 14:17:00,83.7,52.3,29.74,NW,315,3.1,4.3,34,0.00,,---,0.00,VWS V14.01,2013-09-27 21:17:00,
2013-09-27 14:18:00,83.5,52.2,29.74,WNW,292,3.6,4.0,34,0.00,,---,0.00,VWS V14.01,2013-09-27 21:18:00,
2013-09-27 14:19:00,83.5,52.2,29.74,WSW,248,1.3,3.6,34,0.00,,---,0.00,VWS V14.01,2013-09-27 21:19:00,
2013-09-27 14:20:00,83.7,53.1,29.74,NW,315,2.9,4.9,35,0.00,,---,0.00,VWS V14.01,2013-09-27 21:20:00,
2013-09-27 14:21:00,83.3,52.0,29.74,West,270,5.4,5.4,34,0.00,,---,0.00,VWS V14.01,2013-09-27 21:21:00,
2013-09-27 14:22:00,83.7,52.3,29.74,North,0,4.9,5.4,34,0.00,,---,0.00,VWS V14.01,2013-09-27 21:22:00,
2013-09-27 14:23:00,83.3,52.8,29.74,NNW,338,2.9,4.9,35,0.00,,---,0.00,VWS V14.01,2013-09-27 21:23:00,
2013-09-27 14:24:00,83.7,53.1,29.74,North,0,2.7,4.3,35,0.00,,---,0.00,VWS V14.01,2013-09-27 21:24:00,
2013-09-27 14:25:00,83.3,52.0,29.74,NW,315,3.1,6.0,34,0.00,,---,0.00,VWS V14.01,2013-09-27 21:25:00,
2013-09-27 14:26:00,83.7,53.1,29.74,NW,315,2.7,3.1,35,0.00,,---,0.00,VWS V14.01,2013-09-27 21:26:00,
2013-09-27 14:27:00,83.7,53.1,29.74,NW,315,1.3,2.7,35,0.00,,---,0.00,VWS V14.01,2013-09-27 21:27:00,
2013-09-27 14:28:00,83.7,53.1,29.74,WNW,292,3.8,5.8,35,0.00,,---,0.00,VWS V14.01,2013-09-27 21:28:00,
2013-09-27 14:29:00,83.7,53.1,29.74,NW,315,4.9,5.6,35,0.00,,---,0.00,VWS V14.01,2013-09-27 21:29:00,
2013-09-27 14:30:00,84.2,52.8,29.74,NW,315,2.7,5.4,34,0.00,,---,0.00,VWS V14.01,2013-09-27 21:30:00,
2013-09-27 14:31:00,83.7,53.1,29.74,NW,315,3.1,3.1,35,0.00,,---,0.00,VWS V14.01,2013-09-27 21:31:00,
2013-09-27 14:32:00,83.7,53.1,29.74,WNW,292,3.1,4.7,35,0.00,,---,0.00,VWS V14.01,2013-09-27 21:32:00,
2013-09-27 14:33:00,83.7,53.1,29.74,WNW,292,2.7,4.7,35,0.00,,---,0.00,VWS V14.01,2013-09-27 21:33:00,
2013-09-27 14:34:00,83.3,52.0,29.74,NNW,338,6.0,6.0,34,0.00,,---,0.00,VWS V14.01,2013-09-27 21:34:00,
2013-09-27 14:35:00,84.2,52.8,29.74,NNW,338,5.4,5.4,34,0.00,,---,0.00,VWS V14.01,2013-09-27 21:35:00,
2013-09-27 14:36:00,83.3,52.0,29.74,NW,315,2.0,6.0,34,0.00,,---,0.00,VWS V14.01,2013-09-27 21:36:00,
2013-09-27 14:37:00,84.4,53.8,29.74,WNW,292,3.1,3.1,35,0.00,,---,0.00,VWS V14.01,2013-09-27 21:37:00,
2013-09-27 14:38:00,84.2,52.8,29.74,WNW,292,3.1,3.6,34,0.00,,---,0.00,VWS V14.01,2013-09-27 21:38:00,
2013-09-27 14:39:00,84.2,52.8,29.74,North,0,5.4,6.5,34,0.00,,---,0.00,VWS V14.01,2013-09-27 21:39:00,
2013-09-27 14:40:00,84.0,52.7,29.74,NNW,338,2.0,2.5,34,0.00,,---,0.00,VWS V14.01,2013-09-27 21:40:00,
2013-09-27 14:41:00,84.2,52.8,29.74,NW,315,3.6,5.8,34,0.00,,---,0.00,VWS V14.01,2013-09-27 21:41:00,
2013-09-27 14:42:00,84.2,52.8,29.74,NW,315,3.6,4.9,34,0.00,,---,0.00,VWS V14.01,2013-09-27 21:42:00,
2013-09-27 14:43:00,84.2,52.8,29.74,NW,315,4.0,6.9,34,0.00,,---,0.00,VWS V14.01,2013-09-27 21:43:00,
2013-09-27 14:44:00,84.2,52.8,29.74,WNW,292,4.5,4.5,34,0.00,,---,0.00,VWS V14.01,2013-09-27 21:44:00,
2013-09-27 14:45:00,83.8,51.7,29.74,NW,315,2.7,2.7,33,0.00,,---,0.00,VWS V14.01,2013-09-27 21:45:00,
2013-09-27 14:46:00,84.2,52.8,29.74,NW,315,0.9,3.8,34,0.00,,---,0.00,VWS V14.01,2013-09-27 21:46:00,
2013-09-27 14:47:00,83.8,53.3,29.74,NNW,338,4.3,4.3,35,0.00,,---,0.00,VWS V14.01,2013-09-27 21:47:00,
2013-09-27 14:48:00,84.2,53.6,29.74,North,0,2.0,4.3,35,0.00,,---,0.00,VWS V14.01,2013-09-27 21:48:00,
2013-09-27 14:49:00,84.0,52.7,29.74,NNW,338,2.5,6.0,34,0.00,,---,0.00,VWS V14.01,2013-09-27 21:49:00,
2013-09-27 14:50:00,83.8,51.7,29.74,NW,315,4.0,4.3,33,0.00,,---,0.00,VWS V14.01,2013-09-27 21:50:00,
2013-09-27 14:51:00,84.4,53.0,29.74,WNW,292,2.7,4.0,34,0.00,,---,0.00,VWS V14.01,2013-09-27 21:51:00,
2013-09-27 14:52:00,84.7,53.3,29.74,NW,315,5.6,5.6,34,0.00,,---,0.00,VWS V14.01,2013-09-27 21:52:00,
2013-09-27 14:53:00,84.2,52.0,29.74,NW,315,2.7,5.6,33,0.00,,---,0.00,VWS V14.01,2013-09-27 21:53:00,
2013-09-27 14:54:00,84.0,51.8,29.74,NW,315,2.7,2.9,33,0.00,,---,0.00,VWS V14.01,2013-09-27 21:54:00,
2013-09-27 14:55:00,83.8,52.5,29.74,NW,315,6.7,6.7,34,0.00,,---,0.00,VWS V14.01,2013-09-27 21:55:00,
2013-09-27 14:56:00,84.2,52.0,29.74,NNW,338,1.3,3.6,33,0.00,,---,0.00,VWS V14.01,2013-09-27 21:56:00,
2013-09-27 14:57:00,84.2,52.0,29.74,NW,315,3.1,4.7,33,0.00,,---,0.00,VWS V14.01,2013-09-27 21:57:00,
2013-09-27 14:58:00,84.2,52.0,29.74,NW,315,3.1,3.4,33,0.00,,---,0.00,VWS V14.01,2013-09-27 21:58:00,
2013-09-27 14:59:00,83.8,51.7,29.74,NW,315,4.3,6.3,33,0.00,,---,0.00,VWS V14.01,2013-09-27 21:59:00,
2013-09-27 15:00:00,82.2,51.1,29.74,NNW,338,3.4,4.3,34,0.00,,---,0.00,VWS V14.01,2013-09-27 22:00:00,
2013-09-27 15:01:00,83.8,52.5,29.74,NW,315,2.7,3.4,34,0.00,,---,0.00,VWS V14.01,2013-09-27 22:01:00,
2013-09-27 15:02:00,84.0,52.7,29.74,WNW,292,2.2,3.8,34,0.00,,---,0.00,VWS V14.01,2013-09-27 22:02:00,
2013-09-27 15:03:00,83.8,52.5,29.74,NNW,338,1.6,4.3,34,0.00,,---,0.00,VWS V14.01,2013-09-27 22:03:00,
2013-09-27 15:04:00,83.8,52.5,29.74,WNW,292,3.1,4.9,34,0.00,,---,0.00,VWS V14.01,2013-09-27 22:04:00,
2013-09-27 15:05:00,82.2,51.1,29.74,NW,315,5.6,5.6,34,0.00,,---,0.00,VWS V14.01,2013-09-27 22:05:00,
2013-09-27 15:06:00,82.2,51.1,29.74,WNW,292,3.8,4.0,34,0.00,,---,0.00,VWS V14.01,2013-09-27 22:06:00,
2013-09-27 15:07:00,82.2,51.1,29.74,NNW,338,1.6,3.8,34,0.00,,---,0.00,VWS V14.01,2013-09-27 22:07:00,
2013-09-27 15:08:00,82.2,51.1,29.74,North,0,1.3,3.8,34,0.00,,---,0.00,VWS V14.01,2013-09-27 22:08:00,
2013-09-27 15:09:00,82.2,51.1,29.74,NW,315,4.3,4.7,34,0.00,,---,0.00,VWS V14.01,2013-09-27 22:09:00,
2013-09-27 15:10:00,81.0,53.0,29.74,WNW,292,3.1,3.1,38,0.00,,---,0.00,VWS V14.01,2013-09-27 22:10:00,
2013-09-27 15:11:00,82.2,51.1,29.74,WNW,292,4.7,4.7,34,0.00,,---,0.00,VWS V14.01,2013-09-27 22:11:00,
2013-09-27 15:12:00,82.2,51.1,29.74,WNW,292,2.7,5.4,34,0.00,,---,0.00,VWS V14.01,2013-09-27 22:12:00,
2013-09-27 15:13:00,82.2,51.1,29.74,NW,315,4.3,4.3,34,0.00,,---,0.00,VWS V14.01,2013-09-27 22:13:00,
2013-09-27 15:14:00,82.2,51.1,29.74,NW,315,5.6,5.6,34,0.00,,---,0.00,VWS V14.01,2013-09-27 22:14:00,
2013-09-27 15:15:00,80.2,53.1,29.74,WNW,292,2.2,6.0,39,0.00,,---,0.00,VWS V14.01,2013-09-27 22:15:00,
2013-09-27 15:16:00,82.2,51.1,29.74,NW,315,3.6,5.4,34,0.00,,---,0.00,VWS V14.01,2013-09-27 22:16:00,
2013-09-27 15:17:00,82.2,51.1,29.74,NW,315,4.7,4.7,34,0.00,,---,0.00,VWS V14.01,2013-09-27 22:17:00,
2013-09-27 15:18:00,80.6,52.7,29.74,NW,315,3.1,4.9,38,0.00,,---,0.00,VWS V14.01,2013-09-27 22:18:00,
2013-09-27 15:19:00,81.0,53.0,29.74,NW,315,2.5,3.4,38,0.00,,---,0.00,VWS V14.01,2013-09-27 22:19:00,
2013-09-27 15:20:00,80.8,53.5,29.74,NW,315,2.9,5.8,39,0.00,,---,0.00,VWS V14.01,2013-09-27 22:20:00,
2013-09-27 15:21:00,81.0,53.7,29.74,NW,315,6.5,6.5,39,0.00,,---,0.00,VWS V14.01,2013-09-27 22:21:00,
2013-09-27 15:22:00,80.4,53.2,29.74,NW,315,4.3,7.2,39,0.00,,---,0.00,VWS V14.01,2013-09-27 22:22:00,
2013-09-27 15:23:00,80.4,53.2,29.74,WNW,292,6.0,6.0,39,0.00,,---,0.00,VWS V14.01,2013-09-27 22:23:00,
2013-09-27 15:24:00,80.2,53.1,29.74,WNW,292,2.2,6.0,39,0.00,,---,0.00,VWS V14.01,2013-09-27 22:24:00,
2013-09-27 15:25:00,80.2,53.1,29.74,North,0,1.1,6.0,39,0.00,,---,0.00,VWS V14.01,2013-09-27 22:25:00,
2013-09-27 15:26:00,80.6,53.4,29.74,WNW,292,3.4,5.4,39,0.00,,---,0.00,VWS V14.01,2013-09-27 22:26:00,
2013-09-27 15:28:00,80.6,53.4,29.74,NNW,338,2.7,2.7,39,0.00,,---,0.00,VWS V14.01,2013-09-27 22:28:00,
2013-09-27 15:29:00,80.6,53.4,29.74,NW,315,3.6,3.6,39,0.00,,---,0.00,VWS V14.01,2013-09-27 22:29:00,
2013-09-27 15:30:00,80.6,53.4,29.74,WNW,292,5.4,5.4,39,0.00,,---,0.00,VWS V14.01,2013-09-27 22:30:00,
2013-09-27 15:31:00,80.6,53.4,29.74,NW,315,2.9,5.4,39,0.00,,---,0.00,VWS V14.01,2013-09-27 22:31:00,
2013-09-27 15:32:00,80.6,53.4,29.74,WNW,292,2.0,2.9,39,0.00,,---,0.00,VWS V14.01,2013-09-27 22:32:00,
2013-09-27 15:33:00,80.6,53.4,29.74,North,0,3.6,3.6,39,0.00,,---,0.00,VWS V14.01,2013-09-27 22:33:00,
2013-09-27 15:34:00,79.9,53.4,29.74,NNW,338,4.9,4.9,40,0.00,,---,0.00,VWS V14.01,2013-09-27 22:34:00,
2013-09-27 15:35:00,79.9,53.4,29.74,NW,315,2.0,4.9,40,0.00,,---,0.00,VWS V14.01,2013-09-27 22:35:00,
2013-09-27 15:36:00,79.9,53.4,29.74,NW,315,3.4,3.4,40,0.00,,---,0.00,VWS V14.01,2013-09-27 22:36:00,
2013-09-27 15:37:00,79.9,53.4,29.74,NW,315,6.3,6.3,40,0.00,,---,0.00,VWS V14.01,2013-09-27 22:37:00,
2013-09-27 15:38:00,79.9,53.4,29.74,NW,315,4.0,6.3,40,0.00,,---,0.00,VWS V14.01,2013-09-27 22:38:00,
2013-09-27 15:39:00,79.9,53.4,29.74,WNW,292,2.0,4.0,40,0.00,,---,0.00,VWS V14.01,2013-09-27 22:39:00,
2013-09-27 15:40:00,79.9,53.4,29.74,NNW,338,3.6,3.6,40,0.00,,---,0.00,VWS V14.01,2013-09-27 22:40:00,
2013-09-27 15:41:00,79.9,53.4,29.74,NW,315,2.9,3.6,40,0.00,,---,0.00,VWS V14.01,2013-09-27 22:41:00,
2013-09-27 15:42:00,79.9,53.4,29.74,NW,315,2.9,2.9,40,0.00,,---,0.00,VWS V14.01,2013-09-27 22:42:00,
2013-09-27 15:43:00,79.9,53.4,29.74,North,0,1.3,2.9,40,0.00,,---,0.00,VWS V14.01,2013-09-27 22:43:00,
2013-09-27 15:44:00,79.9,53.4,29.74,NNW,338,3.6,3.6,40,0.00,,---,0.00,VWS V14.01,2013-09-27 22:44:00,
2013-09-27 15:45:00,79.9,53.4,29.74,NW,315,2.9,3.6,40,0.00,,---,0.00,VWS V14.01,2013-09-27 22:45:00,
2013-09-27 15:46:00,79.9,53.4,29.74,NW,315,2.7,2.9,40,0.00,,---,0.00,VWS V14.01,2013-09-27 22:46:00,
2013-09-27 15:47:00,80.8,53.5,29.74,NW,315,3.1,3.1,39,0.00,,---,0.00,VWS V14.01,2013-09-27 22:47:00,
2013-09-27 15:48:00,80.8,53.5,29.74,WNW,292,2.5,3.1,39,0.00,,---,0.00,VWS V14.01,2013-09-27 22:48:00,
2013-09-27 15:49:00,80.8,53.5,29.74,NNW,338,3.1,3.1,39,0.00,,---,0.00,VWS V14.01,2013-09-27 22:49:00,
2013-09-27 15:50:00,80.8,53.5,29.74,WSW,248,2.0,3.1,39,0.00,,---,0.00,VWS V14.01,2013-09-27 22:50:00,
2013-09-27 15:51:00,80.8,53.5,29.74,WNW,292,2.5,2.5,39,0.00,,---,0.00,VWS V14.01,2013-09-27 22:51:00,
2013-09-27 15:52:00,80.8,53.5,29.74,NW,315,2.0,2.5,39,0.00,,---,0.00,VWS V14.01,2013-09-27 22:52:00,
2013-09-27 15:53:00,80.8,53.5,29.74,NNE,22,1.6,2.0,39,0.00,,---,0.00,VWS V14.01,2013-09-27 22:53:00,
2013-09-27 15:54:00,82.2,55.5,29.74,NNE,22,3.4,3.4,40,0.00,,---,0.00,VWS V14.01,2013-09-27 22:54:00,
2013-09-27 15:55:00,82.0,55.4,29.74,NNW,338,2.5,3.4,40,0.00,,---,0.00,VWS V14.01,2013-09-27 22:55:00,
2013-09-27 15:56:00,81.7,54.3,29.74,NNW,338,3.4,3.4,39,0.00,,---,0.00,VWS V14.01,2013-09-27 22:56:00,
2013-09-27 15:57:00,81.7,54.3,29.74,NNW,338,2.5,3.4,39,0.00,,---,0.00,VWS V14.01,2013-09-27 22:57:00,
2013-09-27 15:58:00,81.7,54.3,29.74,West,270,1.3,2.5,39,0.00,,---,0.00,VWS V14.01,2013-09-27 22:58:00,
2013-09-27 15:59:00,81.7,54.3,29.74,NW,315,3.4,3.4,39,0.00,,---,0.00,VWS V14.01,2013-09-27 22:59:00,
2013-09-27 16:00:00,81.7,54.3,29.74,NNW,338,4.7,4.7,39,0.00,,---,0.00,VWS V14.01,2013-09-27 23:00:00,
2013-09-27 16:01:00,81.7,54.3,29.74,NNW,338,3.4,4.7,39,0.00,,---,0.00,VWS V14.01,2013-09-27 23:01:00,
2013-09-27 16:02:00,82.0,55.4,29.74,WNW,292,3.6,3.6,40,0.00,,---,0.00,VWS V14.01,2013-09-27 23:02:00,
2013-09-27 16:03:00,82.0,55.4,29.74,NW,315,3.6,3.6,40,0.00,,---,0.00,VWS V14.01,2013-09-27 23:03:00,
2013-09-27 16:04:00,82.0,55.4,29.74,NW,315,3.1,3.6,40,0.00,,---,0.00,VWS V14.01,2013-09-27 23:04:00,
2013-09-27 16:05:00,82.0,55.4,29.74,WNW,292,2.7,3.1,40,0.00,,---,0.00,VWS V14.01,2013-09-27 23:05:00,
2013-09-27 16:06:00,82.0,55.4,29.74,West,270,2.5,2.7,40,0.00,,---,0.00,VWS V14.01,2013-09-27 23:06:00,
2013-09-27 16:07:00,82.0,55.4,29.74,NW,315,6.0,6.0,40,0.00,,---,0.00,VWS V14.01,2013-09-27 23:07:00,
2013-09-27 16:08:00,82.0,55.4,29.74,NW,315,3.4,6.0,40,0.00,,---,0.00,VWS V14.01,2013-09-27 23:08:00,
2013-09-27 16:09:00,81.0,54.4,29.74,WNW,292,3.1,3.4,40,0.00,,---,0.00,VWS V14.01,2013-09-27 23:09:00,
2013-09-27 16:10:00,81.0,54.4,29.74,SSW,202,2.0,3.1,40,0.00,,---,0.00,VWS V14.01,2013-09-27 23:10:00,
2013-09-27 16:11:00,81.3,54.7,29.74,NW,315,3.6,3.6,40,0.00,,---,0.00,VWS V14.01,2013-09-27 23:11:00,
2013-09-27 16:12:00,81.5,54.9,29.74,NW,315,3.8,3.8,40,0.00,,---,0.00,VWS V14.01,2013-09-27 23:12:00,
2013-09-27 16:13:00,81.5,54.9,29.74,NNE,22,3.1,3.8,40,0.00,,---,0.00,VWS V14.01,2013-09-27 23:13:00,
2013-09-27 16:14:00,81.9,55.2,29.74,NNW,338,2.0,3.1,40,0.00,,---,0.00,VWS V14.01,2013-09-27 23:14:00,
2013-09-27 16:15:00,81.7,55.0,29.74,WNW,292,4.3,4.3,40,0.00,,---,0.00,VWS V14.01,2013-09-27 23:15:00,
2013-09-27 16:16:00,81.5,54.9,29.74,NNW,338,5.8,5.8,40,0.00,,---,0.00,VWS V14.01,2013-09-27 23:16:00,
2013-09-27 16:17:00,81.3,54.7,29.74,WNW,292,4.7,5.8,40,0.00,,---,0.00,VWS V14.01,2013-09-27 23:17:00,
2013-09-27 16:18:00,81.3,54.7,29.74,North,0,4.3,4.7,40,0.00,,---,0.00,VWS V14.01,2013-09-27 23:18:00,
2013-09-27 16:19:00,81.1,54.5,29.74,NNW,338,1.6,4.3,40,0.00,,---,0.00,VWS V14.01,2013-09-27 23:19:00,
2013-09-27 16:20:00,81.1,54.5,29.74,NW,315,6.3,6.3,40,0.00,,---,0.00,VWS V14.01,2013-09-27 23:20:00,
2013-09-27 16:21:00,81.5,55.5,29.74,WNW,292,2.9,6.3,41,0.00,,---,0.00,VWS V14.01,2013-09-27 23:21:00,
2013-09-27 16:22:00,81.7,55.7,29.74,NW,315,4.7,4.7,41,0.00,,---,0.00,VWS V14.01,2013-09-27 23:22:00,
2013-09-27 16:23:00,81.5,54.9,29.74,North,0,2.0,4.7,40,0.00,,---,0.00,VWS V14.01,2013-09-27 23:23:00,
2013-09-27 16:24:00,81.7,55.0,29.74,WNW,292,4.3,4.3,40,0.00,,---,0.00,VWS V14.01,2013-09-27 23:24:00,
2013-09-27 16:25:00,81.7,55.0,29.74,WNW,292,4.3,4.3,40,0.00,,---,0.00,VWS V14.01,2013-09-27 23:25:00,
2013-09-27 16:26:00,81.1,54.5,29.74,NW,315,3.4,4.3,40,0.00,,---,0.00,VWS V14.01,2013-09-27 23:26:00,
2013-09-27 16:27:00,81.3,54.7,29.74,NW,315,2.7,3.4,40,0.00,,---,0.00,VWS V14.01,2013-09-27 23:27:00,
2013-09-27 16:28:00,81.3,54.7,29.74,NE,45,2.0,2.7,40,0.00,,---,0.00,VWS V14.01,2013-09-27 23:28:00,
2013-09-27 16:29:00,81.5,54.9,29.74,NW,315,3.1,3.1,40,0.00,,---,0.00,VWS V14.01,2013-09-27 23:29:00,
2013-09-27 16:30:00,81.5,54.9,29.74,NW,315,2.0,3.1,40,0.00,,---,0.00,VWS V14.01,2013-09-27 23:30:00,
2013-09-27 16:31:00,81.0,54.4,29.74,WNW,292,4.7,4.7,40,0.00,,---,0.00,VWS V14.01,2013-09-27 23:31:00,
2013-09-27 16:32:00,80.8,54.2,29.74,NW,315,2.7,4.7,40,0.00,,---,0.00,VWS V14.01,2013-09-27 23:32:00,
2013-09-27 16:33:00,80.8,54.9,29.74,NW,315,2.9,2.9,41,0.00,,---,0.00,VWS V14.01,2013-09-27 23:33:00,
2013-09-27 16:34:00,80.6,54.8,29.74,WNW,292,3.4,3.4,41,0.00,,---,0.00,VWS V14.01,2013-09-27 23:34:00,
2013-09-27 16:35:00,80.8,54.9,29.74,WNW,292,3.4,3.4,41,0.00,,---,0.00,VWS V14.01,2013-09-27 23:35:00,
2013-09-27 16:36:00,80.2,55.1,29.74,North,0,3.6,3.6,42,0.00,,---,0.00,VWS V14.01,2013-09-27 23:36:00,
2013-09-27 16:37:00,80.2,55.1,29.74,NW,315,4.9,4.9,42,0.00,,---,0.00,VWS V14.01,2013-09-27 23:37:00,
2013-09-27 16:38:00,79.9,55.4,29.74,WNW,292,2.7,4.9,43,0.00,,---,0.00,VWS V14.01,2013-09-27 23:38:00,
2013-09-27 16:39:00,79.7,55.2,29.74,NW,315,3.8,3.8,43,0.00,,---,0.00,VWS V14.01,2013-09-27 23:39:00,
2013-09-27 16:40:00,79.7,55.2,29.74,NW,315,3.6,3.8,43,0.00,,---,0.00,VWS V14.01,2013-09-27 23:40:00,
2013-09-27 16:41:00,79.7,55.2,29.74,NW,315,2.9,3.6,43,0.00,,---,0.00,VWS V14.01,2013-09-27 23:41:00,
2013-09-27 16:42:00,79.7,55.2,29.74,NW,315,4.3,4.3,43,0.00,,---,0.00,VWS V14.01,2013-09-27 23:42:00,
2013-09-27 16:43:00,79.9,55.4,29.74,North,0,2.5,4.3,43,0.00,,---,0.00,VWS V14.01,2013-09-27 23:43:00,
2013-09-27 16:44:00,79.9,55.4,29.74,NNW,338,3.8,3.8,43,0.00,,---,0.00,VWS V14.01,2013-09-27 23:44:00,
2013-09-27 16:45:00,79.9,55.4,29.74,NNW,338,4.3,4.3,43,0.00,,---,0.00,VWS V14.01,2013-09-27 23:45:00,
2013-09-27 16:46:00,79.9,54.8,29.74,NW,315,2.5,4.3,42,0.00,,---,0.00,VWS V14.01,2013-09-27 23:46:00,
2013-09-27 16:47:00,80.1,54.9,29.74,North,0,0.9,2.5,42,0.00,,---,0.00,VWS V14.01,2013-09-27 23:47:00,
2013-09-27 16:48:00,80.1,54.9,29.74,North,0,1.1,1.1,42,0.00,,---,0.00,VWS V14.01,2013-09-27 23:48:00,
2013-09-27 16:49:00,80.1,54.9,29.74,North,0,2.2,2.2,42,0.00,,---,0.00,VWS V14.01,2013-09-27 23:49:00,
2013-09-27 16:50:00,80.1,54.9,29.74,North,0,1.6,2.2,42,0.00,,---,0.00,VWS V14.01,2013-09-27 23:50:00,
2013-09-27 16:51:00,80.1,54.9,29.74,NW,315,1.6,1.6,42,0.00,,---,0.00,VWS V14.01,2013-09-27 23:51:00,
2013-09-27 16:52:00,80.1,54.9,29.74,NW,315,3.1,3.1,42,0.00,,---,0.00,VWS V14.01,2013-09-27 23:52:00,
2013-09-27 16:53:00,80.1,54.9,29.74,North,0,1.6,3.1,42,0.00,,---,0.00,VWS V14.01,2013-09-27 23:53:00,
2013-09-27 16:54:00,80.1,54.9,29.74,North,0,0.0,1.6,42,0.00,,---,0.00,VWS V14.01,2013-09-27 23:54:00,
2013-09-27 16:55:00,80.1,54.9,29.74,NW,315,4.0,4.0,42,0.00,,---,0.00,VWS V14.01,2013-09-27 23:55:00,
2013-09-27 16:56:00,80.1,54.9,29.74,North,0,1.6,4.0,42,0.00,,---,0.00,VWS V14.01,2013-09-27 23:56:00,
2013-09-27 16:57:00,80.1,54.9,29.74,NW,315,3.1,3.1,42,0.00,,---,0.00,VWS V14.01,2013-09-27 23:57:00,
2013-09-27 16:58:00,80.1,54.9,29.74,NW,315,2.9,3.1,42,0.00,,---,0.00,VWS V14.01,2013-09-27 23:58:00,
2013-09-27 16:59:00,80.1,54.9,29.74,NW,315,2.7,2.9,42,0.00,,---,0.00,VWS V14.01,2013-09-27 23:59:00,
2013-09-27 17:00:00,80.1,54.9,29.74,NW,315,3.4,3.4,42,0.00,,---,0.00,VWS V14.01,2013-09-28 00:00:00,
2013-09-27 17:01:00,80.1,54.9,29.74,NNE,22,2.0,3.4,42,0.00,,---,0.00,VWS V14.01,2013-09-28 00:01:00,
2013-09-27 17:02:00,80.1,54.9,29.74,NNW,338,2.0,2.0,42,0.00,,---,0.00,VWS V14.01,2013-09-28 00:02:00,
2013-09-27 17:03:00,80.1,54.9,29.74,WNW,292,3.1,3.1,42,0.00,,---,0.00,VWS V14.01,2013-09-28 00:03:00,
2013-09-27 17:04:00,80.1,54.9,29.74,NW,315,2.9,3.1,42,0.00,,---,0.00,VWS V14.01,2013-09-28 00:04:00,
2013-09-27 17:05:00,79.7,53.3,29.74,WNW,292,4.9,4.9,40,0.00,,---,0.00,VWS V14.01,2013-09-28 00:05:00,
2013-09-27 17:06:00,79.7,53.3,29.74,WNW,292,2.9,4.9,40,0.00,,---,0.00,VWS V14.01,2013-09-28 00:06:00,
2013-09-27 17:07:00,79.7,53.3,29.74,NW,315,6.3,6.3,40,0.00,,---,0.00,VWS V14.01,2013-09-28 00:07:00,
2013-09-27 17:08:00,79.7,53.3,29.74,NW,315,3.1,6.3,40,0.00,,---,0.00,VWS V14.01,2013-09-28 00:08:00,
2013-09-27 17:09:00,79.7,53.3,29.74,WNW,292,5.8,5.8,40,0.00,,---,0.00,VWS V14.01,2013-09-28 00:09:00,
2013-09-27 17:10:00,79.7,53.3,29.74,WNW,292,4.3,5.8,40,0.00,,---,0.00,VWS V14.01,2013-09-28 00:10:00,
2013-09-27 17:11:00,79.7,53.3,29.74,WNW,292,3.8,4.3,40,0.00,,---,0.00,VWS V14.01,2013-09-28 00:11:00,
2013-09-27 17:12:00,79.7,53.3,29.74,WNW,292,2.7,3.8,40,0.00,,---,0.00,VWS V14.01,2013-09-28 00:12:00,
2013-09-27 17:13:00,79.7,53.3,29.74,NW,315,1.6,2.7,40,0.00,,---,0.00,VWS V14.01,2013-09-28 00:13:00,
2013-09-27 17:14:00,79.7,53.3,29.74,NW,315,2.5,2.5,40,0.00,,---,0.00,VWS V14.01,2013-09-28 00:14:00,
2013-09-27 17:15:00,79.7,53.3,29.74,WNW,292,3.4,3.4,40,0.00,,---,0.00,VWS V14.01,2013-09-28 00:15:00,
2013-09-27 17:16:00,79.7,53.3,29.74,NW,315,4.9,4.9,40,0.00,,---,0.00,VWS V14.01,2013-09-28 00:16:00,
2013-09-27 17:17:00,79.7,53.3,29.74,NW,315,3.6,4.9,40,0.00,,---,0.00,VWS V14.01,2013-09-28 00:17:00,
2013-09-27 17:18:00,78.1,52.5,29.74,NW,315,3.4,3.6,41,0.00,,---,0.00,VWS V14.01,2013-09-28 00:18:00,
2013-09-27 17:19:00,78.1,53.2,29.74,WNW,292,2.5,3.4,42,0.00,,---,0.00,VWS V14.01,2013-09-28 00:19:00,
2013-09-27 17:20:00,78.1,53.2,29.74,NW,315,3.1,3.1,42,0.00,,---,0.00,VWS V14.01,2013-09-28 00:20:00,
2013-09-27 17:21:00,78.1,53.2,29.74,WNW,292,4.0,4.0,42,0.00,,---,0.00,VWS V14.01,2013-09-28 00:21:00,
2013-09-27 17:22:00,77.9,52.3,29.74,NW,315,4.7,4.7,41,0.00,,---,0.00,VWS V14.01,2013-09-28 00:22:00,
2013-09-27 17:23:00,77.9,52.3,29.74,NNW,338,2.0,4.7,41,0.00,,---,0.00,VWS V14.01,2013-09-28 00:23:00,
2013-09-27 17:24:00,77.9,53.0,29.74,NW,315,2.0,2.0,42,0.00,,---,0.00,VWS V14.01,2013-09-28 00:24:00,
2013-09-27 17:25:00,77.9,53.0,29.74,WNW,292,4.9,4.9,42,0.00,,---,0.00,VWS V14.01,2013-09-28 00:25:00,
2013-09-27 17:26:00,77.5,52.7,29.74,WNW,292,3.8,4.9,42,0.00,,---,0.00,VWS V14.01,2013-09-28 00:26:00,
2013-09-27 17:27:00,77.7,52.8,29.74,NNW,338,2.9,3.8,42,0.00,,---,0.00,VWS V14.01,2013-09-28 00:27:00,
2013-09-27 17:28:00,77.7,52.8,29.74,NW,315,3.8,3.8,42,0.00,,---,0.00,VWS V14.01,2013-09-28 00:28:00,
2013-09-27 17:29:00,77.7,52.8,29.74,NW,315,2.9,3.8,42,0.00,,---,0.00,VWS V14.01,2013-09-28 00:29:00,
2013-09-27 17:30:00,77.4,52.5,29.74,NW,315,4.9,4.9,42,0.00,,---,0.00,VWS V14.01,2013-09-28 00:30:00,
2013-09-27 17:31:00,77.4,53.1,29.74,NW,315,3.6,4.9,43,0.00,,---,0.00,VWS V14.01,2013-09-28 00:31:00,
2013-09-27 17:32:00,77.4,53.1,29.74,NW,315,3.1,3.6,43,0.00,,---,0.00,VWS V14.01,2013-09-28 00:32:00,
2013-09-27 17:33:00,77.5,53.3,29.74,NW,315,3.8,3.8,43,0.00,,---,0.00,VWS V14.01,2013-09-28 00:33:00,
2013-09-27 17:34:00,77.5,53.3,29.74,North,0,2.5,3.8,43,0.00,,---,0.00,VWS V14.01,2013-09-28 00:34:00,
2013-09-27 17:35:00,77.4,53.1,29.74,NW,315,2.9,2.9,43,0.00,,---,0.00,VWS V14.01,2013-09-28 00:35:00,
2013-09-27 17:36:00,77.5,53.9,29.74,NW,315,1.3,2.9,44,0.00,,---,0.00,VWS V14.01,2013-09-28 00:36:00,
2013-09-27 17:37:00,77.5,53.9,29.74,North,0,2.7,2.7,44,0.00,,---,0.00,VWS V14.01,2013-09-28 00:37:00,
2013-09-27 17:38:00,77.5,53.9,29.74,WNW,292,2.5,2.7,44,0.00,,---,0.00,VWS V14.01,2013-09-28 00:38:00,
2013-09-27 17:39:00,77.5,53.9,29.74,NW,315,4.0,4.0,44,0.00,,---,0.00,VWS V14.01,2013-09-28 00:39:00,
2013-09-27 17:40:00,77.5,53.9,29.74,NNW,338,2.9,4.0,44,0.00,,---,0.00,VWS V14.01,2013-09-28 00:40:00,
2013-09-27 17:41:00,77.5,53.9,29.74,NW,315,2.5,2.9,44,0.00,,---,0.00,VWS V14.01,2013-09-28 00:41:00,
2013-09-27 17:42:00,77.5,53.9,29.74,WNW,292,2.0,2.5,44,0.00,,---,0.00,VWS V14.01,2013-09-28 00:42:00,
2013-09-27 17:43:00,77.5,53.9,29.74,WNW,292,6.0,6.0,44,0.00,,---,0.00,VWS V14.01,2013-09-28 00:43:00,
2013-09-27 17:44:00,77.5,53.9,29.74,West,270,3.4,6.0,44,0.00,,---,0.00,VWS V14.01,2013-09-28 00:44:00,
2013-09-27 17:45:00,77.5,53.9,29.74,WNW,292,2.2,3.4,44,0.00,,---,0.00,VWS V14.01,2013-09-28 00:45:00,
2013-09-27 17:46:00,77.5,53.9,29.74,North,0,1.1,2.2,44,0.00,,---,0.00,VWS V14.01,2013-09-28 00:46:00,
2013-09-27 17:47:00,77.5,53.9,29.74,NNW,338,0.9,1.1,44,0.00,,---,0.00,VWS V14.01,2013-09-28 00:47:00,
2013-09-27 17:48:00,77.5,53.9,29.74,NNW,338,2.5,2.5,44,0.00,,---,0.00,VWS V14.01,2013-09-28 00:48:00,
2013-09-27 17:49:00,77.5,53.9,29.74,NW,315,0.9,2.5,44,0.00,,---,0.00,VWS V14.01,2013-09-28 00:49:00,
2013-09-27 17:50:00,77.5,53.9,29.74,NW,315,2.9,2.9,44,0.00,,---,0.00,VWS V14.01,2013-09-28 00:50:00,
2013-09-27 17:51:00,77.5,53.9,29.74,NW,315,1.6,2.9,44,0.00,,---,0.00,VWS V14.01,2013-09-28 00:51:00,
2013-09-27 17:52:00,77.5,53.9,29.74,NW,315,1.6,1.6,44,0.00,,---,0.00,VWS V14.01,2013-09-28 00:52:00,
2013-09-27 17:53:00,77.5,53.9,29.74,North,0,1.3,1.6,44,0.00,,---,0.00,VWS V14.01,2013-09-28 00:53:00,
2013-09-27 17:54:00,77.5,53.9,29.74,NNE,22,1.3,1.3,44,0.00,,---,0.00,VWS V14.01,2013-09-28 00:54:00,
2013-09-27 17:55:00,77.5,53.9,29.74,NNE,22,1.1,1.3,44,0.00,,---,0.00,VWS V14.01,2013-09-28 00:55:00,
2013-09-27 17:56:00,77.5,53.9,29.74,North,0,1.6,1.6,44,0.00,,---,0.00,VWS V14.01,2013-09-28 00:56:00,
2013-09-27 17:57:00,77.5,53.9,29.74,NW,315,1.3,1.6,44,0.00,,---,0.00,VWS V14.01,2013-09-28 00:57:00,
2013-09-27 17:58:00,76.5,54.8,29.74,NNW,338,2.0,2.0,47,0.00,,---,0.00,VWS V14.01,2013-09-28 00:58:00,
2013-09-27 17:59:00,76.5,54.8,29.74,North,0,2.0,2.0,47,0.00,,---,0.00,VWS V14.01,2013-09-28 00:59:00,
2013-09-27 18:00:00,76.5,54.8,29.74,North,0,1.3,2.0,47,0.00,,---,0.00,VWS V14.01,2013-09-28 01:00:00,
2013-09-27 18:01:00,76.5,54.8,29.74,North,0,1.6,1.6,47,0.00,,---,0.00,VWS V14.01,2013-09-28 01:01:00,
2013-09-27 18:02:00,76.5,54.8,29.74,North,0,0.0,1.6,47,0.00,,---,0.00,VWS V14.01,2013-09-28 01:02:00,
2013-09-27 18:03:00,76.5,54.8,29.74,NW,315,0.9,0.9,47,0.00,,---,0.00,VWS V14.01,2013-09-28 01:03:00,
2013-09-27 18:04:00,76.5,54.8,29.74,WNW,292,2.0,2.0,47,0.00,,---,0.00,VWS V14.01,2013-09-28 01:04:00,
2013-09-27 18:05:00,76.5,54.8,29.71,NW,315,2.7,2.7,47,0.00,,---,0.00,VWS V14.01,2013-09-28 01:05:00,
2013-09-27 18:06:00,74.7,55.3,29.71,WNW,292,2.5,2.7,51,0.00,,---,0.00,VWS V14.01,2013-09-28 01:06:00,
2013-09-27 18:07:00,74.3,55.6,29.71,NW,315,3.1,3.1,52,0.00,,---,0.00,VWS V14.01,2013-09-28 01:07:00,
2013-09-27 18:16:00,73.0,55.4,29.71,North,0,2.2,3.1,54,0.00,,---,0.00,VWS V14.01,2013-09-28 01:16:00,
2013-09-27 18:17:00,73.0,55.4,29.71,North,0,1.3,2.2,54,0.00,,---,0.00,VWS V14.01,2013-09-28 01:17:00,
2013-09-27 18:18:00,73.0,55.4,29.71,North,0,1.6,1.6,54,0.00,,---,0.00,VWS V14.01,2013-09-28 01:18:00,
2013-09-27 18:19:00,73.0,55.4,29.71,North,0,1.6,1.6,54,0.00,,---,0.00,VWS V14.01,2013-09-28 01:19:00,
2013-09-27 18:20:00,72.1,56.6,29.74,North,0,1.1,1.6,58,0.00,,---,0.00,VWS V14.01,2013-09-28 01:20:00,
2013-09-27 18:21:00,72.1,56.6,29.74,North,0,0.9,1.1,58,0.00,,---,0.00,VWS V14.01,2013-09-28 01:21:00,
2013-09-27 18:22:00,71.8,56.7,29.74,NW,315,0.0,0.9,59,0.00,,---,0.00,VWS V14.01,2013-09-28 01:22:00,
2013-09-27 18:23:00,71.8,56.7,29.74,NW,315,2.0,2.0,59,0.00,,---,0.00,VWS V14.01,2013-09-28 01:23:00,
2013-09-27 18:24:00,71.6,57.0,29.74,WNW,292,2.7,2.7,60,0.00,,---,0.00,VWS V14.01,2013-09-28 01:24:00,
2013-09-27 18:25:00,71.4,57.3,29.74,North,0,1.3,2.7,61,0.00,,---,0.00,VWS V14.01,2013-09-28 01:25:00,
2013-09-27 18:26:00,71.4,57.3,29.74,WNW,292,1.6,1.6,61,0.00,,---,0.00,VWS V14.01,2013-09-28 01:26:00,
2013-09-27 18:27:00,71.2,57.1,29.74,North,0,1.6,1.6,61,0.00,,---,0.00,VWS V14.01,2013-09-28 01:27:00,
2013-09-27 18:28:00,71.2,57.1,29.74,North,0,0.0,1.6,61,0.00,,---,0.00,VWS V14.01,2013-09-28 01:28:00,
2013-09-27 18:29:00,71.2,57.1,29.74,NW,315,1.1,1.1,61,0.00,,---,0.00,VWS V14.01,2013-09-28 01:29:00,
2013-09-27 18:30:00,71.2,57.1,29.74,WNW,292,1.1,1.1,61,0.00,,---,0.00,VWS V14.01,2013-09-28 01:30:00,
2013-09-27 18:31:00,71.2,57.1,29.74,NW,315,0.9,1.1,61,0.00,,---,0.00,VWS V14.01,2013-09-28 01:31:00,
2013-09-27 18:32:00,71.2,57.1,29.74,NW,315,0.0,0.9,61,0.00,,---,0.00,VWS V14.01,2013-09-28 01:32:00,
2013-09-27 18:33:00,71.2,57.1,29.74,NW,315,0.0,0.0,61,0.00,,---,0.00,VWS V14.01,2013-09-28 01:33:00,
2013-09-27 18:34:00,71.2,57.1,29.74,NW,315,1.1,1.1,61,0.00,,---,0.00,VWS V14.01,2013-09-28 01:34:00,
2013-09-27 18:35:00,71.2,57.1,29.71,NW,315,2.0,2.0,61,0.00,,---,0.00,VWS V14.01,2013-09-28 01:35:00,
2013-09-27 18:36:00,71.2,57.1,29.71,NNE,22,0.9,2.0,61,0.00,,---,0.00,VWS V14.01,2013-09-28 01:36:00,
2013-09-27 18:37:00,71.2,57.1,29.71,NW,315,0.0,0.9,61,0.00,,---,0.00,VWS V14.01,2013-09-28 01:37:00,
2013-09-27 18:38:00,71.2,57.1,29.71,North,0,0.0,0.0,61,0.00,,---,0.00,VWS V14.01,2013-09-28 01:38:00,
2013-09-27 18:39:00,71.2,57.1,29.71,North,0,0.0,0.0,61,0.00,,---,0.00,VWS V14.01,2013-09-28 01:39:00,
2013-09-27 18:40:00,71.2,57.1,29.71,North,0,0.0,0.0,61,0.00,,---,0.00,VWS V14.01,2013-09-28 01:40:00,
2013-09-27 18:41:00,71.2,57.1,29.71,NW,315,0.9,0.9,61,0.00,,---,0.00,VWS V14.01,2013-09-28 01:41:00,
2013-09-27 18:42:00,71.2,57.1,29.71,NNE,22,0.0,0.9,61,0.00,,---,0.00,VWS V14.01,2013-09-28 01:42:00,
2013-09-27 18:43:00,71.2,57.1,29.71,NNE,22,0.0,0.0,61,0.00,,---,0.00,VWS V14.01,2013-09-28 01:43:00,
2013-09-27 18:44:00,69.6,58.6,29.71,North,0,0.0,0.0,68,0.00,,---,0.00,VWS V14.01,2013-09-28 01:44:00,
2013-09-27 18:45:00,69.4,58.4,29.71,North,0,0.0,0.0,68,0.00,,---,0.00,VWS V14.01,2013-09-28 01:45:00,
2013-09-27 18:46:00,69.4,58.4,29.71,North,0,0.0,0.0,68,0.00,,---,0.00,VWS V14.01,2013-09-28 01:46:00,
2013-09-27 18:47:00,69.4,58.4,29.71,North,0,0.0,0.0,68,0.00,,---,0.00,VWS V14.01,2013-09-28 01:47:00,
2013-09-27 18:48:00,69.4,58.4,29.71,North,0,0.0,0.0,68,0.00,,---,0.00,VWS V14.01,2013-09-28 01:48:00,
2013-09-27 18:49:00,69.4,58.4,29.71,North,0,0.0,0.0,68,0.00,,---,0.00,VWS V14.01,2013-09-28 01:49:00,
2013-09-27 18:50:00,69.4,58.4,29.71,North,0,0.0,0.0,68,0.00,,---,0.00,VWS V14.01,2013-09-28 01:50:00,
2013-09-27 18:51:00,69.4,58.4,29.71,North,0,0.0,0.0,68,0.00,,---,0.00,VWS V14.01,2013-09-28 01:51:00,
2013-09-27 18:52:00,68.9,58.7,29.71,North,0,0.0,0.0,70,0.00,,---,0.00,VWS V14.01,2013-09-28 01:52:00,
2013-09-27 18:53:00,68.9,58.7,29.71,North,0,0.0,0.0,70,0.00,,---,0.00,VWS V14.01,2013-09-28 01:53:00,
2013-09-27 18:54:00,68.7,58.5,29.71,North,0,0.0,0.0,70,0.00,,---,0.00,VWS V14.01,2013-09-28 01:54:00,
2013-09-27 18:55:00,68.5,58.4,29.71,North,0,0.0,0.0,70,0.00,,---,0.00,VWS V14.01,2013-09-28 01:55:00,
2013-09-27 18:56:00,68.5,58.4,29.71,North,0,0.0,0.0,70,0.00,,---,0.00,VWS V14.01,2013-09-28 01:56:00,
2013-09-27 19:04:00,68.0,58.7,29.71,North,0,0.0,0.0,72,0.00,,---,0.00,VWS V14.01,2013-09-28 02:04:00,
2013-09-27 19:05:00,68.0,58.7,29.74,North,0,0.0,0.0,72,0.00,,---,0.00,VWS V14.01,2013-09-28 02:05:00,
2013-09-27 19:06:00,68.0,58.7,29.74,North,0,0.0,0.0,72,0.00,,---,0.00,VWS V14.01,2013-09-28 02:06:00,
2013-09-27 19:07:00,67.5,58.9,29.74,North,0,0.0,0.0,74,0.00,,---,0.00,VWS V14.01,2013-09-28 02:07:00,
2013-09-27 19:08:00,67.5,58.9,29.74,North,0,0.0,0.0,74,0.00,,---,0.00,VWS V14.01,2013-09-28 02:08:00,
2013-09-27 19:09:00,67.5,58.9,29.74,North,0,0.0,0.0,74,0.00,,---,0.00,VWS V14.01,2013-09-28 02:09:00,
2013-09-27 19:10:00,67.3,58.7,29.74,North,0,0.0,0.0,74,0.00,,---,0.00,VWS V14.01,2013-09-28 02:10:00,
2013-09-27 19:11:00,67.3,58.7,29.74,North,0,0.0,0.0,74,0.00,,---,0.00,VWS V14.01,2013-09-28 02:11:00,
2013-09-27 19:12:00,67.1,58.5,29.74,North,0,0.0,0.0,74,0.00,,---,0.00,VWS V14.01,2013-09-28 02:12:00,
2013-09-27 19:13:00,67.1,58.9,29.74,North,0,0.0,0.0,75,0.00,,---,0.00,VWS V14.01,2013-09-28 02:13:00,
2013-09-27 19:14:00,66.9,58.8,29.74,North,0,0.0,0.0,75,0.00,,---,0.00,VWS V14.01,2013-09-28 02:14:00,
2013-09-27 19:15:00,66.9,58.8,29.74,NNE,22,0.0,0.0,75,0.00,,---,0.00,VWS V14.01,2013-09-28 02:15:00,
2013-09-27 19:16:00,66.7,58.6,29.74,NNE,22,0.0,0.0,75,0.00,,---,0.00,VWS V14.01,2013-09-28 02:16:00,
2013-09-27 19:17:00,66.7,58.6,29.74,NNW,338,0.0,0.0,75,0.00,,---,0.00,VWS V14.01,2013-09-28 02:17:00,
2013-09-27 19:18:00,66.7,58.6,29.74,North,0,0.0,0.0,75,0.00,,---,0.00,VWS V14.01,2013-09-28 02:18:00,
2013-09-27 19:19:00,66.6,58.8,29.74,North,0,0.0,0.0,76,0.00,,---,0.00,VWS V14.01,2013-09-28 02:19:00,
2013-09-27 19:20:00,66.6,58.8,29.74,North,0,0.0,0.0,76,0.00,,---,0.00,VWS V14.01,2013-09-28 02:20:00,
2013-09-27 19:21:00,66.6,58.8,29.74,NW,315,0.0,0.0,76,0.00,,---,0.00,VWS V14.01,2013-09-28 02:21:00,
2013-09-27 19:22:00,66.4,58.6,29.74,WNW,292,0.0,0.0,76,0.00,,---,0.00,VWS V14.01,2013-09-28 02:22:00,
2013-09-27 19:23:00,66.4,58.6,29.74,WNW,292,0.0,0.0,76,0.00,,---,0.00,VWS V14.01,2013-09-28 02:23:00,
2013-09-27 19:24:00,66.4,59.0,29.74,NNW,338,0.0,0.0,77,0.00,,---,0.00,VWS V14.01,2013-09-28 02:24:00,
2013-09-27 19:25:00,66.2,58.4,29.74,NNW,338,0.0,0.0,76,0.00,,---,0.00,VWS V14.01,2013-09-28 02:25:00,
2013-09-27 19:26:00,66.2,58.8,29.74,NNW,338,0.0,0.0,77,0.00,,---,0.00,VWS V14.01,2013-09-28 02:26:00,
2013-09-27 19:27:00,66.2,58.8,29.74,NNW,338,1.6,1.6,77,0.00,,---,0.00,VWS V14.01,2013-09-28 02:27:00,
2013-09-27 19:28:00,66.0,58.2,29.74,NNW,338,0.0,1.6,76,0.00,,---,0.00,VWS V14.01,2013-09-28 02:28:00,
2013-09-27 19:29:00,66.0,58.6,29.74,NNW,338,0.0,0.0,77,0.00,,---,0.00,VWS V14.01,2013-09-28 02:29:00,
2013-09-27 19:30:00,66.0,58.6,29.74,NNW,338,0.0,0.0,77,0.00,,---,0.00,VWS V14.01,2013-09-28 02:30:00,
2013-09-27 19:31:00,66.0,58.6,29.74,North,0,0.0,0.0,77,0.00,,---,0.00,VWS V14.01,2013-09-28 02:31:00,
2013-09-27 19:32:00,66.0,58.6,29.74,North,0,0.0,0.0,77,0.00,,---,0.00,VWS V14.01,2013-09-28 02:32:00,
2013-09-27 19:33:00,66.0,58.6,29.74,NNE,22,0.0,0.0,77,0.00,,---,0.00,VWS V14.01,2013-09-28 02:33:00,
2013-09-27 19:34:00,66.0,58.6,29.74,NNE,22,0.0,0.0,77,0.00,,---,0.00,VWS V14.01,2013-09-28 02:34:00,
2013-09-27 19:35:00,66.0,58.6,29.74,NE,45,0.0,0.0,77,0.00,,---,0.00,VWS V14.01,2013-09-28 02:35:00,
2013-09-27 19:36:00,66.0,58.6,29.74,NNE,22,2.2,2.2,77,0.00,,---,0.00,VWS V14.01,2013-09-28 02:36:00,
2013-09-27 19:37:00,66.0,58.6,29.74,NW,315,2.0,2.2,77,0.00,,---,0.00,VWS V14.01,2013-09-28 02:37:00,
2013-09-27 19:38:00,66.0,58.6,29.74,NNW,338,0.0,2.0,77,0.00,,---,0.00,VWS V14.01,2013-09-28 02:38:00,
2013-09-27 19:39:00,66.0,58.6,29.74,NNW,338,0.0,0.0,77,0.00,,---,0.00,VWS V14.01,2013-09-28 02:39:00,
2013-09-27 19:40:00,66.0,58.6,29.74,NNW,338,0.0,0.0,77,0.00,,---,0.00,VWS V14.01,2013-09-28 02:40:00,
2013-09-27 19:41:00,66.0,58.6,29.74,NNW,338,0.0,0.0,77,0.00,,---,0.00,VWS V14.01,2013-09-28 02:41:00,
2013-09-27 19:42:00,65.8,58.1,29.74,North,0,0.0,0.0,76,0.00,,---,0.00,VWS V14.01,2013-09-28 02:42:00,
2013-09-27 19:43:00,65.8,58.1,29.74,North,0,0.0,0.0,76,0.00,,---,0.00,VWS V14.01,2013-09-28 02:43:00,
2013-09-27 19:44:00,65.8,58.1,29.74,North,0,0.0,0.0,76,0.00,,---,0.00,VWS V14.01,2013-09-28 02:44:00,
2013-09-27 20:05:00,65.8,57.0,29.76,North,0,0.0,0.0,73,0.00,,---,0.00,VWS V14.01,2013-09-28 03:05:00,
2013-09-27 20:06:00,65.8,57.0,29.76,North,0,0.0,0.0,73,0.00,,---,0.00,VWS V14.01,2013-09-28 03:06:00,
2013-09-27 20:07:00,65.7,56.4,29.76,North,0,0.0,0.0,72,0.00,,---,0.00,VWS V14.01,2013-09-28 03:07:00,
2013-09-27 20:08:00,65.7,56.4,29.76,NW,315,0.9,0.9,72,0.00,,---,0.00,VWS V14.01,2013-09-28 03:08:00,
2013-09-27 20:09:00,65.7,56.4,29.76,NW,315,0.0,0.9,72,0.00,,---,0.00,VWS V14.01,2013-09-28 03:09:00,
2013-09-27 20:10:00,65.7,56.4,29.76,NW,315,0.0,0.0,72,0.00,,---,0.00,VWS V14.01,2013-09-28 03:10:00,
2013-09-27 20:11:00,65.7,56.4,29.76,NW,315,1.1,1.1,72,0.00,,---,0.00,VWS V14.01,2013-09-28 03:11:00,
2013-09-27 20:12:00,65.7,56.4,29.76,NW,315,1.3,1.3,72,0.00,,---,0.00,VWS V14.01,2013-09-28 03:12:00,
2013-09-27 20:13:00,65.7,56.4,29.76,NW,315,1.1,1.3,72,0.00,,---,0.00,VWS V14.01,2013-09-28 03:13:00,
2013-09-27 20:14:00,65.7,56.0,29.76,NW,315,0.0,1.1,71,0.00,,---,0.00,VWS V14.01,2013-09-28 03:14:00,
2013-09-27 20:15:00,65.7,56.0,29.76,North,0,1.3,1.3,71,0.00,,---,0.00,VWS V14.01,2013-09-28 03:15:00,
2013-09-27 20:16:00,65.7,56.0,29.76,NW,315,1.6,1.6,71,0.00,,---,0.00,VWS V14.01,2013-09-28 03:16:00,
2013-09-27 20:17:00,65.7,56.0,29.76,NNW,338,0.0,1.6,71,0.00,,---,0.00,VWS V14.01,2013-09-28 03:17:00,
2013-09-27 20:18:00,65.7,56.0,29.76,NNW,338,0.0,0.0,71,0.00,,---,0.00,VWS V14.01,2013-09-28 03:18:00,
2013-09-27 20:19:00,65.7,56.0,29.76,NNW,338,0.0,0.0,71,0.00,,---,0.00,VWS V14.01,2013-09-28 03:19:00,
2013-09-27 20:20:00,65.7,56.0,29.76,NNE,22,0.0,0.0,71,0.00,,---,0.00,VWS V14.01,2013-09-28 03:20:00,
2013-09-27 20:21:00,65.7,56.0,29.76,NW,315,0.0,0.0,71,0.00,,---,0.00,VWS V14.01,2013-09-28 03:21:00,
2013-09-27 20:22:00,65.7,56.0,29.76,North,0,0.0,0.0,71,0.00,,---,0.00,VWS V14.01,2013-09-28 03:22:00,
2013-09-27 20:23:00,65.7,56.0,29.76,NNW,338,0.9,0.9,71,0.00,,---,0.00,VWS V14.01,2013-09-28 03:23:00,
2013-09-27 20:24:00,65.7,56.0,29.76,NNW,338,0.0,0.9,71,0.00,,---,0.00,VWS V14.01,2013-09-28 03:24:00,
2013-09-27 20:25:00,65.7,56.0,29.76,NE,45,0.0,0.0,71,0.00,,---,0.00,VWS V14.01,2013-09-28 03:25:00,
2013-09-27 20:26:00,65.7,56.0,29.76,North,0,1.3,1.3,71,0.00,,---,0.00,VWS V14.01,2013-09-28 03:26:00,
2013-09-27 20:27:00,65.7,56.0,29.76,NNE,22,0.0,1.3,71,0.00,,---,0.00,VWS V14.01,2013-09-28 03:27:00,
2013-09-27 20:28:00,65.7,56.0,29.76,NNE,22,0.0,0.0,71,0.00,,---,0.00,VWS V14.01,2013-09-28 03:28:00,
2013-09-27 20:29:00,65.7,56.0,29.76,NW,315,0.0,0.0,71,0.00,,---,0.00,VWS V14.01,2013-09-28 03:29:00,
2013-09-27 20:30:00,65.7,56.0,29.76,NW,315,0.0,0.0,71,0.00,,---,0.00,VWS V14.01,2013-09-28 03:30:00,
2013-09-27 20:31:00,65.7,56.0,29.76,NW,315,0.0,0.0,71,0.00,,---,0.00,VWS V14.01,2013-09-28 03:31:00,
2013-09-27 20:32:00,65.7,56.0,29.76,North,0,0.0,0.0,71,0.00,,---,0.00,VWS V14.01,2013-09-28 03:32:00,
2013-09-27 20:33:00,65.7,56.0,29.76,NNW,338,0.0,0.0,71,0.00,,---,0.00,VWS V14.01,2013-09-28 03:33:00,
2013-09-27 20:34:00,65.7,56.0,29.76,NW,315,0.0,0.0,71,0.00,,---,0.00,VWS V14.01,2013-09-28 03:34:00,
2013-09-27 20:35:00,65.7,56.0,29.76,NNW,338,0.0,0.0,71,0.00,,---,0.00,VWS V14.01,2013-09-28 03:35:00,
2013-09-27 20:36:00,65.7,55.6,29.76,NNW,338,0.0,0.0,70,0.00,,---,0.00,VWS V14.01,2013-09-28 03:36:00,
2013-09-27 20:37:00,65.7,55.6,29.76,NNW,338,0.0,0.0,70,0.00,,---,0.00,VWS V14.01,2013-09-28 03:37:00,
2013-09-27 20:38:00,65.7,55.6,29.76,SSE,158,0.0,0.0,70,0.00,,---,0.00,VWS V14.01,2013-09-28 03:38:00,
2013-09-27 20:39:00,65.7,55.6,29.76,West,270,0.0,0.0,70,0.00,,---,0.00,VWS V14.01,2013-09-28 03:39:00,
2013-09-27 20:40:00,65.7,55.6,29.76,West,270,0.0,0.0,70,0.00,,---,0.00,VWS V14.01,2013-09-28 03:40:00,
2013-09-27 20:41:00,65.7,55.6,29.76,West,270,0.0,0.0,70,0.00,,---,0.00,VWS V14.01,2013-09-28 03:41:00,
2013-09-27 20:42:00,65.7,55.6,29.76,West,270,0.0,0.0,70,0.00,,---,0.00,VWS V14.01,2013-09-28 03:42:00,
2013-09-27 20:43:00,65.7,55.6,29.76,West,270,0.0,0.0,70,0.00,,---,0.00,VWS V14.01,2013-09-28 03:43:00,
2013-09-27 20:44:00,65.7,56.0,29.76,West,270,0.0,0.0,71,0.00,,---,0.00,VWS V14.01,2013-09-28 03:44:00,
2013-09-27 20:45:00,65.7,56.0,29.76,NW,315,0.0,0.0,71,0.00,,---,0.00,VWS V14.01,2013-09-28 03:45:00,
2013-09-27 20:46:00,65.7,55.6,29.76,NW,315,0.0,0.0,70,0.00,,---,0.00,VWS V14.01,2013-09-28 03:46:00,
2013-09-27 20:47:00,65.7,56.0,29.76,NW,315,0.0,0.0,71,0.00,,---,0.00,VWS V14.01,2013-09-28 03:47:00,
2013-09-27 20:48:00,65.7,56.0,29.76,NW,315,0.0,0.0,71,0.00,,---,0.00,VWS V14.01,2013-09-28 03:48:00,
2013-09-27 20:49:00,65.5,55.8,29.76,NW,315,0.0,0.0,71,0.00,,---,0.00,VWS V14.01,2013-09-28 03:49:00,
2013-09-27 20:50:00,65.5,55.8,29.79,NNE,22,0.0,0.0,71,0.00,,---,0.00,VWS V14.01,2013-09-28 03:50:00,
2013-09-27 20:51:00,65.5,55.8,29.79,NNE,22,0.0,0.0,71,0.00,,---,0.00,VWS V14.01,2013-09-28 03:51:00,
2013-09-27 20:52:00,65.5,55.8,29.79,NE,45,0.0,0.0,71,0.00,,---,0.00,VWS V14.01,2013-09-28 03:52:00,
2013-09-27 20:53:00,65.5,55.8,29.79,NE,45,0.0,0.0,71,0.00,,---,0.00,VWS V14.01,2013-09-28 03:53:00,
2013-09-27 20:54:00,65.5,55.8,29.79,NE,45,0.0,0.0,71,0.00,,---,0.00,VWS V14.01,2013-09-28 03:54:00,
2013-09-27 20:55:00,65.5,55.8,29.79,NE,45,0.0,0.0,71,0.00,,---,0.00,VWS V14.01,2013-09-28 03:55:00,
2013-09-27 20:56:00,65.5,55.8,29.79,NE,45,0.0,0.0,71,0.00,,---,0.00,VWS V14.01,2013-09-28 03:56:00,
2013-09-27 20:57:00,65.3,55.7,29.79,NE,45,0.0,0.0,71,0.00,,---,0.00,VWS V14.01,2013-09-28 03:57:00,
2013-09-27 20:58:00,65.3,55.7,29.79,NNE,22,0.0,0.0,71,0.00,,---,0.00,VWS V14.01,2013-09-28 03:58:00,
2013-09-27 20:59:00,65.1,55.5,29.79,NNW,338,0.0,0.0,71,0.00,,---,0.00,VWS V14.01,2013-09-28 03:59:00,
2013-09-27 21:00:00,64.9,55.3,29.79,NW,315,0.0,0.0,71,0.00,,---,0.00,VWS V14.01,2013-09-28 04:00:00,
2013-09-27 21:01:00,64.8,55.2,29.79,NW,315,0.0,0.0,71,0.00,,---,0.00,VWS V14.01,2013-09-28 04:01:00,
2013-09-27 21:02:00,64.8,55.2,29.79,WSW,248,0.0,0.0,71,0.00,,---,0.00,VWS V14.01,2013-09-28 04:02:00,
2013-09-27 21:03:00,64.6,55.0,29.79,WSW,248,0.0,0.0,71,0.00,,---,0.00,VWS V14.01,2013-09-28 04:03:00,
2013-09-27 21:04:00,64.4,55.2,29.79,WSW,248,0.0,0.0,72,0.00,,---,0.00,VWS V14.01,2013-09-28 04:04:00,
2013-09-27 21:05:00,64.4,55.2,29.79,WSW,248,0.0,0.0,72,0.00,,---,0.00,VWS V14.01,2013-09-28 04:05:00,
2013-09-27 21:06:00,64.4,55.2,29.79,WSW,248,0.0,0.0,72,0.00,,---,0.00,VWS V14.01,2013-09-28 04:06:00,
2013-09-27 21:07:00,64.4,55.2,29.79,WSW,248,0.0,0.0,72,0.00,,---,0.00,VWS V14.01,2013-09-28 04:07:00,
2013-09-27 21:08:00,64.4,55.2,29.79,WSW,248,0.0,0.0,72,0.00,,---,0.00,VWS V14.01,2013-09-28 04:08:00,
2013-09-27 21:09:00,64.4,55.2,29.79,WSW,248,0.0,0.0,72,0.00,,---,0.00,VWS V14.01,2013-09-28 04:09:00,
2013-09-27 21:10:00,64.4,55.2,29.79,WSW,248,0.0,0.0,72,0.00,,---,0.00,VWS V14.01,2013-09-28 04:10:00,
2013-09-27 21:11:00,64.4,55.2,29.79,SW,225,0.0,0.0,72,0.00,,---,0.00,VWS V14.01,2013-09-28 04:11:00,
2013-09-27 21:12:00,64.4,55.2,29.79,SW,225,0.0,0.0,72,0.00,,---,0.00,VWS V14.01,2013-09-28 04:12:00,
2013-09-27 21:13:00,64.4,55.2,29.79,SW,225,0.0,0.0,72,0.00,,---,0.00,VWS V14.01,2013-09-28 04:13:00,
2013-09-27 21:14:00,64.4,55.2,29.79,SW,225,0.0,0.0,72,0.00,,---,0.00,VWS V14.01,2013-09-28 04:14:00,
2013-09-27 21:15:00,64.4,55.2,29.79,SW,225,0.0,0.0,72,0.00,,---,0.00,VWS V14.01,2013-09-28 04:15:00,
2013-09-27 21:16:00,64.4,55.2,29.79,SW,225,0.0,0.0,72,0.00,,---,0.00,VWS V14.01,2013-09-28 04:16:00,
2013-09-27 21:17:00,64.4,55.2,29.79,SW,225,0.0,0.0,72,0.00,,---,0.00,VWS V14.01,2013-09-28 04:17:00,
2013-09-27 21:18:00,64.4,55.2,29.79,SW,225,0.0,0.0,72,0.00,,---,0.00,VWS V14.01,2013-09-28 04:18:00,
2013-09-27 21:19:00,64.4,55.2,29.79,SW,225,0.0,0.0,72,0.00,,---,0.00,VWS V14.01,2013-09-28 04:19:00,
2013-09-27 21:20:00,64.4,55.2,29.76,SW,225,0.0,0.0,72,0.00,,---,0.00,VWS V14.01,2013-09-28 04:20:00,
2013-09-27 21:21:00,64.4,55.2,29.76,SW,225,0.0,0.0,72,0.00,,---,0.00,VWS V14.01,2013-09-28 04:21:00,
2013-09-27 21:22:00,64.4,55.2,29.76,SW,225,0.0,0.0,72,0.00,,---,0.00,VWS V14.01,2013-09-28 04:22:00,
2013-09-27 21:23:00,64.4,55.2,29.76,SW,225,0.0,0.0,72,0.00,,---,0.00,VWS V14.01,2013-09-28 04:23:00,
2013-09-27 21:24:00,64.4,55.2,29.76,SW,225,0.0,0.0,72,0.00,,---,0.00,VWS V14.01,2013-09-28 04:24:00,
2013-09-27 21:25:00,64.4,55.2,29.76,SW,225,0.0,0.0,72,0.00,,---,0.00,VWS V14.01,2013-09-28 04:25:00,
2013-09-27 21:26:00,64.4,55.2,29.76,SW,225,0.0,0.0,72,0.00,,---,0.00,VWS V14.01,2013-09-28 04:26:00,
2013-09-27 21:40:00,61.9,54.6,29.79,SW,225,0.0,0.0,77,0.00,,---,0.00,VWS V14.01,2013-09-28 04:40:00,
2013-09-27 21:41:00,61.9,54.6,29.79,SW,225,0.0,0.0,77,0.00,,---,0.00,VWS V14.01,2013-09-28 04:41:00,
2013-09-27 21:42:00,61.9,54.6,29.79,SW,225,0.0,0.0,77,0.00,,---,0.00,VWS V14.01,2013-09-28 04:42:00,
2013-09-27 21:43:00,61.9,54.6,29.79,SW,225,0.0,0.0,77,0.00,,---,0.00,VWS V14.01,2013-09-28 04:43:00,
2013-09-27 21:44:00,61.9,54.6,29.79,SW,225,0.0,0.0,77,0.00,,---,0.00,VWS V14.01,2013-09-28 04:44:00,
2013-09-27 21:45:00,61.9,54.6,29.79,SW,225,0.0,0.0,77,0.00,,---,0.00,VWS V14.01,2013-09-28 04:45:00,
2013-09-27 21:46:00,61.9,54.6,29.79,SW,225,0.0,0.0,77,0.00,,---,0.00,VWS V14.01,2013-09-28 04:46:00,
2013-09-27 21:47:00,61.9,54.6,29.79,SW,225,0.0,0.0,77,0.00,,---,0.00,VWS V14.01,2013-09-28 04:47:00,
2013-09-27 21:48:00,61.9,54.6,29.79,SW,225,0.0,0.0,77,0.00,,---,0.00,VWS V14.01,2013-09-28 04:48:00,
2013-09-27 21:49:00,61.9,54.6,29.79,SW,225,0.0,0.0,77,0.00,,---,0.00,VWS V14.01,2013-09-28 04:49:00,
2013-09-27 21:50:00,61.9,54.6,29.79,SW,225,0.0,0.0,77,0.00,,---,0.00,VWS V14.01,2013-09-28 04:50:00,
2013-09-27 21:51:00,61.9,54.6,29.79,SSW,202,0.0,0.0,77,0.00,,---,0.00,VWS V14.01,2013-09-28 04:51:00,
2013-09-27 21:52:00,61.9,54.6,29.79,SSW,202,0.0,0.0,77,0.00,,---,0.00,VWS V14.01,2013-09-28 04:52:00,
2013-09-27 21:53:00,61.9,54.6,29.79,South,180,0.0,0.0,77,0.00,,---,0.00,VWS V14.01,2013-09-28 04:53:00,
2013-09-27 21:54:00,61.9,54.6,29.79,South,180,0.0,0.0,77,0.00,,---,0.00,VWS V14.01,2013-09-28 04:54:00,
2013-09-27 21:55:00,61.9,54.6,29.79,South,180,0.0,0.0,77,0.00,,---,0.00,VWS V14.01,2013-09-28 04:55:00,
2013-09-27 21:56:00,61.9,54.6,29.79,South,180,1.1,1.1,77,0.00,,---,0.00,VWS V14.01,2013-09-28 04:56:00,
2013-09-27 21:57:00,61.9,54.6,29.79,South,180,0.0,1.1,77,0.00,,---,0.00,VWS V14.01,2013-09-28 04:57:00,
2013-09-27 21:58:00,61.9,54.6,29.79,South,180,0.0,0.0,77,0.00,,---,0.00,VWS V14.01,2013-09-28 04:58:00,
2013-09-27 21:59:00,61.9,54.6,29.79,South,180,0.0,0.0,77,0.00,,---,0.00,VWS V14.01,2013-09-28 04:59:00,
2013-09-27 22:00:00,61.9,54.6,29.79,South,180,0.0,0.0,77,0.00,,---,0.00,VWS V14.01,2013-09-28 05:00:00,
2013-09-27 22:01:00,61.9,54.6,29.79,South,180,0.0,0.0,77,0.00,,---,0.00,VWS V14.01,2013-09-28 05:01:00,
2013-09-27 22:02:00,61.9,54.6,29.79,South,180,0.0,0.0,77,0.00,,---,0.00,VWS V14.01,2013-09-28 05:02:00,
2013-09-27 22:03:00,61.9,54.6,29.79,South,180,0.0,0.0,77,0.00,,---,0.00,VWS V14.01,2013-09-28 05:03:00,
2013-09-27 22:04:00,61.9,54.6,29.79,South,180,0.0,0.0,77,0.00,,---,0.00,VWS V14.01,2013-09-28 05:04:00,
2013-09-27 22:05:00,61.9,54.6,29.79,South,180,0.0,0.0,77,0.00,,---,0.00,VWS V14.01,2013-09-28 05:05:00,
2013-09-27 22:06:00,61.9,54.6,29.79,South,180,0.0,0.0,77,0.00,,---,0.00,VWS V14.01,2013-09-28 05:06:00,
2013-09-27 22:07:00,61.2,55.0,29.79,South,180,0.0,0.0,80,0.00,,---,0.00,VWS V14.01,2013-09-28 05:07:00,
2013-09-27 22:08:00,61.0,54.8,29.79,South,180,0.0,0.0,80,0.00,,---,0.00,VWS V14.01,2013-09-28 05:08:00,
2013-09-27 22:09:00,61.0,54.4,29.79,South,180,0.0,0.0,79,0.00,,---,0.00,VWS V14.01,2013-09-28 05:09:00,
2013-09-27 22:10:00,61.0,54.8,29.79,South,180,0.0,0.0,80,0.00,,---,0.00,VWS V14.01,2013-09-28 05:10:00,
2013-09-27 22:11:00,60.8,54.3,29.79,South,180,0.0,0.0,79,0.00,,---,0.00,VWS V14.01,2013-09-28 05:11:00,
2013-09-27 22:12:00,60.8,54.6,29.79,South,180,0.0,0.0,80,0.00,,---,0.00,VWS V14.01,2013-09-28 05:12:00,
2013-09-27 22:13:00,60.8,54.6,29.79,South,180,0.0,0.0,80,0.00,,---,0.00,VWS V14.01,2013-09-28 05:13:00,
2013-09-27 22:14:00,60.8,54.6,29.79,South,180,0.0,0.0,80,0.00,,---,0.00,VWS V14.01,2013-09-28 05:14:00,
2013-09-27 22:15:00,60.6,54.4,29.79,South,180,0.0,0.0,80,0.00,,---,0.00,VWS V14.01,2013-09-28 05:15:00,
2013-09-27 22:16:00,60.6,54.4,29.79,South,180,0.0,0.0,80,0.00,,---,0.00,VWS V14.01,2013-09-28 05:16:00,
2013-09-27 22:17:00,60.6,54.4,29.79,South,180,0.0,0.0,80,0.00,,---,0.00,VWS V14.01,2013-09-28 05:17:00,
2013-09-27 22:18:00,60.6,54.4,29.79,South,180,0.0,0.0,80,0.00,,---,0.00,VWS V14.01,2013-09-28 05:18:00,
2013-09-27 22:19:00,60.4,54.2,29.79,South,180,0.0,0.0,80,0.00,,---,0.00,VWS V14.01,2013-09-28 05:19:00,
2013-09-27 22:20:00,60.4,54.2,29.79,South,180,0.0,0.0,80,0.00,,---,0.00,VWS V14.01,2013-09-28 05:20:00,
2013-09-27 22:21:00,60.4,54.2,29.79,South,180,0.0,0.0,80,0.00,,---,0.00,VWS V14.01,2013-09-28 05:21:00,
2013-09-27 22:22:00,60.4,54.2,29.79,South,180,0.0,0.0,80,0.00,,---,0.00,VWS V14.01,2013-09-28 05:22:00,
2013-09-27 22:29:00,60.4,54.2,29.79,South,180,0.0,0.0,80,0.00,,---,0.00,VWS V14.01,2013-09-28 05:29:00,
2013-09-27 22:30:00,60.4,54.2,29.79,South,180,0.0,0.0,80,0.00,,---,0.00,VWS V14.01,2013-09-28 05:30:00,
2013-09-27 22:31:00,60.4,54.2,29.79,South,180,0.0,0.0,80,0.00,,---,0.00,VWS V14.01,2013-09-28 05:31:00,
2013-09-27 22:32:00,60.6,54.4,29.79,South,180,0.0,0.0,80,0.00,,---,0.00,VWS V14.01,2013-09-28 05:32:00,
2013-09-27 22:33:00,60.6,54.4,29.79,South,180,0.0,0.0,80,0.00,,---,0.00,VWS V14.01,2013-09-28 05:33:00,
2013-09-27 22:34:00,60.6,54.4,29.79,South,180,0.0,0.0,80,0.00,,---,0.00,VWS V14.01,2013-09-28 05:34:00,
2013-09-27 22:35:00,60.6,54.4,29.79,South,180,0.0,0.0,80,0.00,,---,0.00,VWS V14.01,2013-09-28 05:35:00,
2013-09-27 22:36:00,60.6,54.4,29.79,South,180,0.0,0.0,80,0.00,,---,0.00,VWS V14.01,2013-09-28 05:36:00,
2013-09-27 22:37:00,60.6,54.4,29.79,South,180,0.0,0.0,80,0.00,,---,0.00,VWS V14.01,2013-09-28 05:37:00,
2013-09-27 22:38:00,60.6,54.4,29.79,South,180,0.0,0.0,80,0.00,,---,0.00,VWS V14.01,2013-09-28 05:38:00,
2013-09-27 22:39:00,60.6,54.4,29.79,South,180,0.0,0.0,80,0.00,,---,0.00,VWS V14.01,2013-09-28 05:39:00,
2013-09-27 22:40:00,60.6,54.4,29.79,South,180,0.0,0.0,80,0.00,,---,0.00,VWS V14.01,2013-09-28 05:40:00,
2013-09-27 22:41:00,60.6,54.4,29.79,South,180,0.0,0.0,80,0.00,,---,0.00,VWS V14.01,2013-09-28 05:41:00,
2013-09-27 22:42:00,60.6,54.4,29.79,South,180,0.0,0.0,80,0.00,,---,0.00,VWS V14.01,2013-09-28 05:42:00,
2013-09-27 22:43:00,60.6,54.4,29.79,South,180,0.0,0.0,80,0.00,,---,0.00,VWS V14.01,2013-09-28 05:43:00,
2013-09-27 22:44:00,60.4,54.2,29.79,South,180,0.0,0.0,80,0.00,,---,0.00,VWS V14.01,2013-09-28 05:44:00,
2013-09-27 22:45:00,60.4,54.2,29.79,South,180,0.0,0.0,80,0.00,,---,0.00,VWS V14.01,2013-09-28 05:45:00,
2013-09-27 22:46:00,60.4,54.2,29.79,South,180,0.0,0.0,80,0.00,,---,0.00,VWS V14.01,2013-09-28 05:46:00,
2013-09-27 22:47:00,60.4,54.2,29.79,South,180,0.0,0.0,80,0.00,,---,0.00,VWS V14.01,2013-09-28 05:47:00,
2013-09-27 22:48:00,60.4,54.2,29.79,South,180,0.0,0.0,80,0.00,,---,0.00,VWS V14.01,2013-09-28 05:48:00,
2013-09-27 22:49:00,60.4,54.2,29.79,South,180,0.0,0.0,80,0.00,,---,0.00,VWS V14.01,2013-09-28 05:49:00,
2013-09-27 22:50:00,60.4,54.2,29.79,South,180,0.0,0.0,80,0.00,,---,0.00,VWS V14.01,2013-09-28 05:50:00,
2013-09-27 22:51:00,60.4,54.2,29.79,South,180,0.0,0.0,80,0.00,,---,0.00,VWS V14.01,2013-09-28 05:51:00,
2013-09-27 22:52:00,60.4,54.2,29.79,South,180,0.0,0.0,80,0.00,,---,0.00,VWS V14.01,2013-09-28 05:52:00,
2013-09-27 22:53:00,60.4,54.2,29.79,South,180,0.0,0.0,80,0.00,,---,0.00,VWS V14.01,2013-09-28 05:53:00,
2013-09-27 22:54:00,60.4,54.2,29.79,South,180,0.0,0.0,80,0.00,,---,0.00,VWS V14.01,2013-09-28 05:54:00,
2013-09-27 22:55:00,60.4,54.2,29.79,South,180,0.0,0.0,80,0.00,,---,0.00,VWS V14.01,2013-09-28 05:55:00,
2013-09-27 22:56:00,60.4,54.2,29.79,South,180,0.0,0.0,80,0.00,,---,0.00,VWS V14.01,2013-09-28 05:56:00,
2013-09-27 22:57:00,60.4,54.2,29.79,South,180,0.0,0.0,80,0.00,,---,0.00,VWS V14.01,2013-09-28 05:57:00,
2013-09-27 22:58:00,60.4,54.2,29.79,South,180,0.0,0.0,80,0.00,,---,0.00,VWS V14.01,2013-09-28 05:58:00,
2013-09-27 22:59:00,60.4,54.2,29.79,South,180,0.0,0.0,80,0.00,,---,0.00,VWS V14.01,2013-09-28 05:59:00,
2013-09-27 23:00:00,60.4,54.2,29.79,South,180,0.0,0.0,80,0.00,,---,0.00,VWS V14.01,2013-09-28 06:00:00,
2013-09-27 23:01:00,60.4,54.2,29.79,South,180,0.0,0.0,80,0.00,,---,0.00,VWS V14.01,2013-09-28 06:01:00,
2013-09-27 23:02:00,60.4,54.2,29.79,South,180,0.0,0.0,80,0.00,,---,0.00,VWS V14.01,2013-09-28 06:02:00,
2013-09-27 23:03:00,60.4,54.2,29.79,South,180,0.0,0.0,80,0.00,,---,0.00,VWS V14.01,2013-09-28 06:03:00,
2013-09-27 23:04:00,60.4,54.2,29.79,South,180,0.0,0.0,80,0.00,,---,0.00,VWS V14.01,2013-09-28 06:04:00,
2013-09-27 23:05:00,60.4,54.2,29.79,South,180,0.0,0.0,80,0.00,,---,0.00,VWS V14.01,2013-09-28 06:05:00,
2013-09-27 23:06:00,60.4,54.2,29.79,South,180,0.0,0.0,80,0.00,,---,0.00,VWS V14.01,2013-09-28 06:06:00,
2013-09-27 23:07:00,60.4,54.2,29.79,South,180,0.0,0.0,80,0.00,,---,0.00,VWS V14.01,2013-09-28 06:07:00,
2013-09-27 23:08:00,59.7,53.2,29.79,South,180,0.0,0.0,79,0.00,,---,0.00,VWS V14.01,2013-09-28 06:08:00,
2013-09-27 23:09:00,59.7,53.2,29.79,South,180,0.0,0.0,79,0.00,,---,0.00,VWS V14.01,2013-09-28 06:09:00,
2013-09-27 23:24:00,60.3,53.7,29.76,South,180,1.1,1.1,79,0.00,,---,0.00,VWS V14.01,2013-09-28 06:24:00,
2013-09-27 23:25:00,60.3,53.7,29.76,South,180,1.3,1.3,79,0.00,,---,0.00,VWS V14.01,2013-09-28 06:25:00,
2013-09-27 23:26:00,60.3,53.7,29.76,South,180,0.9,1.3,79,0.00,,---,0.00,VWS V14.01,2013-09-28 06:26:00,
2013-09-27 23:27:00,60.3,53.7,29.76,South,180,0.0,0.9,79,0.00,,---,0.00,VWS V14.01,2013-09-28 06:27:00,
2013-09-27 23:28:00,60.6,53.4,29.76,South,180,0.0,0.0,77,0.00,,---,0.00,VWS V14.01,2013-09-28 06:28:00,
2013-09-27 23:29:00,60.6,53.4,29.76,South,180,0.0,0.0,77,0.00,,---,0.00,VWS V14.01,2013-09-28 06:29:00,
2013-09-27 23:30:00,60.6,53.4,29.76,South,180,0.0,0.0,77,0.00,,---,0.00,VWS V14.01,2013-09-28 06:30:00,
2013-09-27 23:31:00,60.6,53.4,29.76,South,180,0.0,0.0,77,0.00,,---,0.00,VWS V14.01,2013-09-28 06:31:00,
2013-09-27 23:32:00,60.6,53.4,29.76,South,180,0.0,0.0,77,0.00,,---,0.00,VWS V14.01,2013-09-28 06:32:00,
2013-09-27 23:33:00,60.6,53.4,29.76,South,180,0.0,0.0,77,0.00,,---,0.00,VWS V14.01,2013-09-28 06:33:00,
2013-09-27 23:34:00,60.6,53.4,29.76,South,180,0.0,0.0,77,0.00,,---,0.00,VWS V14.01,2013-09-28 06:34:00,
2013-09-27 23:35:00,60.6,53.0,29.79,South,180,0.0,0.0,76,0.00,,---,0.00,VWS V14.01,2013-09-28 06:35:00,
2013-09-27 23:36:00,60.6,53.0,29.79,South,180,0.0,0.0,76,0.00,,---,0.00,VWS V14.01,2013-09-28 06:36:00,
2013-09-27 23:37:00,60.6,53.0,29.79,South,180,0.0,0.0,76,0.00,,---,0.00,VWS V14.01,2013-09-28 06:37:00,
2013-09-27 23:38:00,60.6,53.0,29.79,South,180,0.0,0.0,76,0.00,,---,0.00,VWS V14.01,2013-09-28 06:38:00,
2013-09-27 23:39:00,60.6,53.0,29.79,South,180,0.0,0.0,76,0.00,,---,0.00,VWS V14.01,2013-09-28 06:39:00,
2013-09-27 23:40:00,60.3,52.3,29.79,South,180,0.0,0.0,75,0.00,,---,0.00,VWS V14.01,2013-09-28 06:40:00,
2013-09-27 23:41:00,60.3,52.3,29.79,South,180,0.0,0.0,75,0.00,,---,0.00,VWS V14.01,2013-09-28 06:41:00,
2013-09-27 23:42:00,60.1,52.1,29.79,South,180,0.0,0.0,75,0.00,,---,0.00,VWS V14.01,2013-09-28 06:42:00,
2013-09-27 23:43:00,60.1,52.1,29.79,South,180,0.0,0.0,75,0.00,,---,0.00,VWS V14.01,2013-09-28 06:43:00,
2013-09-27 23:44:00,59.9,52.0,29.79,South,180,0.0,0.0,75,0.00,,---,0.00,VWS V14.01,2013-09-28 06:44:00,
2013-09-27 23:45:00,59.7,51.8,29.79,South,180,0.0,0.0,75,0.00,,---,0.00,VWS V14.01,2013-09-28 06:45:00,
2013-09-27 23:46:00,59.7,51.4,29.79,South,180,0.0,0.0,74,0.00,,---,0.00,VWS V14.01,2013-09-28 06:46:00,
2013-09-27 23:47:00,59.7,51.4,29.79,South,180,0.0,0.0,74,0.00,,---,0.00,VWS V14.01,2013-09-28 06:47:00,
2013-09-27 23:48:00,59.5,51.3,29.79,South,180,0.0,0.0,74,0.00,,---,0.00,VWS V14.01,2013-09-28 06:48:00,
2013-09-27 23:49:00,59.5,51.3,29.79,South,180,0.0,0.0,74,0.00,,---,0.00,VWS V14.01,2013-09-28 06:49:00,
2013-09-27 23:50:00,59.4,51.1,29.79,South,180,0.0,0.0,74,0.00,,---,0.00,VWS V14.01,2013-09-28 06:50:00,
2013-09-27 23:51:00,59.4,51.1,29.79,South,180,0.0,0.0,74,0.00,,---,0.00,VWS V14.01,2013-09-28 06:51:00,
2013-09-27 23:52:00,59.4,51.1,29.79,South,180,0.0,0.0,74,0.00,,---,0.00,VWS V14.01,2013-09-28 06:52:00,
2013-09-27 23:53:00,59.2,50.9,29.79,South,180,0.0,0.0,74,0.00,,---,0.00,VWS V14.01,2013-09-28 06:53:00,
2013-09-27 23:54:00,59.0,50.7,29.79,South,180,0.0,0.0,74,0.00,,---,0.00,VWS V14.01,2013-09-28 06:54:00,
2013-09-27 23:55:00,59.0,50.7,29.79,South,180,0.0,0.0,74,0.00,,---,0.00,VWS V14.01,2013-09-28 06:55:00,
2013-09-27 23:56:00,58.8,50.6,29.79,South,180,0.0,0.0,74,0.00,,---,0.00,VWS V14.01,2013-09-28 06:56:00,
2013-09-27 23:57:00,58.8,50.9,29.79,South,180,0.0,0.0,75,0.00,,---,0.00,VWS V14.01,2013-09-28 06:57:00,
2013-09-27 23:58:00,58.8,50.9,29.79,South,180,0.0,0.0,75,0.00,,---,0.00,VWS V14.01,2013-09-28 06:58:00,
2013-09-27 23:59:00,58.8,50.9,29.79,South,180,0.0,0.0,75,0.00,,---,0.00,VWS V14.01,2013-09-28 06:59:00,